<?xml version='1.0' encoding='UTF-8'?>
<gpx version="1.1" creator="https://www.komoot.de" xmlns="http://www.topografix.com/GPX/1/1" xmlns:xsi="http://www.w3.org/2001/XMLSchema-instance" xsi:schemaLocation="http://www.topografix.com/GPX/1/1 http://www.topografix.com/GPX/1/1/gpx.xsd">
  <metadata>
    <name>Radtour 12, entlang der Zaya und der Mistel, und wieder zurück</name>
    <author>
      <link href="https://www.komoot.de">
        <text>komoot</text>
        <type>text/html</type>
      </link>
    </author>
  </metadata>
  <trk>
    <name>Radtour 12, entlang der Zaya und der Mistel, und wieder zurück</name>
    <trkseg>
      <trkpt lat="48.583954" lon="16.649141">
        <ele>236.995461</ele>
        <time>2020-07-10T14:48:38.275Z</time>
      </trkpt>
      <trkpt lat="48.584146" lon="16.648989">
        <ele>236.995461</ele>
        <time>2020-07-10T14:49:07.319Z</time>
      </trkpt>
      <trkpt lat="48.584228" lon="16.648913">
        <ele>236.995461</ele>
        <time>2020-07-10T14:49:09.291Z</time>
      </trkpt>
      <trkpt lat="48.584314" lon="16.648834">
        <ele>236.995461</ele>
        <time>2020-07-10T14:49:11.292Z</time>
      </trkpt>
      <trkpt lat="48.584401" lon="16.648766">
        <ele>236.995461</ele>
        <time>2020-07-10T14:49:13.268Z</time>
      </trkpt>
      <trkpt lat="48.584481" lon="16.648643">
        <ele>236.995461</ele>
        <time>2020-07-10T14:49:16.291Z</time>
      </trkpt>
      <trkpt lat="48.584430" lon="16.648527">
        <ele>236.995461</ele>
        <time>2020-07-10T14:49:18.274Z</time>
      </trkpt>
      <trkpt lat="48.584371" lon="16.648420">
        <ele>236.995461</ele>
        <time>2020-07-10T14:49:20.286Z</time>
      </trkpt>
      <trkpt lat="48.584299" lon="16.648269">
        <ele>236.910216</ele>
        <time>2020-07-10T14:49:23.281Z</time>
      </trkpt>
      <trkpt lat="48.584215" lon="16.648107">
        <ele>236.565791</ele>
        <time>2020-07-10T14:49:26.300Z</time>
      </trkpt>
      <trkpt lat="48.584158" lon="16.647993">
        <ele>236.326675</ele>
        <time>2020-07-10T14:49:28.307Z</time>
      </trkpt>
      <trkpt lat="48.584094" lon="16.647888">
        <ele>236.087767</ele>
        <time>2020-07-10T14:49:30.278Z</time>
      </trkpt>
      <trkpt lat="48.584027" lon="16.647780">
        <ele>235.840015</ele>
        <time>2020-07-10T14:49:32.282Z</time>
      </trkpt>
      <trkpt lat="48.583959" lon="16.647666">
        <ele>235.583160</ele>
        <time>2020-07-10T14:49:34.266Z</time>
      </trkpt>
      <trkpt lat="48.583894" lon="16.647541">
        <ele>235.317110</ele>
        <time>2020-07-10T14:49:36.259Z</time>
      </trkpt>
      <trkpt lat="48.583830" lon="16.647418">
        <ele>235.055254</ele>
        <time>2020-07-10T14:49:38.260Z</time>
      </trkpt>
      <trkpt lat="48.583763" lon="16.647295">
        <ele>234.788640</ele>
        <time>2020-07-10T14:49:40.285Z</time>
      </trkpt>
      <trkpt lat="48.583696" lon="16.647176">
        <ele>234.527157</ele>
        <time>2020-07-10T14:49:42.258Z</time>
      </trkpt>
      <trkpt lat="48.583626" lon="16.647058">
        <ele>234.261942</ele>
        <time>2020-07-10T14:49:44.273Z</time>
      </trkpt>
      <trkpt lat="48.583558" lon="16.646930">
        <ele>233.987240</ele>
        <time>2020-07-10T14:49:46.262Z</time>
      </trkpt>
      <trkpt lat="48.583494" lon="16.646796">
        <ele>233.710681</ele>
        <time>2020-07-10T14:49:48.268Z</time>
      </trkpt>
      <trkpt lat="48.583433" lon="16.646664">
        <ele>233.441244</ele>
        <time>2020-07-10T14:49:50.265Z</time>
      </trkpt>
      <trkpt lat="48.583368" lon="16.646527">
        <ele>233.159133</ele>
        <time>2020-07-10T14:49:52.286Z</time>
      </trkpt>
      <trkpt lat="48.583304" lon="16.646389">
        <ele>232.877119</ele>
        <time>2020-07-10T14:49:54.279Z</time>
      </trkpt>
      <trkpt lat="48.583243" lon="16.646259">
        <ele>232.610418</ele>
        <time>2020-07-10T14:49:56.271Z</time>
      </trkpt>
      <trkpt lat="48.583185" lon="16.646131">
        <ele>232.410698</ele>
        <time>2020-07-10T14:49:58.271Z</time>
      </trkpt>
      <trkpt lat="48.583133" lon="16.645999">
        <ele>232.315693</ele>
        <time>2020-07-10T14:50:00.268Z</time>
      </trkpt>
      <trkpt lat="48.583081" lon="16.645858">
        <ele>232.215865</ele>
        <time>2020-07-10T14:50:02.267Z</time>
      </trkpt>
      <trkpt lat="48.583035" lon="16.645732">
        <ele>232.126870</ele>
        <time>2020-07-10T14:50:04.278Z</time>
      </trkpt>
      <trkpt lat="48.582976" lon="16.645585">
        <ele>232.020543</ele>
        <time>2020-07-10T14:50:07.286Z</time>
      </trkpt>
      <trkpt lat="48.582930" lon="16.645463">
        <ele>231.933705</ele>
        <time>2020-07-10T14:50:11.265Z</time>
      </trkpt>
      <trkpt lat="48.583018" lon="16.645391">
        <ele>231.840167</ele>
        <time>2020-07-10T14:50:15.266Z</time>
      </trkpt>
      <trkpt lat="48.583122" lon="16.645341">
        <ele>231.738151</ele>
        <time>2020-07-10T14:50:18.290Z</time>
      </trkpt>
      <trkpt lat="48.583110" lon="16.645199">
        <ele>231.649625</ele>
        <time>2020-07-10T14:50:21.280Z</time>
      </trkpt>
      <trkpt lat="48.583042" lon="16.645081">
        <ele>231.552851</ele>
        <time>2020-07-10T14:50:23.294Z</time>
      </trkpt>
      <trkpt lat="48.582976" lon="16.644925">
        <ele>231.438340</ele>
        <time>2020-07-10T14:50:25.274Z</time>
      </trkpt>
      <trkpt lat="48.582910" lon="16.644761">
        <ele>231.319631</ele>
        <time>2020-07-10T14:50:27.293Z</time>
      </trkpt>
      <trkpt lat="48.582844" lon="16.644587">
        <ele>231.195597</ele>
        <time>2020-07-10T14:50:29.271Z</time>
      </trkpt>
      <trkpt lat="48.582782" lon="16.644425">
        <ele>231.079860</ele>
        <time>2020-07-10T14:50:31.261Z</time>
      </trkpt>
      <trkpt lat="48.582729" lon="16.644261">
        <ele>230.966988</ele>
        <time>2020-07-10T14:50:33.269Z</time>
      </trkpt>
      <trkpt lat="48.582674" lon="16.644103">
        <ele>230.856580</ele>
        <time>2020-07-10T14:50:35.302Z</time>
      </trkpt>
      <trkpt lat="48.582617" lon="16.643946">
        <ele>230.758671</ele>
        <time>2020-07-10T14:50:37.284Z</time>
      </trkpt>
      <trkpt lat="48.582561" lon="16.643788">
        <ele>230.724238</ele>
        <time>2020-07-10T14:50:39.257Z</time>
      </trkpt>
      <trkpt lat="48.582507" lon="16.643637">
        <ele>230.691265</ele>
        <time>2020-07-10T14:50:41.297Z</time>
      </trkpt>
      <trkpt lat="48.582452" lon="16.643490">
        <ele>230.658823</ele>
        <time>2020-07-10T14:50:43.301Z</time>
      </trkpt>
      <trkpt lat="48.582393" lon="16.643344">
        <ele>230.625959</ele>
        <time>2020-07-10T14:50:45.290Z</time>
      </trkpt>
      <trkpt lat="48.582333" lon="16.643197">
        <ele>230.592778</ele>
        <time>2020-07-10T14:50:47.283Z</time>
      </trkpt>
      <trkpt lat="48.582272" lon="16.643056">
        <ele>230.560415</ele>
        <time>2020-07-10T14:50:49.287Z</time>
      </trkpt>
      <trkpt lat="48.582213" lon="16.642918">
        <ele>230.528852</ele>
        <time>2020-07-10T14:50:51.306Z</time>
      </trkpt>
      <trkpt lat="48.582156" lon="16.642773">
        <ele>230.496451</ele>
        <time>2020-07-10T14:50:53.288Z</time>
      </trkpt>
      <trkpt lat="48.582102" lon="16.642629">
        <ele>230.464654</ele>
        <time>2020-07-10T14:50:55.265Z</time>
      </trkpt>
      <trkpt lat="48.582046" lon="16.642477">
        <ele>230.431233</ele>
        <time>2020-07-10T14:50:57.265Z</time>
      </trkpt>
      <trkpt lat="48.581999" lon="16.642319">
        <ele>230.397954</ele>
        <time>2020-07-10T14:50:59.265Z</time>
      </trkpt>
      <trkpt lat="48.581953" lon="16.642183">
        <ele>230.368612</ele>
        <time>2020-07-10T14:51:01.258Z</time>
      </trkpt>
      <trkpt lat="48.581898" lon="16.642063">
        <ele>230.340569</ele>
        <time>2020-07-10T14:51:03.274Z</time>
      </trkpt>
      <trkpt lat="48.581843" lon="16.641940">
        <ele>230.312049</ele>
        <time>2020-07-10T14:51:05.278Z</time>
      </trkpt>
      <trkpt lat="48.581794" lon="16.641818">
        <ele>230.284632</ele>
        <time>2020-07-10T14:51:07.264Z</time>
      </trkpt>
      <trkpt lat="48.581746" lon="16.641686">
        <ele>230.255697</ele>
        <time>2020-07-10T14:51:09.276Z</time>
      </trkpt>
      <trkpt lat="48.581700" lon="16.641547">
        <ele>230.248976</ele>
        <time>2020-07-10T14:51:11.288Z</time>
      </trkpt>
      <trkpt lat="48.581654" lon="16.641411">
        <ele>230.261196</ele>
        <time>2020-07-10T14:51:13.269Z</time>
      </trkpt>
      <trkpt lat="48.581608" lon="16.641274">
        <ele>230.273487</ele>
        <time>2020-07-10T14:51:15.260Z</time>
      </trkpt>
      <trkpt lat="48.581559" lon="16.641137">
        <ele>230.285946</ele>
        <time>2020-07-10T14:51:17.268Z</time>
      </trkpt>
      <trkpt lat="48.581504" lon="16.641002">
        <ele>230.298630</ele>
        <time>2020-07-10T14:51:19.268Z</time>
      </trkpt>
      <trkpt lat="48.581450" lon="16.640866">
        <ele>230.311319</ele>
        <time>2020-07-10T14:51:21.270Z</time>
      </trkpt>
      <trkpt lat="48.581397" lon="16.640729">
        <ele>230.324016</ele>
        <time>2020-07-10T14:51:23.269Z</time>
      </trkpt>
      <trkpt lat="48.581347" lon="16.640585">
        <ele>230.337026</ele>
        <time>2020-07-10T14:51:25.271Z</time>
      </trkpt>
      <trkpt lat="48.581294" lon="16.640438">
        <ele>230.350420</ele>
        <time>2020-07-10T14:51:27.267Z</time>
      </trkpt>
      <trkpt lat="48.581241" lon="16.640290">
        <ele>230.363883</ele>
        <time>2020-07-10T14:51:29.257Z</time>
      </trkpt>
      <trkpt lat="48.581187" lon="16.640142">
        <ele>230.377405</ele>
        <time>2020-07-10T14:51:31.289Z</time>
      </trkpt>
      <trkpt lat="48.581130" lon="16.639996">
        <ele>230.390967</ele>
        <time>2020-07-10T14:51:33.287Z</time>
      </trkpt>
      <trkpt lat="48.581071" lon="16.639855">
        <ele>230.404314</ele>
        <time>2020-07-10T14:51:35.266Z</time>
      </trkpt>
      <trkpt lat="48.581013" lon="16.639718">
        <ele>230.417327</ele>
        <time>2020-07-10T14:51:37.274Z</time>
      </trkpt>
      <trkpt lat="48.580956" lon="16.639583">
        <ele>230.430139</ele>
        <time>2020-07-10T14:51:39.272Z</time>
      </trkpt>
      <trkpt lat="48.580895" lon="16.639449">
        <ele>230.443152</ele>
        <time>2020-07-10T14:51:41.299Z</time>
      </trkpt>
      <trkpt lat="48.580836" lon="16.639309">
        <ele>230.456432</ele>
        <time>2020-07-10T14:51:43.286Z</time>
      </trkpt>
      <trkpt lat="48.580781" lon="16.639163">
        <ele>230.461996</ele>
        <time>2020-07-10T14:51:45.266Z</time>
      </trkpt>
      <trkpt lat="48.580726" lon="16.639018">
        <ele>230.465032</ele>
        <time>2020-07-10T14:51:47.274Z</time>
      </trkpt>
      <trkpt lat="48.580671" lon="16.638877">
        <ele>230.468005</ele>
        <time>2020-07-10T14:51:49.290Z</time>
      </trkpt>
      <trkpt lat="48.580610" lon="16.638749">
        <ele>230.470871</ele>
        <time>2020-07-10T14:51:51.310Z</time>
      </trkpt>
      <trkpt lat="48.580528" lon="16.638655">
        <ele>230.473696</ele>
        <time>2020-07-10T14:51:54.261Z</time>
      </trkpt>
      <trkpt lat="48.580445" lon="16.638552">
        <ele>230.476645</ele>
        <time>2020-07-10T14:51:59.270Z</time>
      </trkpt>
      <trkpt lat="48.580391" lon="16.638398">
        <ele>230.479811</ele>
        <time>2020-07-10T14:52:02.291Z</time>
      </trkpt>
      <trkpt lat="48.580357" lon="16.638266">
        <ele>230.482384</ele>
        <time>2020-07-10T14:52:04.280Z</time>
      </trkpt>
      <trkpt lat="48.580322" lon="16.638124">
        <ele>230.485137</ele>
        <time>2020-07-10T14:52:06.277Z</time>
      </trkpt>
      <trkpt lat="48.580281" lon="16.637985">
        <ele>230.487901</ele>
        <time>2020-07-10T14:52:08.290Z</time>
      </trkpt>
      <trkpt lat="48.580232" lon="16.637844">
        <ele>230.490794</ele>
        <time>2020-07-10T14:52:10.269Z</time>
      </trkpt>
      <trkpt lat="48.580182" lon="16.637699">
        <ele>230.493765</ele>
        <time>2020-07-10T14:52:12.265Z</time>
      </trkpt>
      <trkpt lat="48.580135" lon="16.637553">
        <ele>230.496714</ele>
        <time>2020-07-10T14:52:14.290Z</time>
      </trkpt>
      <trkpt lat="48.580086" lon="16.637404">
        <ele>230.499737</ele>
        <time>2020-07-10T14:52:16.283Z</time>
      </trkpt>
      <trkpt lat="48.580036" lon="16.637259">
        <ele>230.502707</ele>
        <time>2020-07-10T14:52:18.282Z</time>
      </trkpt>
      <trkpt lat="48.579986" lon="16.637118">
        <ele>230.505613</ele>
        <time>2020-07-10T14:52:20.266Z</time>
      </trkpt>
      <trkpt lat="48.579932" lon="16.636974">
        <ele>230.508620</ele>
        <time>2020-07-10T14:52:22.306Z</time>
      </trkpt>
      <trkpt lat="48.579875" lon="16.636831">
        <ele>230.485505</ele>
        <time>2020-07-10T14:52:24.270Z</time>
      </trkpt>
      <trkpt lat="48.579810" lon="16.636691">
        <ele>230.457181</ele>
        <time>2020-07-10T14:52:26.299Z</time>
      </trkpt>
      <trkpt lat="48.579737" lon="16.636563">
        <ele>230.429195</ele>
        <time>2020-07-10T14:52:28.299Z</time>
      </trkpt>
      <trkpt lat="48.579663" lon="16.636433">
        <ele>230.400794</ele>
        <time>2020-07-10T14:52:30.272Z</time>
      </trkpt>
      <trkpt lat="48.579588" lon="16.636304">
        <ele>230.372354</ele>
        <time>2020-07-10T14:52:32.286Z</time>
      </trkpt>
      <trkpt lat="48.579507" lon="16.636185">
        <ele>230.344079</ele>
        <time>2020-07-10T14:52:34.291Z</time>
      </trkpt>
      <trkpt lat="48.579419" lon="16.636064">
        <ele>230.314301</ele>
        <time>2020-07-10T14:52:36.283Z</time>
      </trkpt>
      <trkpt lat="48.579335" lon="16.635931">
        <ele>230.283850</ele>
        <time>2020-07-10T14:52:38.260Z</time>
      </trkpt>
      <trkpt lat="48.579255" lon="16.635799">
        <ele>230.254204</ele>
        <time>2020-07-10T14:52:40.272Z</time>
      </trkpt>
      <trkpt lat="48.579174" lon="16.635672">
        <ele>230.224990</ele>
        <time>2020-07-10T14:52:42.258Z</time>
      </trkpt>
      <trkpt lat="48.579094" lon="16.635544">
        <ele>230.195830</ele>
        <time>2020-07-10T14:52:44.291Z</time>
      </trkpt>
      <trkpt lat="48.579013" lon="16.635420">
        <ele>230.166971</ele>
        <time>2020-07-10T14:52:46.279Z</time>
      </trkpt>
      <trkpt lat="48.578927" lon="16.635289">
        <ele>230.136409</ele>
        <time>2020-07-10T14:52:48.278Z</time>
      </trkpt>
      <trkpt lat="48.578838" lon="16.635158">
        <ele>230.105313</ele>
        <time>2020-07-10T14:52:50.287Z</time>
      </trkpt>
      <trkpt lat="48.578745" lon="16.635035">
        <ele>230.074379</ele>
        <time>2020-07-10T14:52:52.288Z</time>
      </trkpt>
      <trkpt lat="48.578657" lon="16.634906">
        <ele>230.045692</ele>
        <time>2020-07-10T14:52:54.278Z</time>
      </trkpt>
      <trkpt lat="48.578571" lon="16.634784">
        <ele>230.020066</ele>
        <time>2020-07-10T14:52:56.298Z</time>
      </trkpt>
      <trkpt lat="48.578486" lon="16.634659">
        <ele>229.994299</ele>
        <time>2020-07-10T14:52:58.294Z</time>
      </trkpt>
      <trkpt lat="48.578401" lon="16.634530">
        <ele>229.968128</ele>
        <time>2020-07-10T14:53:00.267Z</time>
      </trkpt>
      <trkpt lat="48.578318" lon="16.634409">
        <ele>229.943073</ele>
        <time>2020-07-10T14:53:02.261Z</time>
      </trkpt>
      <trkpt lat="48.578242" lon="16.634292">
        <ele>229.919503</ele>
        <time>2020-07-10T14:53:04.275Z</time>
      </trkpt>
      <trkpt lat="48.578170" lon="16.634172">
        <ele>229.896216</ele>
        <time>2020-07-10T14:53:06.272Z</time>
      </trkpt>
      <trkpt lat="48.578106" lon="16.634024">
        <ele>229.870800</ele>
        <time>2020-07-10T14:53:08.274Z</time>
      </trkpt>
      <trkpt lat="48.578035" lon="16.633889">
        <ele>229.846010</ele>
        <time>2020-07-10T14:53:10.281Z</time>
      </trkpt>
      <trkpt lat="48.577948" lon="16.633768">
        <ele>229.820322</ele>
        <time>2020-07-10T14:53:12.297Z</time>
      </trkpt>
      <trkpt lat="48.577865" lon="16.633654">
        <ele>229.795955</ele>
        <time>2020-07-10T14:53:14.266Z</time>
      </trkpt>
      <trkpt lat="48.577784" lon="16.633543">
        <ele>229.772199</ele>
        <time>2020-07-10T14:53:16.280Z</time>
      </trkpt>
      <trkpt lat="48.577703" lon="16.633429">
        <ele>229.748152</ele>
        <time>2020-07-10T14:53:18.270Z</time>
      </trkpt>
      <trkpt lat="48.577624" lon="16.633303">
        <ele>229.723198</ele>
        <time>2020-07-10T14:53:20.270Z</time>
      </trkpt>
      <trkpt lat="48.577547" lon="16.633182">
        <ele>229.699065</ele>
        <time>2020-07-10T14:53:22.271Z</time>
      </trkpt>
      <trkpt lat="48.577470" lon="16.633060">
        <ele>229.674827</ele>
        <time>2020-07-10T14:53:24.255Z</time>
      </trkpt>
      <trkpt lat="48.577384" lon="16.632933">
        <ele>229.652066</ele>
        <time>2020-07-10T14:53:26.278Z</time>
      </trkpt>
      <trkpt lat="48.577297" lon="16.632817">
        <ele>229.631244</ele>
        <time>2020-07-10T14:53:28.289Z</time>
      </trkpt>
      <trkpt lat="48.577213" lon="16.632698">
        <ele>229.610580</ele>
        <time>2020-07-10T14:53:30.316Z</time>
      </trkpt>
      <trkpt lat="48.577132" lon="16.632583">
        <ele>229.590634</ele>
        <time>2020-07-10T14:53:32.288Z</time>
      </trkpt>
      <trkpt lat="48.577051" lon="16.632465">
        <ele>229.570443</ele>
        <time>2020-07-10T14:53:34.296Z</time>
      </trkpt>
      <trkpt lat="48.576969" lon="16.632341">
        <ele>229.549624</ele>
        <time>2020-07-10T14:53:36.266Z</time>
      </trkpt>
      <trkpt lat="48.576891" lon="16.632203">
        <ele>229.528071</ele>
        <time>2020-07-10T14:53:38.283Z</time>
      </trkpt>
      <trkpt lat="48.576816" lon="16.632048">
        <ele>229.505268</ele>
        <time>2020-07-10T14:53:40.277Z</time>
      </trkpt>
      <trkpt lat="48.576749" lon="16.631913">
        <ele>229.485228</ele>
        <time>2020-07-10T14:53:42.272Z</time>
      </trkpt>
      <trkpt lat="48.576680" lon="16.631775">
        <ele>229.464687</ele>
        <time>2020-07-10T14:53:44.285Z</time>
      </trkpt>
      <trkpt lat="48.576609" lon="16.631660">
        <ele>229.446009</ele>
        <time>2020-07-10T14:53:46.281Z</time>
      </trkpt>
      <trkpt lat="48.576500" lon="16.631718">
        <ele>229.425269</ele>
        <time>2020-07-10T14:53:49.272Z</time>
      </trkpt>
      <trkpt lat="48.576425" lon="16.631832">
        <ele>229.406178</ele>
        <time>2020-07-10T14:53:51.265Z</time>
      </trkpt>
      <trkpt lat="48.576346" lon="16.631938">
        <ele>229.387217</ele>
        <time>2020-07-10T14:53:53.276Z</time>
      </trkpt>
      <trkpt lat="48.576264" lon="16.632039">
        <ele>229.368232</ele>
        <time>2020-07-10T14:53:55.256Z</time>
      </trkpt>
      <trkpt lat="48.576176" lon="16.632139">
        <ele>229.348471</ele>
        <time>2020-07-10T14:53:57.260Z</time>
      </trkpt>
      <trkpt lat="48.576087" lon="16.632241">
        <ele>229.358243</ele>
        <time>2020-07-10T14:53:59.293Z</time>
      </trkpt>
      <trkpt lat="48.576001" lon="16.632347">
        <ele>229.373701</ele>
        <time>2020-07-10T14:54:01.277Z</time>
      </trkpt>
      <trkpt lat="48.575918" lon="16.632456">
        <ele>229.389018</ele>
        <time>2020-07-10T14:54:03.281Z</time>
      </trkpt>
      <trkpt lat="48.575839" lon="16.632560">
        <ele>229.403611</ele>
        <time>2020-07-10T14:54:05.268Z</time>
      </trkpt>
      <trkpt lat="48.575760" lon="16.632665">
        <ele>229.418266</ele>
        <time>2020-07-10T14:54:07.278Z</time>
      </trkpt>
      <trkpt lat="48.575678" lon="16.632767">
        <ele>229.433059</ele>
        <time>2020-07-10T14:54:09.288Z</time>
      </trkpt>
      <trkpt lat="48.575593" lon="16.632859">
        <ele>229.447623</ele>
        <time>2020-07-10T14:54:11.289Z</time>
      </trkpt>
      <trkpt lat="48.575515" lon="16.632950">
        <ele>229.461349</ele>
        <time>2020-07-10T14:54:13.298Z</time>
      </trkpt>
      <trkpt lat="48.575438" lon="16.633043">
        <ele>229.475079</ele>
        <time>2020-07-10T14:54:15.256Z</time>
      </trkpt>
      <trkpt lat="48.575364" lon="16.633137">
        <ele>229.488544</ele>
        <time>2020-07-10T14:54:17.259Z</time>
      </trkpt>
      <trkpt lat="48.575292" lon="16.633224">
        <ele>229.501385</ele>
        <time>2020-07-10T14:54:19.310Z</time>
      </trkpt>
      <trkpt lat="48.575197" lon="16.633227">
        <ele>229.514621</ele>
        <time>2020-07-10T14:54:21.276Z</time>
      </trkpt>
      <trkpt lat="48.575141" lon="16.633110">
        <ele>229.527930</ele>
        <time>2020-07-10T14:54:23.275Z</time>
      </trkpt>
      <trkpt lat="48.575085" lon="16.632958">
        <ele>229.543965</ele>
        <time>2020-07-10T14:54:25.257Z</time>
      </trkpt>
      <trkpt lat="48.575030" lon="16.632821">
        <ele>229.558734</ele>
        <time>2020-07-10T14:54:27.280Z</time>
      </trkpt>
      <trkpt lat="48.574980" lon="16.632670">
        <ele>229.574297</ele>
        <time>2020-07-10T14:54:29.294Z</time>
      </trkpt>
      <trkpt lat="48.574933" lon="16.632519">
        <ele>229.589677</ele>
        <time>2020-07-10T14:54:31.295Z</time>
      </trkpt>
      <trkpt lat="48.574892" lon="16.632367">
        <ele>229.591256</ele>
        <time>2020-07-10T14:54:33.283Z</time>
      </trkpt>
      <trkpt lat="48.574852" lon="16.632219">
        <ele>229.583912</ele>
        <time>2020-07-10T14:54:35.259Z</time>
      </trkpt>
      <trkpt lat="48.574855" lon="16.632073">
        <ele>229.577202</ele>
        <time>2020-07-10T14:54:37.264Z</time>
      </trkpt>
      <trkpt lat="48.574947" lon="16.631988">
        <ele>229.569716</ele>
        <time>2020-07-10T14:54:39.279Z</time>
      </trkpt>
      <trkpt lat="48.575044" lon="16.631908">
        <ele>229.562045</ele>
        <time>2020-07-10T14:54:41.265Z</time>
      </trkpt>
      <trkpt lat="48.575116" lon="16.631806">
        <ele>229.555193</ele>
        <time>2020-07-10T14:54:43.281Z</time>
      </trkpt>
      <trkpt lat="48.575092" lon="16.631655">
        <ele>229.548060</ele>
        <time>2020-07-10T14:54:45.286Z</time>
      </trkpt>
      <trkpt lat="48.575039" lon="16.631493">
        <ele>229.539758</ele>
        <time>2020-07-10T14:54:47.306Z</time>
      </trkpt>
      <trkpt lat="48.574977" lon="16.631335">
        <ele>229.531320</ele>
        <time>2020-07-10T14:54:49.288Z</time>
      </trkpt>
      <trkpt lat="48.574909" lon="16.631182">
        <ele>229.522854</ele>
        <time>2020-07-10T14:54:51.277Z</time>
      </trkpt>
      <trkpt lat="48.574853" lon="16.631019">
        <ele>229.514417</ele>
        <time>2020-07-10T14:54:53.279Z</time>
      </trkpt>
      <trkpt lat="48.574796" lon="16.630871">
        <ele>229.506551</ele>
        <time>2020-07-10T14:54:55.272Z</time>
      </trkpt>
      <trkpt lat="48.574735" lon="16.630710">
        <ele>229.498029</ele>
        <time>2020-07-10T14:54:57.263Z</time>
      </trkpt>
      <trkpt lat="48.574684" lon="16.630556">
        <ele>229.490118</ele>
        <time>2020-07-10T14:54:59.302Z</time>
      </trkpt>
      <trkpt lat="48.574650" lon="16.630389">
        <ele>229.482092</ele>
        <time>2020-07-10T14:55:01.268Z</time>
      </trkpt>
      <trkpt lat="48.574631" lon="16.630215">
        <ele>229.473991</ele>
        <time>2020-07-10T14:55:03.265Z</time>
      </trkpt>
      <trkpt lat="48.574619" lon="16.630042">
        <ele>229.476694</ele>
        <time>2020-07-10T14:55:05.278Z</time>
      </trkpt>
      <trkpt lat="48.574606" lon="16.629865">
        <ele>229.486404</ele>
        <time>2020-07-10T14:55:07.294Z</time>
      </trkpt>
      <trkpt lat="48.574595" lon="16.629690">
        <ele>229.495988</ele>
        <time>2020-07-10T14:55:09.298Z</time>
      </trkpt>
      <trkpt lat="48.574578" lon="16.629514">
        <ele>229.505686</ele>
        <time>2020-07-10T14:55:11.261Z</time>
      </trkpt>
      <trkpt lat="48.574557" lon="16.629338">
        <ele>229.515436</ele>
        <time>2020-07-10T14:55:13.261Z</time>
      </trkpt>
      <trkpt lat="48.574533" lon="16.629160">
        <ele>229.525341</ele>
        <time>2020-07-10T14:55:15.272Z</time>
      </trkpt>
      <trkpt lat="48.574512" lon="16.628985">
        <ele>229.535038</ele>
        <time>2020-07-10T14:55:17.273Z</time>
      </trkpt>
      <trkpt lat="48.574489" lon="16.628807">
        <ele>229.544926</ele>
        <time>2020-07-10T14:55:19.290Z</time>
      </trkpt>
      <trkpt lat="48.574470" lon="16.628625">
        <ele>229.554972</ele>
        <time>2020-07-10T14:55:21.291Z</time>
      </trkpt>
      <trkpt lat="48.574453" lon="16.628442">
        <ele>229.565048</ele>
        <time>2020-07-10T14:55:23.289Z</time>
      </trkpt>
      <trkpt lat="48.574438" lon="16.628262">
        <ele>229.574939</ele>
        <time>2020-07-10T14:55:25.279Z</time>
      </trkpt>
      <trkpt lat="48.574421" lon="16.628089">
        <ele>229.584475</ele>
        <time>2020-07-10T14:55:27.289Z</time>
      </trkpt>
      <trkpt lat="48.574405" lon="16.627914">
        <ele>229.594108</ele>
        <time>2020-07-10T14:55:29.262Z</time>
      </trkpt>
      <trkpt lat="48.574381" lon="16.627755">
        <ele>229.602999</ele>
        <time>2020-07-10T14:55:31.300Z</time>
      </trkpt>
      <trkpt lat="48.574348" lon="16.627611">
        <ele>229.611308</ele>
        <time>2020-07-10T14:55:33.291Z</time>
      </trkpt>
      <trkpt lat="48.574313" lon="16.627465">
        <ele>229.621194</ele>
        <time>2020-07-10T14:55:35.274Z</time>
      </trkpt>
      <trkpt lat="48.574251" lon="16.627349">
        <ele>229.646594</ele>
        <time>2020-07-10T14:55:37.275Z</time>
      </trkpt>
      <trkpt lat="48.574151" lon="16.627348">
        <ele>229.672338</ele>
        <time>2020-07-10T14:55:39.267Z</time>
      </trkpt>
      <trkpt lat="48.574043" lon="16.627415">
        <ele>229.702392</ele>
        <time>2020-07-10T14:55:41.302Z</time>
      </trkpt>
      <trkpt lat="48.573921" lon="16.627423">
        <ele>229.733828</ele>
        <time>2020-07-10T14:55:43.289Z</time>
      </trkpt>
      <trkpt lat="48.573814" lon="16.627345">
        <ele>229.764410</ele>
        <time>2020-07-10T14:55:45.285Z</time>
      </trkpt>
      <trkpt lat="48.573718" lon="16.627238">
        <ele>229.795117</ele>
        <time>2020-07-10T14:55:47.263Z</time>
      </trkpt>
      <trkpt lat="48.573626" lon="16.627121">
        <ele>229.826070</ele>
        <time>2020-07-10T14:55:49.303Z</time>
      </trkpt>
      <trkpt lat="48.573533" lon="16.627005">
        <ele>229.857112</ele>
        <time>2020-07-10T14:55:51.277Z</time>
      </trkpt>
      <trkpt lat="48.573448" lon="16.626884">
        <ele>229.887171</ele>
        <time>2020-07-10T14:55:53.273Z</time>
      </trkpt>
      <trkpt lat="48.573393" lon="16.626712">
        <ele>229.919711</ele>
        <time>2020-07-10T14:55:55.324Z</time>
      </trkpt>
      <trkpt lat="48.573376" lon="16.626537">
        <ele>229.949839</ele>
        <time>2020-07-10T14:55:57.261Z</time>
      </trkpt>
      <trkpt lat="48.573364" lon="16.626361">
        <ele>229.979976</ele>
        <time>2020-07-10T14:55:59.266Z</time>
      </trkpt>
      <trkpt lat="48.573348" lon="16.626208">
        <ele>230.006360</ele>
        <time>2020-07-10T14:56:01.260Z</time>
      </trkpt>
      <trkpt lat="48.573327" lon="16.626036">
        <ele>230.036152</ele>
        <time>2020-07-10T14:56:03.279Z</time>
      </trkpt>
      <trkpt lat="48.573313" lon="16.625872">
        <ele>230.064318</ele>
        <time>2020-07-10T14:56:05.260Z</time>
      </trkpt>
      <trkpt lat="48.573301" lon="16.625703">
        <ele>230.093254</ele>
        <time>2020-07-10T14:56:07.259Z</time>
      </trkpt>
      <trkpt lat="48.573258" lon="16.625558">
        <ele>230.120279</ele>
        <time>2020-07-10T14:56:09.279Z</time>
      </trkpt>
      <trkpt lat="48.573162" lon="16.625574">
        <ele>230.145105</ele>
        <time>2020-07-10T14:56:11.274Z</time>
      </trkpt>
      <trkpt lat="48.573063" lon="16.625522">
        <ele>230.172046</ele>
        <time>2020-07-10T14:56:13.289Z</time>
      </trkpt>
      <trkpt lat="48.573016" lon="16.625358">
        <ele>230.202444</ele>
        <time>2020-07-10T14:56:15.264Z</time>
      </trkpt>
      <trkpt lat="48.572995" lon="16.625205">
        <ele>230.229020</ele>
        <time>2020-07-10T14:56:17.269Z</time>
      </trkpt>
      <trkpt lat="48.572980" lon="16.625028">
        <ele>230.259370</ele>
        <time>2020-07-10T14:56:19.308Z</time>
      </trkpt>
      <trkpt lat="48.572963" lon="16.624856">
        <ele>230.288949</ele>
        <time>2020-07-10T14:56:21.278Z</time>
      </trkpt>
      <trkpt lat="48.572940" lon="16.624684">
        <ele>230.318794</ele>
        <time>2020-07-10T14:56:23.321Z</time>
      </trkpt>
      <trkpt lat="48.572916" lon="16.624506">
        <ele>230.349691</ele>
        <time>2020-07-10T14:56:25.265Z</time>
      </trkpt>
      <trkpt lat="48.572883" lon="16.624328">
        <ele>230.381131</ele>
        <time>2020-07-10T14:56:27.267Z</time>
      </trkpt>
      <trkpt lat="48.572849" lon="16.624151">
        <ele>230.412479</ele>
        <time>2020-07-10T14:56:29.286Z</time>
      </trkpt>
      <trkpt lat="48.572817" lon="16.623960">
        <ele>230.445990</ele>
        <time>2020-07-10T14:56:31.286Z</time>
      </trkpt>
      <trkpt lat="48.572786" lon="16.623772">
        <ele>230.478943</ele>
        <time>2020-07-10T14:56:33.315Z</time>
      </trkpt>
      <trkpt lat="48.572760" lon="16.623594">
        <ele>230.509946</ele>
        <time>2020-07-10T14:56:35.313Z</time>
      </trkpt>
      <trkpt lat="48.572733" lon="16.623418">
        <ele>230.540675</ele>
        <time>2020-07-10T14:56:37.267Z</time>
      </trkpt>
      <trkpt lat="48.572704" lon="16.623250">
        <ele>230.568054</ele>
        <time>2020-07-10T14:56:39.268Z</time>
      </trkpt>
      <trkpt lat="48.572680" lon="16.623084">
        <ele>230.594537</ele>
        <time>2020-07-10T14:56:41.315Z</time>
      </trkpt>
      <trkpt lat="48.572650" lon="16.622910">
        <ele>230.622563</ele>
        <time>2020-07-10T14:56:43.272Z</time>
      </trkpt>
      <trkpt lat="48.572621" lon="16.622747">
        <ele>230.648870</ele>
        <time>2020-07-10T14:56:45.286Z</time>
      </trkpt>
      <trkpt lat="48.572593" lon="16.622563">
        <ele>230.678297</ele>
        <time>2020-07-10T14:56:48.296Z</time>
      </trkpt>
      <trkpt lat="48.572563" lon="16.622405">
        <ele>230.703917</ele>
        <time>2020-07-10T14:56:51.310Z</time>
      </trkpt>
      <trkpt lat="48.572444" lon="16.622392">
        <ele>230.732022</ele>
        <time>2020-07-10T14:56:55.269Z</time>
      </trkpt>
      <trkpt lat="48.572336" lon="16.622450">
        <ele>230.759020</ele>
        <time>2020-07-10T14:56:58.322Z</time>
      </trkpt>
      <trkpt lat="48.572205" lon="16.622511">
        <ele>230.791310</ele>
        <time>2020-07-10T14:57:01.278Z</time>
      </trkpt>
      <trkpt lat="48.572085" lon="16.622493">
        <ele>230.819715</ele>
        <time>2020-07-10T14:57:03.285Z</time>
      </trkpt>
      <trkpt lat="48.572027" lon="16.622343">
        <ele>230.846794</ele>
        <time>2020-07-10T14:57:05.277Z</time>
      </trkpt>
      <trkpt lat="48.571985" lon="16.622160">
        <ele>230.876984</ele>
        <time>2020-07-10T14:57:07.265Z</time>
      </trkpt>
      <trkpt lat="48.571939" lon="16.622007">
        <ele>230.903177</ele>
        <time>2020-07-10T14:57:09.300Z</time>
      </trkpt>
      <trkpt lat="48.571894" lon="16.621859">
        <ele>230.928564</ele>
        <time>2020-07-10T14:57:11.278Z</time>
      </trkpt>
      <trkpt lat="48.571850" lon="16.621697">
        <ele>230.955858</ele>
        <time>2020-07-10T14:57:13.273Z</time>
      </trkpt>
      <trkpt lat="48.571808" lon="16.621539">
        <ele>230.994365</ele>
        <time>2020-07-10T14:57:15.290Z</time>
      </trkpt>
      <trkpt lat="48.571766" lon="16.621386">
        <ele>231.041885</ele>
        <time>2020-07-10T14:57:17.275Z</time>
      </trkpt>
      <trkpt lat="48.571732" lon="16.621224">
        <ele>231.090641</ele>
        <time>2020-07-10T14:57:19.271Z</time>
      </trkpt>
      <trkpt lat="48.571702" lon="16.621069">
        <ele>231.136971</ele>
        <time>2020-07-10T14:57:21.270Z</time>
      </trkpt>
      <trkpt lat="48.571681" lon="16.620918">
        <ele>231.181236</ele>
        <time>2020-07-10T14:57:23.280Z</time>
      </trkpt>
      <trkpt lat="48.571648" lon="16.620765">
        <ele>231.227402</ele>
        <time>2020-07-10T14:57:25.275Z</time>
      </trkpt>
      <trkpt lat="48.571608" lon="16.620620">
        <ele>231.272469</ele>
        <time>2020-07-10T14:57:27.255Z</time>
      </trkpt>
      <trkpt lat="48.571563" lon="16.620478">
        <ele>231.317637</ele>
        <time>2020-07-10T14:57:29.294Z</time>
      </trkpt>
      <trkpt lat="48.571511" lon="16.620342">
        <ele>231.362699</ele>
        <time>2020-07-10T14:57:31.279Z</time>
      </trkpt>
      <trkpt lat="48.571461" lon="16.620203">
        <ele>231.408087</ele>
        <time>2020-07-10T14:57:33.296Z</time>
      </trkpt>
      <trkpt lat="48.571413" lon="16.620058">
        <ele>231.454600</ele>
        <time>2020-07-10T14:57:35.255Z</time>
      </trkpt>
      <trkpt lat="48.571368" lon="16.619910">
        <ele>231.501326</ele>
        <time>2020-07-10T14:57:37.271Z</time>
      </trkpt>
      <trkpt lat="48.571324" lon="16.619767">
        <ele>231.546569</ele>
        <time>2020-07-10T14:57:39.269Z</time>
      </trkpt>
      <trkpt lat="48.571284" lon="16.619629">
        <ele>231.589790</ele>
        <time>2020-07-10T14:57:41.283Z</time>
      </trkpt>
      <trkpt lat="48.571241" lon="16.619481">
        <ele>231.636162</ele>
        <time>2020-07-10T14:57:43.297Z</time>
      </trkpt>
      <trkpt lat="48.571198" lon="16.619339">
        <ele>231.680962</ele>
        <time>2020-07-10T14:57:45.269Z</time>
      </trkpt>
      <trkpt lat="48.571160" lon="16.619194">
        <ele>231.725704</ele>
        <time>2020-07-10T14:57:47.277Z</time>
      </trkpt>
      <trkpt lat="48.571124" lon="16.619047">
        <ele>231.748481</ele>
        <time>2020-07-10T14:57:49.307Z</time>
      </trkpt>
      <trkpt lat="48.571098" lon="16.618892">
        <ele>231.749491</ele>
        <time>2020-07-10T14:57:51.317Z</time>
      </trkpt>
      <trkpt lat="48.571088" lon="16.618732">
        <ele>231.750506</ele>
        <time>2020-07-10T14:57:53.295Z</time>
      </trkpt>
      <trkpt lat="48.571095" lon="16.618569">
        <ele>231.751538</ele>
        <time>2020-07-10T14:57:55.437Z</time>
      </trkpt>
      <trkpt lat="48.571099" lon="16.618405">
        <ele>231.752574</ele>
        <time>2020-07-10T14:57:57.289Z</time>
      </trkpt>
      <trkpt lat="48.571099" lon="16.618238">
        <ele>231.753629</ele>
        <time>2020-07-10T14:57:59.284Z</time>
      </trkpt>
      <trkpt lat="48.571098" lon="16.618073">
        <ele>231.754671</ele>
        <time>2020-07-10T14:58:01.282Z</time>
      </trkpt>
      <trkpt lat="48.571103" lon="16.617904">
        <ele>231.755739</ele>
        <time>2020-07-10T14:58:03.280Z</time>
      </trkpt>
      <trkpt lat="48.571110" lon="16.617735">
        <ele>231.756809</ele>
        <time>2020-07-10T14:58:05.304Z</time>
      </trkpt>
      <trkpt lat="48.571124" lon="16.617573">
        <ele>231.757841</ele>
        <time>2020-07-10T14:58:07.269Z</time>
      </trkpt>
      <trkpt lat="48.571146" lon="16.617406">
        <ele>231.758916</ele>
        <time>2020-07-10T14:58:09.284Z</time>
      </trkpt>
      <trkpt lat="48.571170" lon="16.617237">
        <ele>231.760008</ele>
        <time>2020-07-10T14:58:11.275Z</time>
      </trkpt>
      <trkpt lat="48.571186" lon="16.617073">
        <ele>231.761055</ele>
        <time>2020-07-10T14:58:13.279Z</time>
      </trkpt>
      <trkpt lat="48.571181" lon="16.616919">
        <ele>231.762029</ele>
        <time>2020-07-10T14:58:15.273Z</time>
      </trkpt>
      <trkpt lat="48.571163" lon="16.616769">
        <ele>231.762991</ele>
        <time>2020-07-10T14:58:17.290Z</time>
      </trkpt>
      <trkpt lat="48.571144" lon="16.616615">
        <ele>231.763981</ele>
        <time>2020-07-10T14:58:19.274Z</time>
      </trkpt>
      <trkpt lat="48.571112" lon="16.616462">
        <ele>231.764994</ele>
        <time>2020-07-10T14:58:21.293Z</time>
      </trkpt>
      <trkpt lat="48.571051" lon="16.616330">
        <ele>231.786768</ele>
        <time>2020-07-10T14:58:23.281Z</time>
      </trkpt>
      <trkpt lat="48.570951" lon="16.616285">
        <ele>231.811754</ele>
        <time>2020-07-10T14:58:25.286Z</time>
      </trkpt>
      <trkpt lat="48.570882" lon="16.616154">
        <ele>231.838285</ele>
        <time>2020-07-10T14:58:28.286Z</time>
      </trkpt>
      <trkpt lat="48.570988" lon="16.616033">
        <ele>231.870095</ele>
        <time>2020-07-10T14:58:31.278Z</time>
      </trkpt>
      <trkpt lat="48.571002" lon="16.615889">
        <ele>231.893157</ele>
        <time>2020-07-10T14:58:33.277Z</time>
      </trkpt>
      <trkpt lat="48.570976" lon="16.615741">
        <ele>231.917421</ele>
        <time>2020-07-10T14:58:35.284Z</time>
      </trkpt>
      <trkpt lat="48.570945" lon="16.615592">
        <ele>231.942170</ele>
        <time>2020-07-10T14:58:37.293Z</time>
      </trkpt>
      <trkpt lat="48.570918" lon="16.615449">
        <ele>231.965733</ele>
        <time>2020-07-10T14:58:39.269Z</time>
      </trkpt>
      <trkpt lat="48.570889" lon="16.615311">
        <ele>231.988676</ele>
        <time>2020-07-10T14:58:41.284Z</time>
      </trkpt>
      <trkpt lat="48.570854" lon="16.615170">
        <ele>232.012538</ele>
        <time>2020-07-10T14:58:43.253Z</time>
      </trkpt>
      <trkpt lat="48.570827" lon="16.615036">
        <ele>232.034734</ele>
        <time>2020-07-10T14:58:45.308Z</time>
      </trkpt>
      <trkpt lat="48.570799" lon="16.614902">
        <ele>232.057000</ele>
        <time>2020-07-10T14:58:47.296Z</time>
      </trkpt>
      <trkpt lat="48.570770" lon="16.614762">
        <ele>232.080245</ele>
        <time>2020-07-10T14:58:49.308Z</time>
      </trkpt>
      <trkpt lat="48.570742" lon="16.614616">
        <ele>232.104331</ele>
        <time>2020-07-10T14:58:51.295Z</time>
      </trkpt>
      <trkpt lat="48.570710" lon="16.614465">
        <ele>232.129455</ele>
        <time>2020-07-10T14:58:53.292Z</time>
      </trkpt>
      <trkpt lat="48.570665" lon="16.614298">
        <ele>232.158027</ele>
        <time>2020-07-10T14:58:55.297Z</time>
      </trkpt>
      <trkpt lat="48.570615" lon="16.614141">
        <ele>232.185636</ele>
        <time>2020-07-10T14:58:57.277Z</time>
      </trkpt>
      <trkpt lat="48.570566" lon="16.613998">
        <ele>232.203843</ele>
        <time>2020-07-10T14:58:59.263Z</time>
      </trkpt>
      <trkpt lat="48.570515" lon="16.613850">
        <ele>232.217641</ele>
        <time>2020-07-10T14:59:01.285Z</time>
      </trkpt>
      <trkpt lat="48.570461" lon="16.613696">
        <ele>232.232053</ele>
        <time>2020-07-10T14:59:03.308Z</time>
      </trkpt>
      <trkpt lat="48.570411" lon="16.613547">
        <ele>232.245867</ele>
        <time>2020-07-10T14:59:05.282Z</time>
      </trkpt>
      <trkpt lat="48.570360" lon="16.613404">
        <ele>232.259300</ele>
        <time>2020-07-10T14:59:07.288Z</time>
      </trkpt>
      <trkpt lat="48.570299" lon="16.613249">
        <ele>232.274213</ele>
        <time>2020-07-10T14:59:09.298Z</time>
      </trkpt>
      <trkpt lat="48.570239" lon="16.613102">
        <ele>232.288495</ele>
        <time>2020-07-10T14:59:11.282Z</time>
      </trkpt>
      <trkpt lat="48.570177" lon="16.612968">
        <ele>232.302015</ele>
        <time>2020-07-10T14:59:13.276Z</time>
      </trkpt>
      <trkpt lat="48.570110" lon="16.612833">
        <ele>232.315970</ele>
        <time>2020-07-10T14:59:15.289Z</time>
      </trkpt>
      <trkpt lat="48.570041" lon="16.612696">
        <ele>232.330206</ele>
        <time>2020-07-10T14:59:17.266Z</time>
      </trkpt>
      <trkpt lat="48.569975" lon="16.612549">
        <ele>232.344896</ele>
        <time>2020-07-10T14:59:19.266Z</time>
      </trkpt>
      <trkpt lat="48.569913" lon="16.612414">
        <ele>232.358485</ele>
        <time>2020-07-10T14:59:21.279Z</time>
      </trkpt>
      <trkpt lat="48.569850" lon="16.612279">
        <ele>232.372145</ele>
        <time>2020-07-10T14:59:23.268Z</time>
      </trkpt>
      <trkpt lat="48.569784" lon="16.612149">
        <ele>232.385694</ele>
        <time>2020-07-10T14:59:25.280Z</time>
      </trkpt>
      <trkpt lat="48.569710" lon="16.612025">
        <ele>232.399502</ele>
        <time>2020-07-10T14:59:27.286Z</time>
      </trkpt>
      <trkpt lat="48.569635" lon="16.611901">
        <ele>232.413394</ele>
        <time>2020-07-10T14:59:29.295Z</time>
      </trkpt>
      <trkpt lat="48.569556" lon="16.611777">
        <ele>232.412136</ele>
        <time>2020-07-10T14:59:31.295Z</time>
      </trkpt>
      <trkpt lat="48.569473" lon="16.611662">
        <ele>232.395036</ele>
        <time>2020-07-10T14:59:33.278Z</time>
      </trkpt>
      <trkpt lat="48.569387" lon="16.611535">
        <ele>232.376777</ele>
        <time>2020-07-10T14:59:35.317Z</time>
      </trkpt>
      <trkpt lat="48.569305" lon="16.611427">
        <ele>232.360259</ele>
        <time>2020-07-10T14:59:37.289Z</time>
      </trkpt>
      <trkpt lat="48.569221" lon="16.611321">
        <ele>232.343641</ele>
        <time>2020-07-10T14:59:39.294Z</time>
      </trkpt>
      <trkpt lat="48.569137" lon="16.611214">
        <ele>232.326958</ele>
        <time>2020-07-10T14:59:41.288Z</time>
      </trkpt>
      <trkpt lat="48.569059" lon="16.611101">
        <ele>232.310549</ele>
        <time>2020-07-10T14:59:43.283Z</time>
      </trkpt>
      <trkpt lat="48.568977" lon="16.610981">
        <ele>232.293215</ele>
        <time>2020-07-10T14:59:45.315Z</time>
      </trkpt>
      <trkpt lat="48.568898" lon="16.610880">
        <ele>232.277501</ele>
        <time>2020-07-10T14:59:47.309Z</time>
      </trkpt>
      <trkpt lat="48.568819" lon="16.610780">
        <ele>232.261852</ele>
        <time>2020-07-10T14:59:49.302Z</time>
      </trkpt>
      <trkpt lat="48.568738" lon="16.610666">
        <ele>232.245044</ele>
        <time>2020-07-10T14:59:51.280Z</time>
      </trkpt>
      <trkpt lat="48.568662" lon="16.610567">
        <ele>232.229807</ele>
        <time>2020-07-10T14:59:53.268Z</time>
      </trkpt>
      <trkpt lat="48.568578" lon="16.610474">
        <ele>232.213994</ele>
        <time>2020-07-10T14:59:55.285Z</time>
      </trkpt>
      <trkpt lat="48.568494" lon="16.610371">
        <ele>232.197567</ele>
        <time>2020-07-10T14:59:57.260Z</time>
      </trkpt>
      <trkpt lat="48.568412" lon="16.610268">
        <ele>232.181375</ele>
        <time>2020-07-10T14:59:59.279Z</time>
      </trkpt>
      <trkpt lat="48.568333" lon="16.610167">
        <ele>232.165661</ele>
        <time>2020-07-10T15:00:01.273Z</time>
      </trkpt>
      <trkpt lat="48.568257" lon="16.610065">
        <ele>232.150225</ele>
        <time>2020-07-10T15:00:03.298Z</time>
      </trkpt>
      <trkpt lat="48.568181" lon="16.609965">
        <ele>232.146388</ele>
        <time>2020-07-10T15:00:05.276Z</time>
      </trkpt>
      <trkpt lat="48.568103" lon="16.609868">
        <ele>232.145035</ele>
        <time>2020-07-10T15:00:07.256Z</time>
      </trkpt>
      <trkpt lat="48.568028" lon="16.609770">
        <ele>232.143707</ele>
        <time>2020-07-10T15:00:09.300Z</time>
      </trkpt>
      <trkpt lat="48.567955" lon="16.609676">
        <ele>232.142422</ele>
        <time>2020-07-10T15:00:11.258Z</time>
      </trkpt>
      <trkpt lat="48.567873" lon="16.609567">
        <ele>232.140959</ele>
        <time>2020-07-10T15:00:13.275Z</time>
      </trkpt>
      <trkpt lat="48.567796" lon="16.609474">
        <ele>232.139638</ele>
        <time>2020-07-10T15:00:15.302Z</time>
      </trkpt>
      <trkpt lat="48.567719" lon="16.609381">
        <ele>232.138318</ele>
        <time>2020-07-10T15:00:17.262Z</time>
      </trkpt>
      <trkpt lat="48.567642" lon="16.609288">
        <ele>232.136998</ele>
        <time>2020-07-10T15:00:19.262Z</time>
      </trkpt>
      <trkpt lat="48.567562" lon="16.609179">
        <ele>232.135555</ele>
        <time>2020-07-10T15:00:21.268Z</time>
      </trkpt>
      <trkpt lat="48.567481" lon="16.609071">
        <ele>232.134108</ele>
        <time>2020-07-10T15:00:23.277Z</time>
      </trkpt>
      <trkpt lat="48.567403" lon="16.608965">
        <ele>232.132702</ele>
        <time>2020-07-10T15:00:25.265Z</time>
      </trkpt>
      <trkpt lat="48.567323" lon="16.608858">
        <ele>232.131271</ele>
        <time>2020-07-10T15:00:27.281Z</time>
      </trkpt>
      <trkpt lat="48.567244" lon="16.608760">
        <ele>232.129902</ele>
        <time>2020-07-10T15:00:29.297Z</time>
      </trkpt>
      <trkpt lat="48.567163" lon="16.608659">
        <ele>232.128495</ele>
        <time>2020-07-10T15:00:31.268Z</time>
      </trkpt>
      <trkpt lat="48.567088" lon="16.608538">
        <ele>232.127026</ele>
        <time>2020-07-10T15:00:33.293Z</time>
      </trkpt>
      <trkpt lat="48.567102" lon="16.608377">
        <ele>232.125586</ele>
        <time>2020-07-10T15:00:35.304Z</time>
      </trkpt>
      <trkpt lat="48.567165" lon="16.608241">
        <ele>232.124115</ele>
        <time>2020-07-10T15:00:38.265Z</time>
      </trkpt>
      <trkpt lat="48.567208" lon="16.608106">
        <ele>232.148358</ele>
        <time>2020-07-10T15:00:41.282Z</time>
      </trkpt>
      <trkpt lat="48.567114" lon="16.608030">
        <ele>232.206163</ele>
        <time>2020-07-10T15:00:43.276Z</time>
      </trkpt>
      <trkpt lat="48.566991" lon="16.607922">
        <ele>232.283297</ele>
        <time>2020-07-10T15:00:45.276Z</time>
      </trkpt>
      <trkpt lat="48.566878" lon="16.607775">
        <ele>232.364143</ele>
        <time>2020-07-10T15:00:47.267Z</time>
      </trkpt>
      <trkpt lat="48.566778" lon="16.607636">
        <ele>232.437815</ele>
        <time>2020-07-10T15:00:49.290Z</time>
      </trkpt>
      <trkpt lat="48.566688" lon="16.607510">
        <ele>232.504339</ele>
        <time>2020-07-10T15:00:51.292Z</time>
      </trkpt>
      <trkpt lat="48.566604" lon="16.607383">
        <ele>232.568767</ele>
        <time>2020-07-10T15:00:53.265Z</time>
      </trkpt>
      <trkpt lat="48.566530" lon="16.607253">
        <ele>232.630296</ele>
        <time>2020-07-10T15:00:55.278Z</time>
      </trkpt>
      <trkpt lat="48.566464" lon="16.607122">
        <ele>232.689373</ele>
        <time>2020-07-10T15:00:57.295Z</time>
      </trkpt>
      <trkpt lat="48.566397" lon="16.606991">
        <ele>232.748781</ele>
        <time>2020-07-10T15:01:00.258Z</time>
      </trkpt>
      <trkpt lat="48.566318" lon="16.606869">
        <ele>232.810027</ele>
        <time>2020-07-10T15:01:03.290Z</time>
      </trkpt>
      <trkpt lat="48.566222" lon="16.606734">
        <ele>232.881133</ele>
        <time>2020-07-10T15:01:06.280Z</time>
      </trkpt>
      <trkpt lat="48.566158" lon="16.606623">
        <ele>232.933958</ele>
        <time>2020-07-10T15:01:08.268Z</time>
      </trkpt>
      <trkpt lat="48.566084" lon="16.606486">
        <ele>232.997413</ele>
        <time>2020-07-10T15:01:10.303Z</time>
      </trkpt>
      <trkpt lat="48.566026" lon="16.606349">
        <ele>233.055770</ele>
        <time>2020-07-10T15:01:12.293Z</time>
      </trkpt>
      <trkpt lat="48.565967" lon="16.606193">
        <ele>233.112679</ele>
        <time>2020-07-10T15:01:14.258Z</time>
      </trkpt>
      <trkpt lat="48.565913" lon="16.606047">
        <ele>233.151660</ele>
        <time>2020-07-10T15:01:16.283Z</time>
      </trkpt>
      <trkpt lat="48.565862" lon="16.605891">
        <ele>233.192213</ele>
        <time>2020-07-10T15:01:18.286Z</time>
      </trkpt>
      <trkpt lat="48.565809" lon="16.605718">
        <ele>233.236644</ele>
        <time>2020-07-10T15:01:20.313Z</time>
      </trkpt>
      <trkpt lat="48.565767" lon="16.605560">
        <ele>233.276327</ele>
        <time>2020-07-10T15:01:22.293Z</time>
      </trkpt>
      <trkpt lat="48.565737" lon="16.605406">
        <ele>233.313742</ele>
        <time>2020-07-10T15:01:24.316Z</time>
      </trkpt>
      <trkpt lat="48.565707" lon="16.605254">
        <ele>233.350709</ele>
        <time>2020-07-10T15:01:26.260Z</time>
      </trkpt>
      <trkpt lat="48.565676" lon="16.605095">
        <ele>233.389341</ele>
        <time>2020-07-10T15:01:28.289Z</time>
      </trkpt>
      <trkpt lat="48.565639" lon="16.604930">
        <ele>233.429944</ele>
        <time>2020-07-10T15:01:30.282Z</time>
      </trkpt>
      <trkpt lat="48.565604" lon="16.604781">
        <ele>233.466793</ele>
        <time>2020-07-10T15:01:32.259Z</time>
      </trkpt>
      <trkpt lat="48.565568" lon="16.604627">
        <ele>233.504859</ele>
        <time>2020-07-10T15:01:34.288Z</time>
      </trkpt>
      <trkpt lat="48.565533" lon="16.604463">
        <ele>233.545020</ele>
        <time>2020-07-10T15:01:36.277Z</time>
      </trkpt>
      <trkpt lat="48.565504" lon="16.604303">
        <ele>233.583683</ele>
        <time>2020-07-10T15:01:38.269Z</time>
      </trkpt>
      <trkpt lat="48.565477" lon="16.604142">
        <ele>233.622393</ele>
        <time>2020-07-10T15:01:40.281Z</time>
      </trkpt>
      <trkpt lat="48.565445" lon="16.603979">
        <ele>233.662018</ele>
        <time>2020-07-10T15:01:42.263Z</time>
      </trkpt>
      <trkpt lat="48.565410" lon="16.603815">
        <ele>233.702179</ele>
        <time>2020-07-10T15:01:44.278Z</time>
      </trkpt>
      <trkpt lat="48.565375" lon="16.603654">
        <ele>233.749936</ele>
        <time>2020-07-10T15:01:46.293Z</time>
      </trkpt>
      <trkpt lat="48.565343" lon="16.603504">
        <ele>233.818419</ele>
        <time>2020-07-10T15:01:48.272Z</time>
      </trkpt>
      <trkpt lat="48.565313" lon="16.603360">
        <ele>233.884019</ele>
        <time>2020-07-10T15:01:50.272Z</time>
      </trkpt>
      <trkpt lat="48.565283" lon="16.603215">
        <ele>233.950034</ele>
        <time>2020-07-10T15:01:52.295Z</time>
      </trkpt>
      <trkpt lat="48.565249" lon="16.603063">
        <ele>234.019755</ele>
        <time>2020-07-10T15:01:54.290Z</time>
      </trkpt>
      <trkpt lat="48.565215" lon="16.602897">
        <ele>234.095264</ele>
        <time>2020-07-10T15:01:56.254Z</time>
      </trkpt>
      <trkpt lat="48.565182" lon="16.602734">
        <ele>234.169333</ele>
        <time>2020-07-10T15:01:58.282Z</time>
      </trkpt>
      <trkpt lat="48.565147" lon="16.602579">
        <ele>234.240500</ele>
        <time>2020-07-10T15:02:00.264Z</time>
      </trkpt>
      <trkpt lat="48.565109" lon="16.602413">
        <ele>234.316826</ele>
        <time>2020-07-10T15:02:02.270Z</time>
      </trkpt>
      <trkpt lat="48.565069" lon="16.602265">
        <ele>234.386294</ele>
        <time>2020-07-10T15:02:04.275Z</time>
      </trkpt>
      <trkpt lat="48.565029" lon="16.602108">
        <ele>234.459398</ele>
        <time>2020-07-10T15:02:06.263Z</time>
      </trkpt>
      <trkpt lat="48.564988" lon="16.601949">
        <ele>234.533549</ele>
        <time>2020-07-10T15:02:08.255Z</time>
      </trkpt>
      <trkpt lat="48.564959" lon="16.601782">
        <ele>234.608574</ele>
        <time>2020-07-10T15:02:10.280Z</time>
      </trkpt>
      <trkpt lat="48.564929" lon="16.601617">
        <ele>234.682930</ele>
        <time>2020-07-10T15:02:12.283Z</time>
      </trkpt>
      <trkpt lat="48.564897" lon="16.601456">
        <ele>234.755977</ele>
        <time>2020-07-10T15:02:14.309Z</time>
      </trkpt>
      <trkpt lat="48.564862" lon="16.601297">
        <ele>234.828791</ele>
        <time>2020-07-10T15:02:16.282Z</time>
      </trkpt>
      <trkpt lat="48.564826" lon="16.601142">
        <ele>234.900172</ele>
        <time>2020-07-10T15:02:18.258Z</time>
      </trkpt>
      <trkpt lat="48.564786" lon="16.600978">
        <ele>234.960264</ele>
        <time>2020-07-10T15:02:20.266Z</time>
      </trkpt>
      <trkpt lat="48.564746" lon="16.600807">
        <ele>235.019225</ele>
        <time>2020-07-10T15:02:22.282Z</time>
      </trkpt>
      <trkpt lat="48.564711" lon="16.600631">
        <ele>235.078968</ele>
        <time>2020-07-10T15:02:24.312Z</time>
      </trkpt>
      <trkpt lat="48.564676" lon="16.600464">
        <ele>235.135916</ele>
        <time>2020-07-10T15:02:26.281Z</time>
      </trkpt>
      <trkpt lat="48.564642" lon="16.600304">
        <ele>235.190546</ele>
        <time>2020-07-10T15:02:28.293Z</time>
      </trkpt>
      <trkpt lat="48.564603" lon="16.600141">
        <ele>235.246892</ele>
        <time>2020-07-10T15:02:30.268Z</time>
      </trkpt>
      <trkpt lat="48.564561" lon="16.599980">
        <ele>235.303151</ele>
        <time>2020-07-10T15:02:32.305Z</time>
      </trkpt>
      <trkpt lat="48.564520" lon="16.599823">
        <ele>235.358021</ele>
        <time>2020-07-10T15:02:34.286Z</time>
      </trkpt>
      <trkpt lat="48.564481" lon="16.599669">
        <ele>235.411625</ele>
        <time>2020-07-10T15:02:36.275Z</time>
      </trkpt>
      <trkpt lat="48.564446" lon="16.599508">
        <ele>235.466716</ele>
        <time>2020-07-10T15:02:38.262Z</time>
      </trkpt>
      <trkpt lat="48.564411" lon="16.599349">
        <ele>235.521190</ele>
        <time>2020-07-10T15:02:40.293Z</time>
      </trkpt>
      <trkpt lat="48.564378" lon="16.599197">
        <ele>235.573195</ele>
        <time>2020-07-10T15:02:42.277Z</time>
      </trkpt>
      <trkpt lat="48.564347" lon="16.599043">
        <ele>235.625524</ele>
        <time>2020-07-10T15:02:44.291Z</time>
      </trkpt>
      <trkpt lat="48.564317" lon="16.598887">
        <ele>235.678336</ele>
        <time>2020-07-10T15:02:46.272Z</time>
      </trkpt>
      <trkpt lat="48.564278" lon="16.598732">
        <ele>235.732245</ele>
        <time>2020-07-10T15:02:48.263Z</time>
      </trkpt>
      <trkpt lat="48.564251" lon="16.598575">
        <ele>235.784979</ele>
        <time>2020-07-10T15:02:50.277Z</time>
      </trkpt>
      <trkpt lat="48.564222" lon="16.598416">
        <ele>235.799357</ele>
        <time>2020-07-10T15:02:52.277Z</time>
      </trkpt>
      <trkpt lat="48.564189" lon="16.598250">
        <ele>235.802900</ele>
        <time>2020-07-10T15:02:54.295Z</time>
      </trkpt>
      <trkpt lat="48.564157" lon="16.598080">
        <ele>235.806512</ele>
        <time>2020-07-10T15:02:56.262Z</time>
      </trkpt>
      <trkpt lat="48.564124" lon="16.597897">
        <ele>235.810388</ele>
        <time>2020-07-10T15:02:58.264Z</time>
      </trkpt>
      <trkpt lat="48.564095" lon="16.597728">
        <ele>235.813956</ele>
        <time>2020-07-10T15:03:00.259Z</time>
      </trkpt>
      <trkpt lat="48.564067" lon="16.597558">
        <ele>235.817537</ele>
        <time>2020-07-10T15:03:02.285Z</time>
      </trkpt>
      <trkpt lat="48.564041" lon="16.597383">
        <ele>235.821202</ele>
        <time>2020-07-10T15:03:04.262Z</time>
      </trkpt>
      <trkpt lat="48.564013" lon="16.597201">
        <ele>235.825021</ele>
        <time>2020-07-10T15:03:06.290Z</time>
      </trkpt>
      <trkpt lat="48.563973" lon="16.597021">
        <ele>235.828902</ele>
        <time>2020-07-10T15:03:08.273Z</time>
      </trkpt>
      <trkpt lat="48.563938" lon="16.596863">
        <ele>235.832307</ele>
        <time>2020-07-10T15:03:10.322Z</time>
      </trkpt>
      <trkpt lat="48.563901" lon="16.596719">
        <ele>235.835464</ele>
        <time>2020-07-10T15:03:13.263Z</time>
      </trkpt>
      <trkpt lat="48.563868" lon="16.596588">
        <ele>235.838329</ele>
        <time>2020-07-10T15:03:16.270Z</time>
      </trkpt>
      <trkpt lat="48.563839" lon="16.596405">
        <ele>235.842175</ele>
        <time>2020-07-10T15:03:19.258Z</time>
      </trkpt>
      <trkpt lat="48.563820" lon="16.596253">
        <ele>235.845336</ele>
        <time>2020-07-10T15:03:21.276Z</time>
      </trkpt>
      <trkpt lat="48.563796" lon="16.596073">
        <ele>235.849089</ele>
        <time>2020-07-10T15:03:23.271Z</time>
      </trkpt>
      <trkpt lat="48.563765" lon="16.595876">
        <ele>235.859648</ele>
        <time>2020-07-10T15:03:25.285Z</time>
      </trkpt>
      <trkpt lat="48.563725" lon="16.595686">
        <ele>235.891105</ele>
        <time>2020-07-10T15:03:27.276Z</time>
      </trkpt>
      <trkpt lat="48.563689" lon="16.595505">
        <ele>235.920923</ele>
        <time>2020-07-10T15:03:29.293Z</time>
      </trkpt>
      <trkpt lat="48.563658" lon="16.595326">
        <ele>235.950115</ele>
        <time>2020-07-10T15:03:31.307Z</time>
      </trkpt>
      <trkpt lat="48.563628" lon="16.595146">
        <ele>235.979400</ele>
        <time>2020-07-10T15:03:33.289Z</time>
      </trkpt>
      <trkpt lat="48.563596" lon="16.594963">
        <ele>236.009262</ele>
        <time>2020-07-10T15:03:35.277Z</time>
      </trkpt>
      <trkpt lat="48.563562" lon="16.594783">
        <ele>236.038795</ele>
        <time>2020-07-10T15:03:37.266Z</time>
      </trkpt>
      <trkpt lat="48.563534" lon="16.594605">
        <ele>236.067661</ele>
        <time>2020-07-10T15:03:39.277Z</time>
      </trkpt>
      <trkpt lat="48.563506" lon="16.594435">
        <ele>236.095300</ele>
        <time>2020-07-10T15:03:41.311Z</time>
      </trkpt>
      <trkpt lat="48.563474" lon="16.594263">
        <ele>236.123488</ele>
        <time>2020-07-10T15:03:43.305Z</time>
      </trkpt>
      <trkpt lat="48.563444" lon="16.594099">
        <ele>236.150332</ele>
        <time>2020-07-10T15:03:45.267Z</time>
      </trkpt>
      <trkpt lat="48.563415" lon="16.593930">
        <ele>236.177877</ele>
        <time>2020-07-10T15:03:47.292Z</time>
      </trkpt>
      <trkpt lat="48.563385" lon="16.593776">
        <ele>236.203205</ele>
        <time>2020-07-10T15:03:49.298Z</time>
      </trkpt>
      <trkpt lat="48.563353" lon="16.593625">
        <ele>236.228220</ele>
        <time>2020-07-10T15:03:51.282Z</time>
      </trkpt>
      <trkpt lat="48.563314" lon="16.593459">
        <ele>236.256011</ele>
        <time>2020-07-10T15:03:53.279Z</time>
      </trkpt>
      <trkpt lat="48.563277" lon="16.593302">
        <ele>236.284053</ele>
        <time>2020-07-10T15:03:55.307Z</time>
      </trkpt>
      <trkpt lat="48.563239" lon="16.593138">
        <ele>236.350167</ele>
        <time>2020-07-10T15:03:57.258Z</time>
      </trkpt>
      <trkpt lat="48.563204" lon="16.592975">
        <ele>236.415369</ele>
        <time>2020-07-10T15:03:59.287Z</time>
      </trkpt>
      <trkpt lat="48.563170" lon="16.592815">
        <ele>236.479309</ele>
        <time>2020-07-10T15:04:01.266Z</time>
      </trkpt>
      <trkpt lat="48.563135" lon="16.592659">
        <ele>236.541983</ele>
        <time>2020-07-10T15:04:03.281Z</time>
      </trkpt>
      <trkpt lat="48.563096" lon="16.592505">
        <ele>236.604722</ele>
        <time>2020-07-10T15:04:05.266Z</time>
      </trkpt>
      <trkpt lat="48.563065" lon="16.592348">
        <ele>236.667061</ele>
        <time>2020-07-10T15:04:07.273Z</time>
      </trkpt>
      <trkpt lat="48.563029" lon="16.592197">
        <ele>236.728129</ele>
        <time>2020-07-10T15:04:09.317Z</time>
      </trkpt>
      <trkpt lat="48.562991" lon="16.592042">
        <ele>236.791022</ele>
        <time>2020-07-10T15:04:11.288Z</time>
      </trkpt>
      <trkpt lat="48.562957" lon="16.591884">
        <ele>236.854237</ele>
        <time>2020-07-10T15:04:13.260Z</time>
      </trkpt>
      <trkpt lat="48.562923" lon="16.591733">
        <ele>236.914926</ele>
        <time>2020-07-10T15:04:15.266Z</time>
      </trkpt>
      <trkpt lat="48.562888" lon="16.591575">
        <ele>236.978321</ele>
        <time>2020-07-10T15:04:17.265Z</time>
      </trkpt>
      <trkpt lat="48.562854" lon="16.591422">
        <ele>237.039731</ele>
        <time>2020-07-10T15:04:19.273Z</time>
      </trkpt>
      <trkpt lat="48.562820" lon="16.591263">
        <ele>237.103308</ele>
        <time>2020-07-10T15:04:21.280Z</time>
      </trkpt>
      <trkpt lat="48.562789" lon="16.591107">
        <ele>237.165283</ele>
        <time>2020-07-10T15:04:23.276Z</time>
      </trkpt>
      <trkpt lat="48.562758" lon="16.590956">
        <ele>237.225438</ele>
        <time>2020-07-10T15:04:25.288Z</time>
      </trkpt>
      <trkpt lat="48.562721" lon="16.590802">
        <ele>237.287776</ele>
        <time>2020-07-10T15:04:27.287Z</time>
      </trkpt>
      <trkpt lat="48.562683" lon="16.590647">
        <ele>237.313016</ele>
        <time>2020-07-10T15:04:29.263Z</time>
      </trkpt>
      <trkpt lat="48.562651" lon="16.590496">
        <ele>237.309358</ele>
        <time>2020-07-10T15:04:31.288Z</time>
      </trkpt>
      <trkpt lat="48.562618" lon="16.590337">
        <ele>237.305515</ele>
        <time>2020-07-10T15:04:33.300Z</time>
      </trkpt>
      <trkpt lat="48.562588" lon="16.590178">
        <ele>237.301701</ele>
        <time>2020-07-10T15:04:35.308Z</time>
      </trkpt>
      <trkpt lat="48.562562" lon="16.590029">
        <ele>237.298147</ele>
        <time>2020-07-10T15:04:37.255Z</time>
      </trkpt>
      <trkpt lat="48.562534" lon="16.589878">
        <ele>237.294530</ele>
        <time>2020-07-10T15:04:39.280Z</time>
      </trkpt>
      <trkpt lat="48.562503" lon="16.589730">
        <ele>237.290949</ele>
        <time>2020-07-10T15:04:41.278Z</time>
      </trkpt>
      <trkpt lat="48.562470" lon="16.589583">
        <ele>237.287369</ele>
        <time>2020-07-10T15:04:43.269Z</time>
      </trkpt>
      <trkpt lat="48.562433" lon="16.589428">
        <ele>237.283568</ele>
        <time>2020-07-10T15:04:45.285Z</time>
      </trkpt>
      <trkpt lat="48.562397" lon="16.589275">
        <ele>237.279823</ele>
        <time>2020-07-10T15:04:47.263Z</time>
      </trkpt>
      <trkpt lat="48.562359" lon="16.589106">
        <ele>237.275706</ele>
        <time>2020-07-10T15:04:49.261Z</time>
      </trkpt>
      <trkpt lat="48.562322" lon="16.588950">
        <ele>237.271883</ele>
        <time>2020-07-10T15:04:51.307Z</time>
      </trkpt>
      <trkpt lat="48.562287" lon="16.588799">
        <ele>237.268193</ele>
        <time>2020-07-10T15:04:53.277Z</time>
      </trkpt>
      <trkpt lat="48.562252" lon="16.588651">
        <ele>237.264568</ele>
        <time>2020-07-10T15:04:55.276Z</time>
      </trkpt>
      <trkpt lat="48.562214" lon="16.588496">
        <ele>237.260755</ele>
        <time>2020-07-10T15:04:57.256Z</time>
      </trkpt>
      <trkpt lat="48.562173" lon="16.588348">
        <ele>237.257054</ele>
        <time>2020-07-10T15:04:59.255Z</time>
      </trkpt>
      <trkpt lat="48.562136" lon="16.588202">
        <ele>237.253448</ele>
        <time>2020-07-10T15:05:01.258Z</time>
      </trkpt>
      <trkpt lat="48.562104" lon="16.588058">
        <ele>237.245209</ele>
        <time>2020-07-10T15:05:03.258Z</time>
      </trkpt>
      <trkpt lat="48.562073" lon="16.587903">
        <ele>237.234497</ele>
        <time>2020-07-10T15:05:05.270Z</time>
      </trkpt>
      <trkpt lat="48.562043" lon="16.587751">
        <ele>237.224005</ele>
        <time>2020-07-10T15:05:07.272Z</time>
      </trkpt>
      <trkpt lat="48.562014" lon="16.587604">
        <ele>237.213858</ele>
        <time>2020-07-10T15:05:09.296Z</time>
      </trkpt>
      <trkpt lat="48.561984" lon="16.587458">
        <ele>237.203745</ele>
        <time>2020-07-10T15:05:11.254Z</time>
      </trkpt>
      <trkpt lat="48.561954" lon="16.587308">
        <ele>237.193379</ele>
        <time>2020-07-10T15:05:13.269Z</time>
      </trkpt>
      <trkpt lat="48.561918" lon="16.587166">
        <ele>237.183319</ele>
        <time>2020-07-10T15:05:15.290Z</time>
      </trkpt>
      <trkpt lat="48.561863" lon="16.587035">
        <ele>237.173057</ele>
        <time>2020-07-10T15:05:17.254Z</time>
      </trkpt>
      <trkpt lat="48.561813" lon="16.586870">
        <ele>237.161052</ele>
        <time>2020-07-10T15:05:19.259Z</time>
      </trkpt>
      <trkpt lat="48.561769" lon="16.586663">
        <ele>237.146670</ele>
        <time>2020-07-10T15:05:21.265Z</time>
      </trkpt>
      <trkpt lat="48.561725" lon="16.586455">
        <ele>237.132224</ele>
        <time>2020-07-10T15:05:23.274Z</time>
      </trkpt>
      <trkpt lat="48.561688" lon="16.586272">
        <ele>237.119566</ele>
        <time>2020-07-10T15:05:25.294Z</time>
      </trkpt>
      <trkpt lat="48.561664" lon="16.586110">
        <ele>237.108584</ele>
        <time>2020-07-10T15:05:27.283Z</time>
      </trkpt>
      <trkpt lat="48.561642" lon="16.585978">
        <ele>237.099579</ele>
        <time>2020-07-10T15:05:29.289Z</time>
      </trkpt>
      <trkpt lat="48.561637" lon="16.585798">
        <ele>237.087661</ele>
        <time>2020-07-10T15:05:32.266Z</time>
      </trkpt>
      <trkpt lat="48.561602" lon="16.585617">
        <ele>237.075187</ele>
        <time>2020-07-10T15:05:35.290Z</time>
      </trkpt>
      <trkpt lat="48.561574" lon="16.585474">
        <ele>237.130738</ele>
        <time>2020-07-10T15:05:37.267Z</time>
      </trkpt>
      <trkpt lat="48.561543" lon="16.585323">
        <ele>237.213087</ele>
        <time>2020-07-10T15:05:39.257Z</time>
      </trkpt>
      <trkpt lat="48.561514" lon="16.585176">
        <ele>237.292984</ele>
        <time>2020-07-10T15:05:41.273Z</time>
      </trkpt>
      <trkpt lat="48.561487" lon="16.585035">
        <ele>237.369438</ele>
        <time>2020-07-10T15:05:43.276Z</time>
      </trkpt>
      <trkpt lat="48.561456" lon="16.584891">
        <ele>237.448312</ele>
        <time>2020-07-10T15:05:45.254Z</time>
      </trkpt>
      <trkpt lat="48.561424" lon="16.584744">
        <ele>237.528915</ele>
        <time>2020-07-10T15:05:47.271Z</time>
      </trkpt>
      <trkpt lat="48.561392" lon="16.584602">
        <ele>237.607048</ele>
        <time>2020-07-10T15:05:49.274Z</time>
      </trkpt>
      <trkpt lat="48.561362" lon="16.584460">
        <ele>237.684689</ele>
        <time>2020-07-10T15:05:51.284Z</time>
      </trkpt>
      <trkpt lat="48.561334" lon="16.584308">
        <ele>237.766871</ele>
        <time>2020-07-10T15:05:53.278Z</time>
      </trkpt>
      <trkpt lat="48.561310" lon="16.584163">
        <ele>237.844723</ele>
        <time>2020-07-10T15:05:55.294Z</time>
      </trkpt>
      <trkpt lat="48.561290" lon="16.584015">
        <ele>237.923402</ele>
        <time>2020-07-10T15:05:57.278Z</time>
      </trkpt>
      <trkpt lat="48.561275" lon="16.583860">
        <ele>238.004996</ele>
        <time>2020-07-10T15:05:59.255Z</time>
      </trkpt>
      <trkpt lat="48.561263" lon="16.583704">
        <ele>238.086798</ele>
        <time>2020-07-10T15:06:01.276Z</time>
      </trkpt>
      <trkpt lat="48.561262" lon="16.583554">
        <ele>238.164933</ele>
        <time>2020-07-10T15:06:03.261Z</time>
      </trkpt>
      <trkpt lat="48.561259" lon="16.583410">
        <ele>238.239975</ele>
        <time>2020-07-10T15:06:05.263Z</time>
      </trkpt>
      <trkpt lat="48.561256" lon="16.583265">
        <ele>238.315538</ele>
        <time>2020-07-10T15:06:07.258Z</time>
      </trkpt>
      <trkpt lat="48.561251" lon="16.583125">
        <ele>238.388566</ele>
        <time>2020-07-10T15:06:09.304Z</time>
      </trkpt>
      <trkpt lat="48.561250" lon="16.582974">
        <ele>238.467222</ele>
        <time>2020-07-10T15:06:11.255Z</time>
      </trkpt>
      <trkpt lat="48.561247" lon="16.582819">
        <ele>238.502383</ele>
        <time>2020-07-10T15:06:13.271Z</time>
      </trkpt>
      <trkpt lat="48.561247" lon="16.582673">
        <ele>238.520347</ele>
        <time>2020-07-10T15:06:15.282Z</time>
      </trkpt>
      <trkpt lat="48.561245" lon="16.582524">
        <ele>238.538683</ele>
        <time>2020-07-10T15:06:17.263Z</time>
      </trkpt>
      <trkpt lat="48.561241" lon="16.582371">
        <ele>238.557523</ele>
        <time>2020-07-10T15:06:19.277Z</time>
      </trkpt>
      <trkpt lat="48.561229" lon="16.582221">
        <ele>238.576114</ele>
        <time>2020-07-10T15:06:21.301Z</time>
      </trkpt>
      <trkpt lat="48.561216" lon="16.582077">
        <ele>238.593996</ele>
        <time>2020-07-10T15:06:23.315Z</time>
      </trkpt>
      <trkpt lat="48.561207" lon="16.581927">
        <ele>238.612527</ele>
        <time>2020-07-10T15:06:25.259Z</time>
      </trkpt>
      <trkpt lat="48.561209" lon="16.581782">
        <ele>238.630372</ele>
        <time>2020-07-10T15:06:27.284Z</time>
      </trkpt>
      <trkpt lat="48.561263" lon="16.581649">
        <ele>238.649571</ele>
        <time>2020-07-10T15:06:36.275Z</time>
      </trkpt>
      <trkpt lat="48.561318" lon="16.581508">
        <ele>238.669708</ele>
        <time>2020-07-10T15:06:39.266Z</time>
      </trkpt>
      <trkpt lat="48.561386" lon="16.581333">
        <ele>238.694677</ele>
        <time>2020-07-10T15:06:42.289Z</time>
      </trkpt>
      <trkpt lat="48.561460" lon="16.581231">
        <ele>238.713299</ele>
        <time>2020-07-10T15:06:44.267Z</time>
      </trkpt>
      <trkpt lat="48.561545" lon="16.581141">
        <ele>238.732596</ele>
        <time>2020-07-10T15:06:46.271Z</time>
      </trkpt>
      <trkpt lat="48.561636" lon="16.581067">
        <ele>238.751808</ele>
        <time>2020-07-10T15:06:48.272Z</time>
      </trkpt>
      <trkpt lat="48.561737" lon="16.581019">
        <ele>238.771492</ele>
        <time>2020-07-10T15:06:50.279Z</time>
      </trkpt>
      <trkpt lat="48.561840" lon="16.580983">
        <ele>238.791147</ele>
        <time>2020-07-10T15:06:52.286Z</time>
      </trkpt>
      <trkpt lat="48.561942" lon="16.580944">
        <ele>238.810708</ele>
        <time>2020-07-10T15:06:54.277Z</time>
      </trkpt>
      <trkpt lat="48.562044" lon="16.580904">
        <ele>238.836807</ele>
        <time>2020-07-10T15:06:56.277Z</time>
      </trkpt>
      <trkpt lat="48.562144" lon="16.580853">
        <ele>238.873161</ele>
        <time>2020-07-10T15:06:58.285Z</time>
      </trkpt>
      <trkpt lat="48.562249" lon="16.580809">
        <ele>238.910693</ele>
        <time>2020-07-10T15:07:00.277Z</time>
      </trkpt>
      <trkpt lat="48.562361" lon="16.580772">
        <ele>238.950182</ele>
        <time>2020-07-10T15:07:02.258Z</time>
      </trkpt>
      <trkpt lat="48.562471" lon="16.580730">
        <ele>238.989262</ele>
        <time>2020-07-10T15:07:04.257Z</time>
      </trkpt>
      <trkpt lat="48.562586" lon="16.580698">
        <ele>239.029540</ele>
        <time>2020-07-10T15:07:06.288Z</time>
      </trkpt>
      <trkpt lat="48.562698" lon="16.580652">
        <ele>239.069518</ele>
        <time>2020-07-10T15:07:08.301Z</time>
      </trkpt>
      <trkpt lat="48.562816" lon="16.580611">
        <ele>239.111223</ele>
        <time>2020-07-10T15:07:10.279Z</time>
      </trkpt>
      <trkpt lat="48.562934" lon="16.580563">
        <ele>239.153315</ele>
        <time>2020-07-10T15:07:12.285Z</time>
      </trkpt>
      <trkpt lat="48.563052" lon="16.580520">
        <ele>239.195125</ele>
        <time>2020-07-10T15:07:14.282Z</time>
      </trkpt>
      <trkpt lat="48.563166" lon="16.580458">
        <ele>239.236859</ele>
        <time>2020-07-10T15:07:16.281Z</time>
      </trkpt>
      <trkpt lat="48.563282" lon="16.580414">
        <ele>239.278054</ele>
        <time>2020-07-10T15:07:18.287Z</time>
      </trkpt>
      <trkpt lat="48.563384" lon="16.580372">
        <ele>239.314469</ele>
        <time>2020-07-10T15:07:20.290Z</time>
      </trkpt>
      <trkpt lat="48.563499" lon="16.580325">
        <ele>239.355504</ele>
        <time>2020-07-10T15:07:22.274Z</time>
      </trkpt>
      <trkpt lat="48.563614" lon="16.580285">
        <ele>239.396151</ele>
        <time>2020-07-10T15:07:24.303Z</time>
      </trkpt>
      <trkpt lat="48.563727" lon="16.580243">
        <ele>239.436234</ele>
        <time>2020-07-10T15:07:26.288Z</time>
      </trkpt>
      <trkpt lat="48.563838" lon="16.580196">
        <ele>239.441958</ele>
        <time>2020-07-10T15:07:28.257Z</time>
      </trkpt>
      <trkpt lat="48.563944" lon="16.580153">
        <ele>239.441679</ele>
        <time>2020-07-10T15:07:30.282Z</time>
      </trkpt>
      <trkpt lat="48.564047" lon="16.580114">
        <ele>239.441408</ele>
        <time>2020-07-10T15:07:32.282Z</time>
      </trkpt>
      <trkpt lat="48.564150" lon="16.580078">
        <ele>239.441140</ele>
        <time>2020-07-10T15:07:34.257Z</time>
      </trkpt>
      <trkpt lat="48.564254" lon="16.580043">
        <ele>239.440869</ele>
        <time>2020-07-10T15:07:36.295Z</time>
      </trkpt>
      <trkpt lat="48.564356" lon="16.580004">
        <ele>239.440601</ele>
        <time>2020-07-10T15:07:38.300Z</time>
      </trkpt>
      <trkpt lat="48.564466" lon="16.579940">
        <ele>239.440301</ele>
        <time>2020-07-10T15:07:40.269Z</time>
      </trkpt>
      <trkpt lat="48.564568" lon="16.579839">
        <ele>239.439991</ele>
        <time>2020-07-10T15:07:42.251Z</time>
      </trkpt>
      <trkpt lat="48.564666" lon="16.579736">
        <ele>239.439687</ele>
        <time>2020-07-10T15:07:44.261Z</time>
      </trkpt>
      <trkpt lat="48.564763" lon="16.579639">
        <ele>239.439391</ele>
        <time>2020-07-10T15:07:46.264Z</time>
      </trkpt>
      <trkpt lat="48.564869" lon="16.579551">
        <ele>239.439084</ele>
        <time>2020-07-10T15:07:48.272Z</time>
      </trkpt>
      <trkpt lat="48.564977" lon="16.579457">
        <ele>239.438767</ele>
        <time>2020-07-10T15:07:50.285Z</time>
      </trkpt>
      <trkpt lat="48.565083" lon="16.579365">
        <ele>239.438456</ele>
        <time>2020-07-10T15:07:52.268Z</time>
      </trkpt>
      <trkpt lat="48.565182" lon="16.579263">
        <ele>239.438151</ele>
        <time>2020-07-10T15:07:54.278Z</time>
      </trkpt>
      <trkpt lat="48.565281" lon="16.579162">
        <ele>239.437847</ele>
        <time>2020-07-10T15:07:56.275Z</time>
      </trkpt>
      <trkpt lat="48.565381" lon="16.579068">
        <ele>239.445664</ele>
        <time>2020-07-10T15:07:58.294Z</time>
      </trkpt>
      <trkpt lat="48.565478" lon="16.578972">
        <ele>239.473814</ele>
        <time>2020-07-10T15:08:00.260Z</time>
      </trkpt>
      <trkpt lat="48.565573" lon="16.578882">
        <ele>239.501036</ele>
        <time>2020-07-10T15:08:02.264Z</time>
      </trkpt>
      <trkpt lat="48.565667" lon="16.578801">
        <ele>239.527306</ele>
        <time>2020-07-10T15:08:04.303Z</time>
      </trkpt>
      <trkpt lat="48.565752" lon="16.578718">
        <ele>239.551875</ele>
        <time>2020-07-10T15:08:06.264Z</time>
      </trkpt>
      <trkpt lat="48.565837" lon="16.578593">
        <ele>239.580670</ele>
        <time>2020-07-10T15:08:09.288Z</time>
      </trkpt>
      <trkpt lat="48.565887" lon="16.578459">
        <ele>239.605385</ele>
        <time>2020-07-10T15:08:12.274Z</time>
      </trkpt>
      <trkpt lat="48.565969" lon="16.578343">
        <ele>239.632654</ele>
        <time>2020-07-10T15:08:15.288Z</time>
      </trkpt>
      <trkpt lat="48.566062" lon="16.578204">
        <ele>239.664410</ele>
        <time>2020-07-10T15:08:18.277Z</time>
      </trkpt>
      <trkpt lat="48.566122" lon="16.578098">
        <ele>239.686820</ele>
        <time>2020-07-10T15:08:20.288Z</time>
      </trkpt>
      <trkpt lat="48.566186" lon="16.577997">
        <ele>239.709286</ele>
        <time>2020-07-10T15:08:22.308Z</time>
      </trkpt>
      <trkpt lat="48.566276" lon="16.577851">
        <ele>239.741342</ele>
        <time>2020-07-10T15:08:25.269Z</time>
      </trkpt>
      <trkpt lat="48.566336" lon="16.577749">
        <ele>239.763267</ele>
        <time>2020-07-10T15:08:27.265Z</time>
      </trkpt>
      <trkpt lat="48.566398" lon="16.577632">
        <ele>239.787348</ele>
        <time>2020-07-10T15:08:29.262Z</time>
      </trkpt>
      <trkpt lat="48.566457" lon="16.577500">
        <ele>239.812939</ele>
        <time>2020-07-10T15:08:31.272Z</time>
      </trkpt>
      <trkpt lat="48.566524" lon="16.577381">
        <ele>239.838040</ele>
        <time>2020-07-10T15:08:33.296Z</time>
      </trkpt>
      <trkpt lat="48.566590" lon="16.577267">
        <ele>239.862375</ele>
        <time>2020-07-10T15:08:35.263Z</time>
      </trkpt>
      <trkpt lat="48.566654" lon="16.577159">
        <ele>239.908673</ele>
        <time>2020-07-10T15:08:37.267Z</time>
      </trkpt>
      <trkpt lat="48.566713" lon="16.577036">
        <ele>239.982469</ele>
        <time>2020-07-10T15:08:39.286Z</time>
      </trkpt>
      <trkpt lat="48.566769" lon="16.576910">
        <ele>240.056200</ele>
        <time>2020-07-10T15:08:41.318Z</time>
      </trkpt>
      <trkpt lat="48.566837" lon="16.576797">
        <ele>240.130395</ele>
        <time>2020-07-10T15:08:43.264Z</time>
      </trkpt>
      <trkpt lat="48.566913" lon="16.576687">
        <ele>240.207647</ele>
        <time>2020-07-10T15:08:45.263Z</time>
      </trkpt>
      <trkpt lat="48.566982" lon="16.576592">
        <ele>240.276169</ele>
        <time>2020-07-10T15:08:47.254Z</time>
      </trkpt>
      <trkpt lat="48.567053" lon="16.576496">
        <ele>240.346106</ele>
        <time>2020-07-10T15:08:49.259Z</time>
      </trkpt>
      <trkpt lat="48.567129" lon="16.576395">
        <ele>240.420400</ele>
        <time>2020-07-10T15:08:51.267Z</time>
      </trkpt>
      <trkpt lat="48.567195" lon="16.576292">
        <ele>240.490048</ele>
        <time>2020-07-10T15:08:53.288Z</time>
      </trkpt>
      <trkpt lat="48.567268" lon="16.576212">
        <ele>240.556244</ele>
        <time>2020-07-10T15:08:55.289Z</time>
      </trkpt>
      <trkpt lat="48.567348" lon="16.576112">
        <ele>240.632457</ele>
        <time>2020-07-10T15:08:58.273Z</time>
      </trkpt>
      <trkpt lat="48.567434" lon="16.576012">
        <ele>240.712114</ele>
        <time>2020-07-10T15:09:02.315Z</time>
      </trkpt>
      <trkpt lat="48.567545" lon="16.575932">
        <ele>240.802389</ele>
        <time>2020-07-10T15:09:06.285Z</time>
      </trkpt>
      <trkpt lat="48.567625" lon="16.575867">
        <ele>240.869065</ele>
        <time>2020-07-10T15:09:08.285Z</time>
      </trkpt>
      <trkpt lat="48.567702" lon="16.575790">
        <ele>240.936845</ele>
        <time>2020-07-10T15:09:10.279Z</time>
      </trkpt>
      <trkpt lat="48.567782" lon="16.575720">
        <ele>241.004705</ele>
        <time>2020-07-10T15:09:12.302Z</time>
      </trkpt>
      <trkpt lat="48.567863" lon="16.575646">
        <ele>241.074186</ele>
        <time>2020-07-10T15:09:14.281Z</time>
      </trkpt>
      <trkpt lat="48.567943" lon="16.575557">
        <ele>241.147110</ele>
        <time>2020-07-10T15:09:16.285Z</time>
      </trkpt>
      <trkpt lat="48.568019" lon="16.575471">
        <ele>241.214029</ele>
        <time>2020-07-10T15:09:18.277Z</time>
      </trkpt>
      <trkpt lat="48.568106" lon="16.575345">
        <ele>241.291400</ele>
        <time>2020-07-10T15:09:21.272Z</time>
      </trkpt>
      <trkpt lat="48.568191" lon="16.575222">
        <ele>241.366961</ele>
        <time>2020-07-10T15:09:24.282Z</time>
      </trkpt>
      <trkpt lat="48.568270" lon="16.575065">
        <ele>241.450761</ele>
        <time>2020-07-10T15:09:27.265Z</time>
      </trkpt>
      <trkpt lat="48.568327" lon="16.574949">
        <ele>241.512148</ele>
        <time>2020-07-10T15:09:29.279Z</time>
      </trkpt>
      <trkpt lat="48.568389" lon="16.574838">
        <ele>241.573864</ele>
        <time>2020-07-10T15:09:31.270Z</time>
      </trkpt>
      <trkpt lat="48.568452" lon="16.574722">
        <ele>241.637623</ele>
        <time>2020-07-10T15:09:33.255Z</time>
      </trkpt>
      <trkpt lat="48.568522" lon="16.574594">
        <ele>241.708175</ele>
        <time>2020-07-10T15:09:35.259Z</time>
      </trkpt>
      <trkpt lat="48.568604" lon="16.574475">
        <ele>241.781170</ele>
        <time>2020-07-10T15:09:37.299Z</time>
      </trkpt>
      <trkpt lat="48.568690" lon="16.574367">
        <ele>241.852964</ele>
        <time>2020-07-10T15:09:39.263Z</time>
      </trkpt>
      <trkpt lat="48.568772" lon="16.574271">
        <ele>241.919565</ele>
        <time>2020-07-10T15:09:41.267Z</time>
      </trkpt>
      <trkpt lat="48.568867" lon="16.574205">
        <ele>241.986698</ele>
        <time>2020-07-10T15:09:43.285Z</time>
      </trkpt>
      <trkpt lat="48.568969" lon="16.574139">
        <ele>242.057939</ele>
        <time>2020-07-10T15:09:45.297Z</time>
      </trkpt>
      <trkpt lat="48.569080" lon="16.574090">
        <ele>242.132187</ele>
        <time>2020-07-10T15:09:47.292Z</time>
      </trkpt>
      <trkpt lat="48.569197" lon="16.574044">
        <ele>242.209809</ele>
        <time>2020-07-10T15:09:49.308Z</time>
      </trkpt>
      <trkpt lat="48.569316" lon="16.574007">
        <ele>242.287815</ele>
        <time>2020-07-10T15:09:51.286Z</time>
      </trkpt>
      <trkpt lat="48.569416" lon="16.573960">
        <ele>242.356122</ele>
        <time>2020-07-10T15:09:53.293Z</time>
      </trkpt>
      <trkpt lat="48.569522" lon="16.573921">
        <ele>242.439596</ele>
        <time>2020-07-10T15:09:55.275Z</time>
      </trkpt>
      <trkpt lat="48.569617" lon="16.573878">
        <ele>242.515475</ele>
        <time>2020-07-10T15:09:57.270Z</time>
      </trkpt>
      <trkpt lat="48.569728" lon="16.573861">
        <ele>242.600840</ele>
        <time>2020-07-10T15:10:00.256Z</time>
      </trkpt>
      <trkpt lat="48.569838" lon="16.573849">
        <ele>242.685225</ele>
        <time>2020-07-10T15:10:03.286Z</time>
      </trkpt>
      <trkpt lat="48.569967" lon="16.573801">
        <ele>242.786876</ele>
        <time>2020-07-10T15:10:06.268Z</time>
      </trkpt>
      <trkpt lat="48.570060" lon="16.573786">
        <ele>242.858438</ele>
        <time>2020-07-10T15:10:08.270Z</time>
      </trkpt>
      <trkpt lat="48.570165" lon="16.573772">
        <ele>242.939089</ele>
        <time>2020-07-10T15:10:10.300Z</time>
      </trkpt>
      <trkpt lat="48.570269" lon="16.573763">
        <ele>243.018794</ele>
        <time>2020-07-10T15:10:12.262Z</time>
      </trkpt>
      <trkpt lat="48.570370" lon="16.573751">
        <ele>243.096312</ele>
        <time>2020-07-10T15:10:14.282Z</time>
      </trkpt>
      <trkpt lat="48.570472" lon="16.573736">
        <ele>243.174725</ele>
        <time>2020-07-10T15:10:16.288Z</time>
      </trkpt>
      <trkpt lat="48.570570" lon="16.573727">
        <ele>243.249847</ele>
        <time>2020-07-10T15:10:18.290Z</time>
      </trkpt>
      <trkpt lat="48.570661" lon="16.573768">
        <ele>243.322503</ele>
        <time>2020-07-10T15:10:20.255Z</time>
      </trkpt>
      <trkpt lat="48.570794" lon="16.573794">
        <ele>243.425115</ele>
        <time>2020-07-10T15:10:23.286Z</time>
      </trkpt>
      <trkpt lat="48.570903" lon="16.573792">
        <ele>243.508521</ele>
        <time>2020-07-10T15:10:25.260Z</time>
      </trkpt>
      <trkpt lat="48.571013" lon="16.573789">
        <ele>243.592700</ele>
        <time>2020-07-10T15:10:27.258Z</time>
      </trkpt>
      <trkpt lat="48.571112" lon="16.573784">
        <ele>243.668491</ele>
        <time>2020-07-10T15:10:29.261Z</time>
      </trkpt>
      <trkpt lat="48.571243" lon="16.573790">
        <ele>243.737292</ele>
        <time>2020-07-10T15:10:32.279Z</time>
      </trkpt>
      <trkpt lat="48.571342" lon="16.573817">
        <ele>243.758005</ele>
        <time>2020-07-10T15:10:34.277Z</time>
      </trkpt>
      <trkpt lat="48.571443" lon="16.573829">
        <ele>243.778865</ele>
        <time>2020-07-10T15:10:36.259Z</time>
      </trkpt>
      <trkpt lat="48.571547" lon="16.573797">
        <ele>243.800717</ele>
        <time>2020-07-10T15:10:38.281Z</time>
      </trkpt>
      <trkpt lat="48.571633" lon="16.573688">
        <ele>243.823827</ele>
        <time>2020-07-10T15:10:40.260Z</time>
      </trkpt>
      <trkpt lat="48.571716" lon="16.573555">
        <ele>243.848734</ele>
        <time>2020-07-10T15:10:42.286Z</time>
      </trkpt>
      <trkpt lat="48.571813" lon="16.573428">
        <ele>243.875158</ele>
        <time>2020-07-10T15:10:44.284Z</time>
      </trkpt>
      <trkpt lat="48.571900" lon="16.573317">
        <ele>243.898600</ele>
        <time>2020-07-10T15:10:46.274Z</time>
      </trkpt>
      <trkpt lat="48.571985" lon="16.573190">
        <ele>243.923210</ele>
        <time>2020-07-10T15:10:48.288Z</time>
      </trkpt>
      <trkpt lat="48.572061" lon="16.573076">
        <ele>243.945257</ele>
        <time>2020-07-10T15:10:50.274Z</time>
      </trkpt>
      <trkpt lat="48.572143" lon="16.572974">
        <ele>243.967124</ele>
        <time>2020-07-10T15:10:52.279Z</time>
      </trkpt>
      <trkpt lat="48.572223" lon="16.572881">
        <ele>243.987905</ele>
        <time>2020-07-10T15:10:54.269Z</time>
      </trkpt>
      <trkpt lat="48.572301" lon="16.572761">
        <ele>244.010822</ele>
        <time>2020-07-10T15:10:56.292Z</time>
      </trkpt>
      <trkpt lat="48.572376" lon="16.572643">
        <ele>244.033113</ele>
        <time>2020-07-10T15:10:58.293Z</time>
      </trkpt>
      <trkpt lat="48.572450" lon="16.572526">
        <ele>244.055163</ele>
        <time>2020-07-10T15:11:00.256Z</time>
      </trkpt>
      <trkpt lat="48.572527" lon="16.572425">
        <ele>244.076155</ele>
        <time>2020-07-10T15:11:02.254Z</time>
      </trkpt>
      <trkpt lat="48.572610" lon="16.572368">
        <ele>244.094926</ele>
        <time>2020-07-10T15:11:04.273Z</time>
      </trkpt>
      <trkpt lat="48.572736" lon="16.572315">
        <ele>244.101949</ele>
        <time>2020-07-10T15:11:07.272Z</time>
      </trkpt>
      <trkpt lat="48.572827" lon="16.572315">
        <ele>244.106241</ele>
        <time>2020-07-10T15:11:09.276Z</time>
      </trkpt>
      <trkpt lat="48.572923" lon="16.572325">
        <ele>244.110779</ele>
        <time>2020-07-10T15:11:11.284Z</time>
      </trkpt>
      <trkpt lat="48.573025" lon="16.572336">
        <ele>244.115601</ele>
        <time>2020-07-10T15:11:13.296Z</time>
      </trkpt>
      <trkpt lat="48.573129" lon="16.572341">
        <ele>244.120509</ele>
        <time>2020-07-10T15:11:15.291Z</time>
      </trkpt>
      <trkpt lat="48.573237" lon="16.572316">
        <ele>244.125661</ele>
        <time>2020-07-10T15:11:17.280Z</time>
      </trkpt>
      <trkpt lat="48.573338" lon="16.572246">
        <ele>244.130901</ele>
        <time>2020-07-10T15:11:19.266Z</time>
      </trkpt>
      <trkpt lat="48.573437" lon="16.572178">
        <ele>244.136030</ele>
        <time>2020-07-10T15:11:21.272Z</time>
      </trkpt>
      <trkpt lat="48.573544" lon="16.572111">
        <ele>244.141492</ele>
        <time>2020-07-10T15:11:23.296Z</time>
      </trkpt>
      <trkpt lat="48.573649" lon="16.572042">
        <ele>244.146892</ele>
        <time>2020-07-10T15:11:25.258Z</time>
      </trkpt>
      <trkpt lat="48.573753" lon="16.571978">
        <ele>244.152187</ele>
        <time>2020-07-10T15:11:27.288Z</time>
      </trkpt>
      <trkpt lat="48.573855" lon="16.571920">
        <ele>244.157327</ele>
        <time>2020-07-10T15:11:29.263Z</time>
      </trkpt>
      <trkpt lat="48.573942" lon="16.571816">
        <ele>244.162558</ele>
        <time>2020-07-10T15:11:31.263Z</time>
      </trkpt>
      <trkpt lat="48.574037" lon="16.571725">
        <ele>244.167863</ele>
        <time>2020-07-10T15:11:33.301Z</time>
      </trkpt>
      <trkpt lat="48.574142" lon="16.571706">
        <ele>244.172850</ele>
        <time>2020-07-10T15:11:35.281Z</time>
      </trkpt>
      <trkpt lat="48.574248" lon="16.571687">
        <ele>244.177884</ele>
        <time>2020-07-10T15:11:37.258Z</time>
      </trkpt>
      <trkpt lat="48.574337" lon="16.571606">
        <ele>244.183934</ele>
        <time>2020-07-10T15:11:39.265Z</time>
      </trkpt>
      <trkpt lat="48.574420" lon="16.571522">
        <ele>244.191461</ele>
        <time>2020-07-10T15:11:41.275Z</time>
      </trkpt>
      <trkpt lat="48.574520" lon="16.571431">
        <ele>244.200258</ele>
        <time>2020-07-10T15:11:44.281Z</time>
      </trkpt>
      <trkpt lat="48.574618" lon="16.571336">
        <ele>244.209032</ele>
        <time>2020-07-10T15:11:47.292Z</time>
      </trkpt>
      <trkpt lat="48.574700" lon="16.571258">
        <ele>244.216333</ele>
        <time>2020-07-10T15:11:49.310Z</time>
      </trkpt>
      <trkpt lat="48.574785" lon="16.571184">
        <ele>244.223725</ele>
        <time>2020-07-10T15:11:51.313Z</time>
      </trkpt>
      <trkpt lat="48.574870" lon="16.571094">
        <ele>244.231546</ele>
        <time>2020-07-10T15:11:53.265Z</time>
      </trkpt>
      <trkpt lat="48.574947" lon="16.570986">
        <ele>244.239463</ele>
        <time>2020-07-10T15:11:55.277Z</time>
      </trkpt>
      <trkpt lat="48.575025" lon="16.570876">
        <ele>244.247502</ele>
        <time>2020-07-10T15:11:57.260Z</time>
      </trkpt>
      <trkpt lat="48.575103" lon="16.570761">
        <ele>244.255714</ele>
        <time>2020-07-10T15:11:59.281Z</time>
      </trkpt>
      <trkpt lat="48.575178" lon="16.570648">
        <ele>244.263695</ele>
        <time>2020-07-10T15:12:01.257Z</time>
      </trkpt>
      <trkpt lat="48.575259" lon="16.570524">
        <ele>244.272383</ele>
        <time>2020-07-10T15:12:03.268Z</time>
      </trkpt>
      <trkpt lat="48.575339" lon="16.570388">
        <ele>244.281457</ele>
        <time>2020-07-10T15:12:05.301Z</time>
      </trkpt>
      <trkpt lat="48.575419" lon="16.570252">
        <ele>244.290530</ele>
        <time>2020-07-10T15:12:07.296Z</time>
      </trkpt>
      <trkpt lat="48.575499" lon="16.570125">
        <ele>244.299273</ele>
        <time>2020-07-10T15:12:09.262Z</time>
      </trkpt>
      <trkpt lat="48.575583" lon="16.570011">
        <ele>244.307781</ele>
        <time>2020-07-10T15:12:11.271Z</time>
      </trkpt>
      <trkpt lat="48.575679" lon="16.569908">
        <ele>244.317056</ele>
        <time>2020-07-10T15:12:13.265Z</time>
      </trkpt>
      <trkpt lat="48.575776" lon="16.569812">
        <ele>244.340003</ele>
        <time>2020-07-10T15:12:15.274Z</time>
      </trkpt>
      <trkpt lat="48.575872" lon="16.569723">
        <ele>244.362293</ele>
        <time>2020-07-10T15:12:17.290Z</time>
      </trkpt>
      <trkpt lat="48.575968" lon="16.569629">
        <ele>244.384932</ele>
        <time>2020-07-10T15:12:19.276Z</time>
      </trkpt>
      <trkpt lat="48.576065" lon="16.569529">
        <ele>244.408171</ele>
        <time>2020-07-10T15:12:21.277Z</time>
      </trkpt>
      <trkpt lat="48.576160" lon="16.569421">
        <ele>244.431698</ele>
        <time>2020-07-10T15:12:23.275Z</time>
      </trkpt>
      <trkpt lat="48.576257" lon="16.569321">
        <ele>244.454937</ele>
        <time>2020-07-10T15:12:25.260Z</time>
      </trkpt>
      <trkpt lat="48.576354" lon="16.569214">
        <ele>244.478704</ele>
        <time>2020-07-10T15:12:27.271Z</time>
      </trkpt>
      <trkpt lat="48.576451" lon="16.569121">
        <ele>244.501439</ele>
        <time>2020-07-10T15:12:29.258Z</time>
      </trkpt>
      <trkpt lat="48.576552" lon="16.569036">
        <ele>244.524319</ele>
        <time>2020-07-10T15:12:31.270Z</time>
      </trkpt>
      <trkpt lat="48.576654" lon="16.568960">
        <ele>244.546826</ele>
        <time>2020-07-10T15:12:33.271Z</time>
      </trkpt>
      <trkpt lat="48.576760" lon="16.568892">
        <ele>244.569617</ele>
        <time>2020-07-10T15:12:35.292Z</time>
      </trkpt>
      <trkpt lat="48.576869" lon="16.568830">
        <ele>244.592667</ele>
        <time>2020-07-10T15:12:37.286Z</time>
      </trkpt>
      <trkpt lat="48.576981" lon="16.568765">
        <ele>244.616412</ele>
        <time>2020-07-10T15:12:39.288Z</time>
      </trkpt>
      <trkpt lat="48.577090" lon="16.568698">
        <ele>244.639701</ele>
        <time>2020-07-10T15:12:41.287Z</time>
      </trkpt>
      <trkpt lat="48.577197" lon="16.568634">
        <ele>244.662476</ele>
        <time>2020-07-10T15:12:43.282Z</time>
      </trkpt>
      <trkpt lat="48.577303" lon="16.568565">
        <ele>244.698243</ele>
        <time>2020-07-10T15:12:45.314Z</time>
      </trkpt>
      <trkpt lat="48.577418" lon="16.568503">
        <ele>244.746567</ele>
        <time>2020-07-10T15:12:47.264Z</time>
      </trkpt>
      <trkpt lat="48.577530" lon="16.568442">
        <ele>244.793685</ele>
        <time>2020-07-10T15:12:49.282Z</time>
      </trkpt>
      <trkpt lat="48.577642" lon="16.568374">
        <ele>244.841456</ele>
        <time>2020-07-10T15:12:51.275Z</time>
      </trkpt>
      <trkpt lat="48.577745" lon="16.568280">
        <ele>244.889077</ele>
        <time>2020-07-10T15:12:53.287Z</time>
      </trkpt>
      <trkpt lat="48.577838" lon="16.568175">
        <ele>244.935020</ele>
        <time>2020-07-10T15:12:55.269Z</time>
      </trkpt>
      <trkpt lat="48.577932" lon="16.568073">
        <ele>244.980818</ele>
        <time>2020-07-10T15:12:57.289Z</time>
      </trkpt>
      <trkpt lat="48.578022" lon="16.567953">
        <ele>245.028318</ele>
        <time>2020-07-10T15:12:59.251Z</time>
      </trkpt>
      <trkpt lat="48.578126" lon="16.567870">
        <ele>245.074865</ele>
        <time>2020-07-10T15:13:01.257Z</time>
      </trkpt>
      <trkpt lat="48.578237" lon="16.567827">
        <ele>245.120217</ele>
        <time>2020-07-10T15:13:03.273Z</time>
      </trkpt>
      <trkpt lat="48.578342" lon="16.567778">
        <ele>245.163710</ele>
        <time>2020-07-10T15:13:05.264Z</time>
      </trkpt>
      <trkpt lat="48.578427" lon="16.567701">
        <ele>245.202932</ele>
        <time>2020-07-10T15:13:07.287Z</time>
      </trkpt>
      <trkpt lat="48.578498" lon="16.567598">
        <ele>245.241881</ele>
        <time>2020-07-10T15:13:09.269Z</time>
      </trkpt>
      <trkpt lat="48.578578" lon="16.567498">
        <ele>245.282969</ele>
        <time>2020-07-10T15:13:11.273Z</time>
      </trkpt>
      <trkpt lat="48.578682" lon="16.567440">
        <ele>245.326843</ele>
        <time>2020-07-10T15:13:13.267Z</time>
      </trkpt>
      <trkpt lat="48.578788" lon="16.567372">
        <ele>245.372418</ele>
        <time>2020-07-10T15:13:15.279Z</time>
      </trkpt>
      <trkpt lat="48.578889" lon="16.567306">
        <ele>245.397886</ele>
        <time>2020-07-10T15:13:17.285Z</time>
      </trkpt>
      <trkpt lat="48.578986" lon="16.567267">
        <ele>245.414950</ele>
        <time>2020-07-10T15:13:19.262Z</time>
      </trkpt>
      <trkpt lat="48.579087" lon="16.567209">
        <ele>245.433319</ele>
        <time>2020-07-10T15:13:21.277Z</time>
      </trkpt>
      <trkpt lat="48.579195" lon="16.567167">
        <ele>245.452279</ele>
        <time>2020-07-10T15:13:23.293Z</time>
      </trkpt>
      <trkpt lat="48.579308" lon="16.567103">
        <ele>245.472794</ele>
        <time>2020-07-10T15:13:25.257Z</time>
      </trkpt>
      <trkpt lat="48.579419" lon="16.567025">
        <ele>245.493606</ele>
        <time>2020-07-10T15:13:27.296Z</time>
      </trkpt>
      <trkpt lat="48.579523" lon="16.566952">
        <ele>245.513100</ele>
        <time>2020-07-10T15:13:29.263Z</time>
      </trkpt>
      <trkpt lat="48.579626" lon="16.566898">
        <ele>245.531635</ele>
        <time>2020-07-10T15:13:31.257Z</time>
      </trkpt>
      <trkpt lat="48.579730" lon="16.566845">
        <ele>245.550295</ele>
        <time>2020-07-10T15:13:33.268Z</time>
      </trkpt>
      <trkpt lat="48.579833" lon="16.566793">
        <ele>245.568757</ele>
        <time>2020-07-10T15:13:35.308Z</time>
      </trkpt>
      <trkpt lat="48.579942" lon="16.566729">
        <ele>245.588637</ele>
        <time>2020-07-10T15:13:37.287Z</time>
      </trkpt>
      <trkpt lat="48.580041" lon="16.566666">
        <ele>245.606899</ele>
        <time>2020-07-10T15:13:39.262Z</time>
      </trkpt>
      <trkpt lat="48.580136" lon="16.566634">
        <ele>245.623447</ele>
        <time>2020-07-10T15:13:41.261Z</time>
      </trkpt>
      <trkpt lat="48.580262" lon="16.566573">
        <ele>245.645941</ele>
        <time>2020-07-10T15:13:44.273Z</time>
      </trkpt>
      <trkpt lat="48.580351" lon="16.566512">
        <ele>245.662555</ele>
        <time>2020-07-10T15:13:46.264Z</time>
      </trkpt>
      <trkpt lat="48.580450" lon="16.566455">
        <ele>245.680566</ele>
        <time>2020-07-10T15:13:48.264Z</time>
      </trkpt>
      <trkpt lat="48.580549" lon="16.566392">
        <ele>245.730100</ele>
        <time>2020-07-10T15:13:50.309Z</time>
      </trkpt>
      <trkpt lat="48.580654" lon="16.566321">
        <ele>245.819424</ele>
        <time>2020-07-10T15:13:52.274Z</time>
      </trkpt>
      <trkpt lat="48.580765" lon="16.566255">
        <ele>245.912051</ele>
        <time>2020-07-10T15:13:54.265Z</time>
      </trkpt>
      <trkpt lat="48.580880" lon="16.566190">
        <ele>246.007393</ele>
        <time>2020-07-10T15:13:56.280Z</time>
      </trkpt>
      <trkpt lat="48.580986" lon="16.566126">
        <ele>246.096031</ele>
        <time>2020-07-10T15:13:58.297Z</time>
      </trkpt>
      <trkpt lat="48.581163" lon="16.565959">
        <ele>246.258059</ele>
        <time>2020-07-10T15:14:46.262Z</time>
      </trkpt>
      <trkpt lat="48.581373" lon="16.565847">
        <ele>246.430987</ele>
        <time>2020-07-10T15:15:24.283Z</time>
      </trkpt>
      <trkpt lat="48.581493" lon="16.565772">
        <ele>246.531825</ele>
        <time>2020-07-10T15:15:27.257Z</time>
      </trkpt>
      <trkpt lat="48.581582" lon="16.565725">
        <ele>246.605034</ele>
        <time>2020-07-10T15:15:29.261Z</time>
      </trkpt>
      <trkpt lat="48.581676" lon="16.565675">
        <ele>246.682418</ele>
        <time>2020-07-10T15:15:31.254Z</time>
      </trkpt>
      <trkpt lat="48.581771" lon="16.565612">
        <ele>246.762977</ele>
        <time>2020-07-10T15:15:33.296Z</time>
      </trkpt>
      <trkpt lat="48.581866" lon="16.565542">
        <ele>246.845048</ele>
        <time>2020-07-10T15:15:35.272Z</time>
      </trkpt>
      <trkpt lat="48.581968" lon="16.565479">
        <ele>246.930613</ele>
        <time>2020-07-10T15:15:37.264Z</time>
      </trkpt>
      <trkpt lat="48.582068" lon="16.565414">
        <ele>247.015143</ele>
        <time>2020-07-10T15:15:39.253Z</time>
      </trkpt>
      <trkpt lat="48.582159" lon="16.565380">
        <ele>247.087298</ele>
        <time>2020-07-10T15:15:41.252Z</time>
      </trkpt>
      <trkpt lat="48.582208" lon="16.565498">
        <ele>247.118638</ele>
        <time>2020-07-10T15:15:44.269Z</time>
      </trkpt>
      <trkpt lat="48.582245" lon="16.565640">
        <ele>247.152969</ele>
        <time>2020-07-10T15:15:48.249Z</time>
      </trkpt>
      <trkpt lat="48.582334" lon="16.565607">
        <ele>247.184130</ele>
        <time>2020-07-10T15:15:51.258Z</time>
      </trkpt>
      <trkpt lat="48.582441" lon="16.565555">
        <ele>247.222348</ele>
        <time>2020-07-10T15:15:53.249Z</time>
      </trkpt>
      <trkpt lat="48.582538" lon="16.565497">
        <ele>247.257818</ele>
        <time>2020-07-10T15:15:55.253Z</time>
      </trkpt>
      <trkpt lat="48.582641" lon="16.565444">
        <ele>247.294815</ele>
        <time>2020-07-10T15:15:57.257Z</time>
      </trkpt>
      <trkpt lat="48.582753" lon="16.565380">
        <ele>247.335530</ele>
        <time>2020-07-10T15:15:59.284Z</time>
      </trkpt>
      <trkpt lat="48.582864" lon="16.565319">
        <ele>247.375691</ele>
        <time>2020-07-10T15:16:01.254Z</time>
      </trkpt>
      <trkpt lat="48.582979" lon="16.565237">
        <ele>247.418927</ele>
        <time>2020-07-10T15:16:03.271Z</time>
      </trkpt>
      <trkpt lat="48.583096" lon="16.565170">
        <ele>247.461471</ele>
        <time>2020-07-10T15:16:05.265Z</time>
      </trkpt>
      <trkpt lat="48.583211" lon="16.565104">
        <ele>247.503298</ele>
        <time>2020-07-10T15:16:07.305Z</time>
      </trkpt>
      <trkpt lat="48.583335" lon="16.565025">
        <ele>247.549055</ele>
        <time>2020-07-10T15:16:09.256Z</time>
      </trkpt>
      <trkpt lat="48.583448" lon="16.564969">
        <ele>247.589491</ele>
        <time>2020-07-10T15:16:11.252Z</time>
      </trkpt>
      <trkpt lat="48.583555" lon="16.564919">
        <ele>247.627574</ele>
        <time>2020-07-10T15:16:13.255Z</time>
      </trkpt>
      <trkpt lat="48.583659" lon="16.564870">
        <ele>247.664616</ele>
        <time>2020-07-10T15:16:15.297Z</time>
      </trkpt>
      <trkpt lat="48.583768" lon="16.564837">
        <ele>247.703137</ele>
        <time>2020-07-10T15:16:17.284Z</time>
      </trkpt>
      <trkpt lat="48.583883" lon="16.564825">
        <ele>247.749384</ele>
        <time>2020-07-10T15:16:19.267Z</time>
      </trkpt>
      <trkpt lat="48.583996" lon="16.564822">
        <ele>247.794725</ele>
        <time>2020-07-10T15:16:21.258Z</time>
      </trkpt>
      <trkpt lat="48.584109" lon="16.564817">
        <ele>247.840079</ele>
        <time>2020-07-10T15:16:23.266Z</time>
      </trkpt>
      <trkpt lat="48.584223" lon="16.564823">
        <ele>247.885843</ele>
        <time>2020-07-10T15:16:25.258Z</time>
      </trkpt>
      <trkpt lat="48.584334" lon="16.564831">
        <ele>247.930426</ele>
        <time>2020-07-10T15:16:27.262Z</time>
      </trkpt>
      <trkpt lat="48.584443" lon="16.564833">
        <ele>247.974159</ele>
        <time>2020-07-10T15:16:29.273Z</time>
      </trkpt>
      <trkpt lat="48.584552" lon="16.564838">
        <ele>248.017909</ele>
        <time>2020-07-10T15:16:31.283Z</time>
      </trkpt>
      <trkpt lat="48.584661" lon="16.564842">
        <ele>248.061651</ele>
        <time>2020-07-10T15:16:33.260Z</time>
      </trkpt>
      <trkpt lat="48.584775" lon="16.564870">
        <ele>248.107987</ele>
        <time>2020-07-10T15:16:35.249Z</time>
      </trkpt>
      <trkpt lat="48.584889" lon="16.564899">
        <ele>248.154366</ele>
        <time>2020-07-10T15:16:37.268Z</time>
      </trkpt>
      <trkpt lat="48.585003" lon="16.564915">
        <ele>248.200298</ele>
        <time>2020-07-10T15:16:39.255Z</time>
      </trkpt>
      <trkpt lat="48.585123" lon="16.564920">
        <ele>248.248459</ele>
        <time>2020-07-10T15:16:41.269Z</time>
      </trkpt>
      <trkpt lat="48.585243" lon="16.564921">
        <ele>248.296603</ele>
        <time>2020-07-10T15:16:43.260Z</time>
      </trkpt>
      <trkpt lat="48.585364" lon="16.564919">
        <ele>248.345150</ele>
        <time>2020-07-10T15:16:45.249Z</time>
      </trkpt>
      <trkpt lat="48.585479" lon="16.564927">
        <ele>248.391336</ele>
        <time>2020-07-10T15:16:47.256Z</time>
      </trkpt>
      <trkpt lat="48.585607" lon="16.564951">
        <ele>248.434245</ele>
        <time>2020-07-10T15:16:49.253Z</time>
      </trkpt>
      <trkpt lat="48.585733" lon="16.564969">
        <ele>248.465575</ele>
        <time>2020-07-10T15:16:51.252Z</time>
      </trkpt>
      <trkpt lat="48.585859" lon="16.564979">
        <ele>248.496809</ele>
        <time>2020-07-10T15:16:53.302Z</time>
      </trkpt>
      <trkpt lat="48.585988" lon="16.564980">
        <ele>248.528743</ele>
        <time>2020-07-10T15:16:55.254Z</time>
      </trkpt>
      <trkpt lat="48.586117" lon="16.564987">
        <ele>248.560698</ele>
        <time>2020-07-10T15:16:57.286Z</time>
      </trkpt>
      <trkpt lat="48.586255" lon="16.565001">
        <ele>248.594936</ele>
        <time>2020-07-10T15:16:59.275Z</time>
      </trkpt>
      <trkpt lat="48.586402" lon="16.565021">
        <ele>248.631473</ele>
        <time>2020-07-10T15:17:01.260Z</time>
      </trkpt>
      <trkpt lat="48.586551" lon="16.565009">
        <ele>248.668410</ele>
        <time>2020-07-10T15:17:03.263Z</time>
      </trkpt>
      <trkpt lat="48.586697" lon="16.564990">
        <ele>248.704686</ele>
        <time>2020-07-10T15:17:05.288Z</time>
      </trkpt>
      <trkpt lat="48.586839" lon="16.564989">
        <ele>248.739839</ele>
        <time>2020-07-10T15:17:07.269Z</time>
      </trkpt>
      <trkpt lat="48.586974" lon="16.564988">
        <ele>248.773258</ele>
        <time>2020-07-10T15:17:09.260Z</time>
      </trkpt>
      <trkpt lat="48.587097" lon="16.565000">
        <ele>248.803770</ele>
        <time>2020-07-10T15:17:11.275Z</time>
      </trkpt>
      <trkpt lat="48.587199" lon="16.564987">
        <ele>248.829110</ele>
        <time>2020-07-10T15:17:14.268Z</time>
      </trkpt>
      <trkpt lat="48.587209" lon="16.564834">
        <ele>248.854285</ele>
        <time>2020-07-10T15:17:18.296Z</time>
      </trkpt>
      <trkpt lat="48.587310" lon="16.564809">
        <ele>248.915024</ele>
        <time>2020-07-10T15:17:21.261Z</time>
      </trkpt>
      <trkpt lat="48.587437" lon="16.564793">
        <ele>249.024341</ele>
        <time>2020-07-10T15:17:24.255Z</time>
      </trkpt>
      <trkpt lat="48.587529" lon="16.564773">
        <ele>249.104069</ele>
        <time>2020-07-10T15:17:26.257Z</time>
      </trkpt>
      <trkpt lat="48.587630" lon="16.564753">
        <ele>249.191445</ele>
        <time>2020-07-10T15:17:28.262Z</time>
      </trkpt>
      <trkpt lat="48.587734" lon="16.564720">
        <ele>249.282599</ele>
        <time>2020-07-10T15:17:30.312Z</time>
      </trkpt>
      <trkpt lat="48.587837" lon="16.564678">
        <ele>249.374108</ele>
        <time>2020-07-10T15:17:32.279Z</time>
      </trkpt>
      <trkpt lat="48.587942" lon="16.564628">
        <ele>249.468538</ele>
        <time>2020-07-10T15:17:34.270Z</time>
      </trkpt>
      <trkpt lat="48.588043" lon="16.564583">
        <ele>249.558859</ele>
        <time>2020-07-10T15:17:36.299Z</time>
      </trkpt>
      <trkpt lat="48.588141" lon="16.564522">
        <ele>249.649768</ele>
        <time>2020-07-10T15:17:38.263Z</time>
      </trkpt>
      <trkpt lat="48.588243" lon="16.564454">
        <ele>249.745392</ele>
        <time>2020-07-10T15:17:40.272Z</time>
      </trkpt>
      <trkpt lat="48.588344" lon="16.564386">
        <ele>249.840231</ele>
        <time>2020-07-10T15:17:42.265Z</time>
      </trkpt>
      <trkpt lat="48.588451" lon="16.564311">
        <ele>249.941399</ele>
        <time>2020-07-10T15:17:44.267Z</time>
      </trkpt>
      <trkpt lat="48.588549" lon="16.564222">
        <ele>250.039464</ele>
        <time>2020-07-10T15:17:46.274Z</time>
      </trkpt>
      <trkpt lat="48.588642" lon="16.564125">
        <ele>250.136381</ele>
        <time>2020-07-10T15:17:48.282Z</time>
      </trkpt>
      <trkpt lat="48.588730" lon="16.564010">
        <ele>250.236159</ele>
        <time>2020-07-10T15:17:50.277Z</time>
      </trkpt>
      <trkpt lat="48.588816" lon="16.563893">
        <ele>250.335400</ele>
        <time>2020-07-10T15:17:52.275Z</time>
      </trkpt>
      <trkpt lat="48.588899" lon="16.563771">
        <ele>250.419504</ele>
        <time>2020-07-10T15:17:54.275Z</time>
      </trkpt>
      <trkpt lat="48.588975" lon="16.563648">
        <ele>250.460424</ele>
        <time>2020-07-10T15:17:56.260Z</time>
      </trkpt>
      <trkpt lat="48.589051" lon="16.563517">
        <ele>250.502787</ele>
        <time>2020-07-10T15:17:58.277Z</time>
      </trkpt>
      <trkpt lat="48.589126" lon="16.563376">
        <ele>250.546776</ele>
        <time>2020-07-10T15:18:00.258Z</time>
      </trkpt>
      <trkpt lat="48.589197" lon="16.563241">
        <ele>250.588707</ele>
        <time>2020-07-10T15:18:02.252Z</time>
      </trkpt>
      <trkpt lat="48.589262" lon="16.563096">
        <ele>250.631292</ele>
        <time>2020-07-10T15:18:04.267Z</time>
      </trkpt>
      <trkpt lat="48.589317" lon="16.562944">
        <ele>250.673413</ele>
        <time>2020-07-10T15:18:06.254Z</time>
      </trkpt>
      <trkpt lat="48.589366" lon="16.562795">
        <ele>250.713868</ele>
        <time>2020-07-10T15:18:08.256Z</time>
      </trkpt>
      <trkpt lat="48.589410" lon="16.562641">
        <ele>250.754651</ele>
        <time>2020-07-10T15:18:10.261Z</time>
      </trkpt>
      <trkpt lat="48.589450" lon="16.562488">
        <ele>250.794648</ele>
        <time>2020-07-10T15:18:12.247Z</time>
      </trkpt>
      <trkpt lat="48.589490" lon="16.562338">
        <ele>250.833967</ele>
        <time>2020-07-10T15:18:14.259Z</time>
      </trkpt>
      <trkpt lat="48.589530" lon="16.562185">
        <ele>250.873964</ele>
        <time>2020-07-10T15:18:16.254Z</time>
      </trkpt>
      <trkpt lat="48.589576" lon="16.562034">
        <ele>250.914381</ele>
        <time>2020-07-10T15:18:18.264Z</time>
      </trkpt>
      <trkpt lat="48.589625" lon="16.561877">
        <ele>250.956585</ele>
        <time>2020-07-10T15:18:20.255Z</time>
      </trkpt>
      <trkpt lat="48.589673" lon="16.561715">
        <ele>250.999741</ele>
        <time>2020-07-10T15:18:22.270Z</time>
      </trkpt>
      <trkpt lat="48.589717" lon="16.561554">
        <ele>251.042092</ele>
        <time>2020-07-10T15:18:24.304Z</time>
      </trkpt>
      <trkpt lat="48.589760" lon="16.561391">
        <ele>251.079787</ele>
        <time>2020-07-10T15:18:26.249Z</time>
      </trkpt>
      <trkpt lat="48.589808" lon="16.561251">
        <ele>251.105879</ele>
        <time>2020-07-10T15:18:28.251Z</time>
      </trkpt>
      <trkpt lat="48.589896" lon="16.561333">
        <ele>251.131739</ele>
        <time>2020-07-10T15:18:31.274Z</time>
      </trkpt>
      <trkpt lat="48.589980" lon="16.561262">
        <ele>251.155813</ele>
        <time>2020-07-10T15:18:34.255Z</time>
      </trkpt>
      <trkpt lat="48.590019" lon="16.561080">
        <ele>251.187469</ele>
        <time>2020-07-10T15:18:37.271Z</time>
      </trkpt>
      <trkpt lat="48.590061" lon="16.560956">
        <ele>251.210521</ele>
        <time>2020-07-10T15:18:39.261Z</time>
      </trkpt>
      <trkpt lat="48.590098" lon="16.560820">
        <ele>251.234853</ele>
        <time>2020-07-10T15:18:41.273Z</time>
      </trkpt>
      <trkpt lat="48.590133" lon="16.560681">
        <ele>251.259463</ele>
        <time>2020-07-10T15:18:43.274Z</time>
      </trkpt>
      <trkpt lat="48.590170" lon="16.560542">
        <ele>251.284256</ele>
        <time>2020-07-10T15:18:45.285Z</time>
      </trkpt>
      <trkpt lat="48.590212" lon="16.560399">
        <ele>251.310145</ele>
        <time>2020-07-10T15:18:47.271Z</time>
      </trkpt>
      <trkpt lat="48.590254" lon="16.560257">
        <ele>251.335883</ele>
        <time>2020-07-10T15:18:49.280Z</time>
      </trkpt>
      <trkpt lat="48.590296" lon="16.560116">
        <ele>251.361471</ele>
        <time>2020-07-10T15:18:51.257Z</time>
      </trkpt>
      <trkpt lat="48.590335" lon="16.559967">
        <ele>251.387985</ele>
        <time>2020-07-10T15:18:53.294Z</time>
      </trkpt>
      <trkpt lat="48.590373" lon="16.559818">
        <ele>251.414409</ele>
        <time>2020-07-10T15:18:55.287Z</time>
      </trkpt>
      <trkpt lat="48.590413" lon="16.559662">
        <ele>251.442093</ele>
        <time>2020-07-10T15:18:57.266Z</time>
      </trkpt>
      <trkpt lat="48.590463" lon="16.559509">
        <ele>251.470330</ele>
        <time>2020-07-10T15:18:59.256Z</time>
      </trkpt>
      <trkpt lat="48.590512" lon="16.559353">
        <ele>251.498905</ele>
        <time>2020-07-10T15:19:01.254Z</time>
      </trkpt>
      <trkpt lat="48.590557" lon="16.559188">
        <ele>251.555333</ele>
        <time>2020-07-10T15:19:03.253Z</time>
      </trkpt>
      <trkpt lat="48.590600" lon="16.559025">
        <ele>251.668450</ele>
        <time>2020-07-10T15:19:05.262Z</time>
      </trkpt>
      <trkpt lat="48.590642" lon="16.558865">
        <ele>251.779410</ele>
        <time>2020-07-10T15:19:07.270Z</time>
      </trkpt>
      <trkpt lat="48.590684" lon="16.558705">
        <ele>251.890370</ele>
        <time>2020-07-10T15:19:09.277Z</time>
      </trkpt>
      <trkpt lat="48.590726" lon="16.558547">
        <ele>252.000132</ele>
        <time>2020-07-10T15:19:11.271Z</time>
      </trkpt>
      <trkpt lat="48.590769" lon="16.558388">
        <ele>252.110858</ele>
        <time>2020-07-10T15:19:13.284Z</time>
      </trkpt>
      <trkpt lat="48.590817" lon="16.558226">
        <ele>252.225280</ele>
        <time>2020-07-10T15:19:15.271Z</time>
      </trkpt>
      <trkpt lat="48.590866" lon="16.558062">
        <ele>252.341278</ele>
        <time>2020-07-10T15:19:17.268Z</time>
      </trkpt>
      <trkpt lat="48.590918" lon="16.557909">
        <ele>252.452158</ele>
        <time>2020-07-10T15:19:19.280Z</time>
      </trkpt>
      <trkpt lat="48.590980" lon="16.557782">
        <ele>252.553904</ele>
        <time>2020-07-10T15:19:21.288Z</time>
      </trkpt>
      <trkpt lat="48.591056" lon="16.557686">
        <ele>252.650417</ele>
        <time>2020-07-10T15:19:23.261Z</time>
      </trkpt>
      <trkpt lat="48.591096" lon="16.557618">
        <ele>252.709075</ele>
        <time>2020-07-10T15:20:01.862Z</time>
      </trkpt>
      <trkpt lat="48.591185" lon="16.557517">
        <ele>252.817524</ele>
        <time>2020-07-10T15:21:36.277Z</time>
      </trkpt>
      <trkpt lat="48.591271" lon="16.557424">
        <ele>252.920567</ele>
        <time>2020-07-10T15:21:39.284Z</time>
      </trkpt>
      <trkpt lat="48.591380" lon="16.557305">
        <ele>253.051591</ele>
        <time>2020-07-10T15:21:42.275Z</time>
      </trkpt>
      <trkpt lat="48.591458" lon="16.557219">
        <ele>253.145671</ele>
        <time>2020-07-10T15:21:44.261Z</time>
      </trkpt>
      <trkpt lat="48.591534" lon="16.557130">
        <ele>253.239355</ele>
        <time>2020-07-10T15:21:46.271Z</time>
      </trkpt>
      <trkpt lat="48.591613" lon="16.557039">
        <ele>253.324276</ele>
        <time>2020-07-10T15:21:48.262Z</time>
      </trkpt>
      <trkpt lat="48.591696" lon="16.556941">
        <ele>253.407921</ele>
        <time>2020-07-10T15:21:50.305Z</time>
      </trkpt>
      <trkpt lat="48.591785" lon="16.556842">
        <ele>253.495681</ele>
        <time>2020-07-10T15:21:52.259Z</time>
      </trkpt>
      <trkpt lat="48.591874" lon="16.556744">
        <ele>253.583131</ele>
        <time>2020-07-10T15:21:54.277Z</time>
      </trkpt>
      <trkpt lat="48.591972" lon="16.556642">
        <ele>253.677630</ele>
        <time>2020-07-10T15:21:56.269Z</time>
      </trkpt>
      <trkpt lat="48.592074" lon="16.556555">
        <ele>253.770648</ele>
        <time>2020-07-10T15:21:58.255Z</time>
      </trkpt>
      <trkpt lat="48.592180" lon="16.556473">
        <ele>253.865220</ele>
        <time>2020-07-10T15:22:00.253Z</time>
      </trkpt>
      <trkpt lat="48.592287" lon="16.556399">
        <ele>253.958676</ele>
        <time>2020-07-10T15:22:02.284Z</time>
      </trkpt>
      <trkpt lat="48.592395" lon="16.556331">
        <ele>254.051597</ele>
        <time>2020-07-10T15:22:04.256Z</time>
      </trkpt>
      <trkpt lat="48.592501" lon="16.556252">
        <ele>254.145462</ele>
        <time>2020-07-10T15:22:06.267Z</time>
      </trkpt>
      <trkpt lat="48.592612" lon="16.556173">
        <ele>254.242905</ele>
        <time>2020-07-10T15:22:08.283Z</time>
      </trkpt>
      <trkpt lat="48.592721" lon="16.556091">
        <ele>254.339604</ele>
        <time>2020-07-10T15:22:10.272Z</time>
      </trkpt>
      <trkpt lat="48.592835" lon="16.556018">
        <ele>254.437937</ele>
        <time>2020-07-10T15:22:12.279Z</time>
      </trkpt>
      <trkpt lat="48.592947" lon="16.555937">
        <ele>254.536547</ele>
        <time>2020-07-10T15:22:14.254Z</time>
      </trkpt>
      <trkpt lat="48.593060" lon="16.555859">
        <ele>254.635210</ele>
        <time>2020-07-10T15:22:16.259Z</time>
      </trkpt>
      <trkpt lat="48.593172" lon="16.555783">
        <ele>254.722066</ele>
        <time>2020-07-10T15:22:18.264Z</time>
      </trkpt>
      <trkpt lat="48.593280" lon="16.555693">
        <ele>254.787543</ele>
        <time>2020-07-10T15:22:20.289Z</time>
      </trkpt>
      <trkpt lat="48.593395" lon="16.555615">
        <ele>254.854467</ele>
        <time>2020-07-10T15:22:22.272Z</time>
      </trkpt>
      <trkpt lat="48.593513" lon="16.555544">
        <ele>254.921900</ele>
        <time>2020-07-10T15:22:24.280Z</time>
      </trkpt>
      <trkpt lat="48.593624" lon="16.555452">
        <ele>254.989111</ele>
        <time>2020-07-10T15:22:26.278Z</time>
      </trkpt>
      <trkpt lat="48.593738" lon="16.555370">
        <ele>255.056142</ele>
        <time>2020-07-10T15:22:28.290Z</time>
      </trkpt>
      <trkpt lat="48.593854" lon="16.555299">
        <ele>255.122589</ele>
        <time>2020-07-10T15:22:30.271Z</time>
      </trkpt>
      <trkpt lat="48.593965" lon="16.555220">
        <ele>255.187729</ele>
        <time>2020-07-10T15:22:32.284Z</time>
      </trkpt>
      <trkpt lat="48.594074" lon="16.555139">
        <ele>255.252217</ele>
        <time>2020-07-10T15:22:34.277Z</time>
      </trkpt>
      <trkpt lat="48.594180" lon="16.555056">
        <ele>255.315599</ele>
        <time>2020-07-10T15:22:36.280Z</time>
      </trkpt>
      <trkpt lat="48.594285" lon="16.554979">
        <ele>255.377561</ele>
        <time>2020-07-10T15:22:38.268Z</time>
      </trkpt>
      <trkpt lat="48.594386" lon="16.554897">
        <ele>255.438431</ele>
        <time>2020-07-10T15:22:40.290Z</time>
      </trkpt>
      <trkpt lat="48.594485" lon="16.554804">
        <ele>255.500316</ele>
        <time>2020-07-10T15:22:42.275Z</time>
      </trkpt>
      <trkpt lat="48.594581" lon="16.554700">
        <ele>255.563022</ele>
        <time>2020-07-10T15:22:44.260Z</time>
      </trkpt>
      <trkpt lat="48.594681" lon="16.554597">
        <ele>255.627268</ele>
        <time>2020-07-10T15:22:46.320Z</time>
      </trkpt>
      <trkpt lat="48.594785" lon="16.554489">
        <ele>255.762695</ele>
        <time>2020-07-10T15:22:48.275Z</time>
      </trkpt>
      <trkpt lat="48.594885" lon="16.554369">
        <ele>255.950496</ele>
        <time>2020-07-10T15:22:50.271Z</time>
      </trkpt>
      <trkpt lat="48.594981" lon="16.554241">
        <ele>256.138779</ele>
        <time>2020-07-10T15:22:52.249Z</time>
      </trkpt>
      <trkpt lat="48.595067" lon="16.554132">
        <ele>256.303855</ele>
        <time>2020-07-10T15:22:54.256Z</time>
      </trkpt>
      <trkpt lat="48.595146" lon="16.554014">
        <ele>256.467208</ele>
        <time>2020-07-10T15:22:56.284Z</time>
      </trkpt>
      <trkpt lat="48.595218" lon="16.553875">
        <ele>256.638980</ele>
        <time>2020-07-10T15:22:58.284Z</time>
      </trkpt>
      <trkpt lat="48.595292" lon="16.553725">
        <ele>256.821041</ele>
        <time>2020-07-10T15:23:00.257Z</time>
      </trkpt>
      <trkpt lat="48.595374" lon="16.553573">
        <ele>257.011877</ele>
        <time>2020-07-10T15:23:02.296Z</time>
      </trkpt>
      <trkpt lat="48.595457" lon="16.553429">
        <ele>257.197711</ele>
        <time>2020-07-10T15:23:04.262Z</time>
      </trkpt>
      <trkpt lat="48.595537" lon="16.553282">
        <ele>257.382920</ele>
        <time>2020-07-10T15:23:06.259Z</time>
      </trkpt>
      <trkpt lat="48.595614" lon="16.553132">
        <ele>257.567653</ele>
        <time>2020-07-10T15:23:08.253Z</time>
      </trkpt>
      <trkpt lat="48.595692" lon="16.552980">
        <ele>257.754824</ele>
        <time>2020-07-10T15:23:10.309Z</time>
      </trkpt>
      <trkpt lat="48.595764" lon="16.552822">
        <ele>257.941496</ele>
        <time>2020-07-10T15:23:12.267Z</time>
      </trkpt>
      <trkpt lat="48.595847" lon="16.552678">
        <ele>258.127329</ele>
        <time>2020-07-10T15:23:14.264Z</time>
      </trkpt>
      <trkpt lat="48.595929" lon="16.552534">
        <ele>258.306434</ele>
        <time>2020-07-10T15:23:16.275Z</time>
      </trkpt>
      <trkpt lat="48.596017" lon="16.552391">
        <ele>258.394616</ele>
        <time>2020-07-10T15:23:18.288Z</time>
      </trkpt>
      <trkpt lat="48.596109" lon="16.552252">
        <ele>258.483395</ele>
        <time>2020-07-10T15:23:20.267Z</time>
      </trkpt>
      <trkpt lat="48.596201" lon="16.552118">
        <ele>258.570592</ele>
        <time>2020-07-10T15:23:22.305Z</time>
      </trkpt>
      <trkpt lat="48.596295" lon="16.551995">
        <ele>258.655448</ele>
        <time>2020-07-10T15:23:24.300Z</time>
      </trkpt>
      <trkpt lat="48.596390" lon="16.551871">
        <ele>258.741115</ele>
        <time>2020-07-10T15:23:26.307Z</time>
      </trkpt>
      <trkpt lat="48.596483" lon="16.551741">
        <ele>258.827570</ele>
        <time>2020-07-10T15:23:28.259Z</time>
      </trkpt>
      <trkpt lat="48.596574" lon="16.551619">
        <ele>258.910588</ele>
        <time>2020-07-10T15:23:30.269Z</time>
      </trkpt>
      <trkpt lat="48.596665" lon="16.551494">
        <ele>258.994510</ele>
        <time>2020-07-10T15:23:32.269Z</time>
      </trkpt>
      <trkpt lat="48.596761" lon="16.551367">
        <ele>259.081581</ele>
        <time>2020-07-10T15:23:34.280Z</time>
      </trkpt>
      <trkpt lat="48.596854" lon="16.551241">
        <ele>259.166819</ele>
        <time>2020-07-10T15:23:36.292Z</time>
      </trkpt>
      <trkpt lat="48.596943" lon="16.551117">
        <ele>259.249430</ele>
        <time>2020-07-10T15:23:38.262Z</time>
      </trkpt>
      <trkpt lat="48.597034" lon="16.550993">
        <ele>259.333049</ele>
        <time>2020-07-10T15:23:40.257Z</time>
      </trkpt>
      <trkpt lat="48.597128" lon="16.550872">
        <ele>259.417316</ele>
        <time>2020-07-10T15:23:42.273Z</time>
      </trkpt>
      <trkpt lat="48.597219" lon="16.550749">
        <ele>259.500634</ele>
        <time>2020-07-10T15:23:44.269Z</time>
      </trkpt>
      <trkpt lat="48.597310" lon="16.550631">
        <ele>259.609652</ele>
        <time>2020-07-10T15:23:46.283Z</time>
      </trkpt>
      <trkpt lat="48.597402" lon="16.550509">
        <ele>259.735826</ele>
        <time>2020-07-10T15:23:48.258Z</time>
      </trkpt>
      <trkpt lat="48.597495" lon="16.550385">
        <ele>259.863675</ele>
        <time>2020-07-10T15:23:50.276Z</time>
      </trkpt>
      <trkpt lat="48.597582" lon="16.550260">
        <ele>259.987419</ele>
        <time>2020-07-10T15:23:52.286Z</time>
      </trkpt>
      <trkpt lat="48.597663" lon="16.550146">
        <ele>260.101519</ele>
        <time>2020-07-10T15:23:54.287Z</time>
      </trkpt>
      <trkpt lat="48.597742" lon="16.550033">
        <ele>260.213647</ele>
        <time>2020-07-10T15:23:56.268Z</time>
      </trkpt>
      <trkpt lat="48.597823" lon="16.549919">
        <ele>260.327746</ele>
        <time>2020-07-10T15:23:58.260Z</time>
      </trkpt>
      <trkpt lat="48.597907" lon="16.549806">
        <ele>260.443674</ele>
        <time>2020-07-10T15:24:00.252Z</time>
      </trkpt>
      <trkpt lat="48.597995" lon="16.549690">
        <ele>260.564049</ele>
        <time>2020-07-10T15:24:02.263Z</time>
      </trkpt>
      <trkpt lat="48.598082" lon="16.549577">
        <ele>260.682306</ele>
        <time>2020-07-10T15:24:04.261Z</time>
      </trkpt>
      <trkpt lat="48.598164" lon="16.549464">
        <ele>260.796701</ele>
        <time>2020-07-10T15:24:06.282Z</time>
      </trkpt>
      <trkpt lat="48.598245" lon="16.549354">
        <ele>260.908959</ele>
        <time>2020-07-10T15:24:08.271Z</time>
      </trkpt>
      <trkpt lat="48.598329" lon="16.549244">
        <ele>261.023536</ele>
        <time>2020-07-10T15:24:10.253Z</time>
      </trkpt>
      <trkpt lat="48.598410" lon="16.549135">
        <ele>261.135340</ele>
        <time>2020-07-10T15:24:12.250Z</time>
      </trkpt>
      <trkpt lat="48.598492" lon="16.549036">
        <ele>261.243534</ele>
        <time>2020-07-10T15:24:14.315Z</time>
      </trkpt>
      <trkpt lat="48.598575" lon="16.548943">
        <ele>261.350051</ele>
        <time>2020-07-10T15:24:16.260Z</time>
      </trkpt>
      <trkpt lat="48.598663" lon="16.548862">
        <ele>261.502430</ele>
        <time>2020-07-10T15:24:18.261Z</time>
      </trkpt>
      <trkpt lat="48.598793" lon="16.548781">
        <ele>261.739717</ele>
        <time>2020-07-10T15:24:21.295Z</time>
      </trkpt>
      <trkpt lat="48.598894" lon="16.548731">
        <ele>261.919069</ele>
        <time>2020-07-10T15:24:23.257Z</time>
      </trkpt>
      <trkpt lat="48.599004" lon="16.548692">
        <ele>262.109742</ele>
        <time>2020-07-10T15:24:25.307Z</time>
      </trkpt>
      <trkpt lat="48.599115" lon="16.548655">
        <ele>262.301566</ele>
        <time>2020-07-10T15:24:27.270Z</time>
      </trkpt>
      <trkpt lat="48.599229" lon="16.548624">
        <ele>262.497042</ele>
        <time>2020-07-10T15:24:29.290Z</time>
      </trkpt>
      <trkpt lat="48.599341" lon="16.548587">
        <ele>262.690514</ele>
        <time>2020-07-10T15:24:31.270Z</time>
      </trkpt>
      <trkpt lat="48.599451" lon="16.548547">
        <ele>262.881445</ele>
        <time>2020-07-10T15:24:33.258Z</time>
      </trkpt>
      <trkpt lat="48.599563" lon="16.548512">
        <ele>263.074453</ele>
        <time>2020-07-10T15:24:35.262Z</time>
      </trkpt>
      <trkpt lat="48.599674" lon="16.548479">
        <ele>263.265365</ele>
        <time>2020-07-10T15:24:37.268Z</time>
      </trkpt>
      <trkpt lat="48.599786" lon="16.548447">
        <ele>263.457724</ele>
        <time>2020-07-10T15:24:39.268Z</time>
      </trkpt>
      <trkpt lat="48.599893" lon="16.548410">
        <ele>263.642961</ele>
        <time>2020-07-10T15:24:41.264Z</time>
      </trkpt>
      <trkpt lat="48.599997" lon="16.548378">
        <ele>263.822070</ele>
        <time>2020-07-10T15:24:43.263Z</time>
      </trkpt>
      <trkpt lat="48.600101" lon="16.548348">
        <ele>264.000748</ele>
        <time>2020-07-10T15:24:45.251Z</time>
      </trkpt>
      <trkpt lat="48.600199" lon="16.548317">
        <ele>264.169715</ele>
        <time>2020-07-10T15:24:47.255Z</time>
      </trkpt>
      <trkpt lat="48.600294" lon="16.548287">
        <ele>264.333498</ele>
        <time>2020-07-10T15:24:49.273Z</time>
      </trkpt>
      <trkpt lat="48.600387" lon="16.548258">
        <ele>264.461436</ele>
        <time>2020-07-10T15:24:51.273Z</time>
      </trkpt>
      <trkpt lat="48.600479" lon="16.548230">
        <ele>264.551141</ele>
        <time>2020-07-10T15:24:53.282Z</time>
      </trkpt>
      <trkpt lat="48.600573" lon="16.548198">
        <ele>264.643242</ele>
        <time>2020-07-10T15:24:55.279Z</time>
      </trkpt>
      <trkpt lat="48.600668" lon="16.548151">
        <ele>264.738788</ele>
        <time>2020-07-10T15:24:57.269Z</time>
      </trkpt>
      <trkpt lat="48.600762" lon="16.548102">
        <ele>264.833829</ele>
        <time>2020-07-10T15:24:59.263Z</time>
      </trkpt>
      <trkpt lat="48.600856" lon="16.548051">
        <ele>264.929291</ele>
        <time>2020-07-10T15:25:01.272Z</time>
      </trkpt>
      <trkpt lat="48.600951" lon="16.547988">
        <ele>265.028448</ele>
        <time>2020-07-10T15:25:03.254Z</time>
      </trkpt>
      <trkpt lat="48.601044" lon="16.547905">
        <ele>265.131673</ele>
        <time>2020-07-10T15:25:05.258Z</time>
      </trkpt>
      <trkpt lat="48.601138" lon="16.547819">
        <ele>265.236691</ele>
        <time>2020-07-10T15:25:07.250Z</time>
      </trkpt>
      <trkpt lat="48.601227" lon="16.547724">
        <ele>265.340824</ele>
        <time>2020-07-10T15:25:09.265Z</time>
      </trkpt>
      <trkpt lat="48.601308" lon="16.547628">
        <ele>265.439197</ele>
        <time>2020-07-10T15:25:11.262Z</time>
      </trkpt>
      <trkpt lat="48.601383" lon="16.547526">
        <ele>265.535617</ele>
        <time>2020-07-10T15:25:13.286Z</time>
      </trkpt>
      <trkpt lat="48.601459" lon="16.547416">
        <ele>265.636177</ele>
        <time>2020-07-10T15:25:15.255Z</time>
      </trkpt>
      <trkpt lat="48.601542" lon="16.547302">
        <ele>265.743357</ele>
        <time>2020-07-10T15:25:17.257Z</time>
      </trkpt>
      <trkpt lat="48.601632" lon="16.547199">
        <ele>265.851246</ele>
        <time>2020-07-10T15:25:19.283Z</time>
      </trkpt>
      <trkpt lat="48.601716" lon="16.547076">
        <ele>265.963014</ele>
        <time>2020-07-10T15:25:21.256Z</time>
      </trkpt>
      <trkpt lat="48.601805" lon="16.546950">
        <ele>266.079552</ele>
        <time>2020-07-10T15:25:23.272Z</time>
      </trkpt>
      <trkpt lat="48.601894" lon="16.546820">
        <ele>266.162781</ele>
        <time>2020-07-10T15:25:25.275Z</time>
      </trkpt>
      <trkpt lat="48.601984" lon="16.546689">
        <ele>266.211631</ele>
        <time>2020-07-10T15:25:27.284Z</time>
      </trkpt>
      <trkpt lat="48.602070" lon="16.546564">
        <ele>266.258277</ele>
        <time>2020-07-10T15:25:29.258Z</time>
      </trkpt>
      <trkpt lat="48.602158" lon="16.546438">
        <ele>266.305668</ele>
        <time>2020-07-10T15:25:31.276Z</time>
      </trkpt>
      <trkpt lat="48.602249" lon="16.546307">
        <ele>266.354800</ele>
        <time>2020-07-10T15:25:33.258Z</time>
      </trkpt>
      <trkpt lat="48.602340" lon="16.546178">
        <ele>266.403577</ele>
        <time>2020-07-10T15:25:35.275Z</time>
      </trkpt>
      <trkpt lat="48.602428" lon="16.546054">
        <ele>266.450614</ele>
        <time>2020-07-10T15:25:37.266Z</time>
      </trkpt>
      <trkpt lat="48.602512" lon="16.545936">
        <ele>266.495449</ele>
        <time>2020-07-10T15:25:39.293Z</time>
      </trkpt>
      <trkpt lat="48.602593" lon="16.545825">
        <ele>266.538195</ele>
        <time>2020-07-10T15:25:41.281Z</time>
      </trkpt>
      <trkpt lat="48.602670" lon="16.545712">
        <ele>266.580154</ele>
        <time>2020-07-10T15:25:43.276Z</time>
      </trkpt>
      <trkpt lat="48.602751" lon="16.545595">
        <ele>266.623958</ele>
        <time>2020-07-10T15:25:45.283Z</time>
      </trkpt>
      <trkpt lat="48.602837" lon="16.545476">
        <ele>266.669543</ele>
        <time>2020-07-10T15:25:47.278Z</time>
      </trkpt>
      <trkpt lat="48.602920" lon="16.545358">
        <ele>266.714091</ele>
        <time>2020-07-10T15:25:49.271Z</time>
      </trkpt>
      <trkpt lat="48.603000" lon="16.545242">
        <ele>266.757433</ele>
        <time>2020-07-10T15:25:51.297Z</time>
      </trkpt>
      <trkpt lat="48.603086" lon="16.545125">
        <ele>266.802671</ele>
        <time>2020-07-10T15:25:53.266Z</time>
      </trkpt>
      <trkpt lat="48.603175" lon="16.545005">
        <ele>266.859005</ele>
        <time>2020-07-10T15:25:55.257Z</time>
      </trkpt>
      <trkpt lat="48.603264" lon="16.544882">
        <ele>266.967835</ele>
        <time>2020-07-10T15:25:57.272Z</time>
      </trkpt>
      <trkpt lat="48.603345" lon="16.544763">
        <ele>267.069771</ele>
        <time>2020-07-10T15:25:59.270Z</time>
      </trkpt>
      <trkpt lat="48.603426" lon="16.544648">
        <ele>267.170059</ele>
        <time>2020-07-10T15:26:01.299Z</time>
      </trkpt>
      <trkpt lat="48.603498" lon="16.544547">
        <ele>267.258705</ele>
        <time>2020-07-10T15:26:03.258Z</time>
      </trkpt>
      <trkpt lat="48.603576" lon="16.544437">
        <ele>267.354976</ele>
        <time>2020-07-10T15:26:05.280Z</time>
      </trkpt>
      <trkpt lat="48.603657" lon="16.544320">
        <ele>267.456083</ele>
        <time>2020-07-10T15:26:07.271Z</time>
      </trkpt>
      <trkpt lat="48.603744" lon="16.544200">
        <ele>267.562373</ele>
        <time>2020-07-10T15:26:09.287Z</time>
      </trkpt>
      <trkpt lat="48.603844" lon="16.544101">
        <ele>267.670259</ele>
        <time>2020-07-10T15:26:11.303Z</time>
      </trkpt>
      <trkpt lat="48.603952" lon="16.544035">
        <ele>267.775404</ele>
        <time>2020-07-10T15:26:13.281Z</time>
      </trkpt>
      <trkpt lat="48.604060" lon="16.543982">
        <ele>267.877895</ele>
        <time>2020-07-10T15:26:15.288Z</time>
      </trkpt>
      <trkpt lat="48.604163" lon="16.543931">
        <ele>267.975724</ele>
        <time>2020-07-10T15:26:17.265Z</time>
      </trkpt>
      <trkpt lat="48.604262" lon="16.543884">
        <ele>268.069386</ele>
        <time>2020-07-10T15:26:19.292Z</time>
      </trkpt>
      <trkpt lat="48.604359" lon="16.543833">
        <ele>268.162084</ele>
        <time>2020-07-10T15:26:21.286Z</time>
      </trkpt>
      <trkpt lat="48.604462" lon="16.543791">
        <ele>268.258377</ele>
        <time>2020-07-10T15:26:23.307Z</time>
      </trkpt>
      <trkpt lat="48.604564" lon="16.543752">
        <ele>268.353344</ele>
        <time>2020-07-10T15:26:25.275Z</time>
      </trkpt>
      <trkpt lat="48.604666" lon="16.543712">
        <ele>268.448459</ele>
        <time>2020-07-10T15:26:27.265Z</time>
      </trkpt>
      <trkpt lat="48.604761" lon="16.543652">
        <ele>268.558060</ele>
        <time>2020-07-10T15:26:29.278Z</time>
      </trkpt>
      <trkpt lat="48.604851" lon="16.543575">
        <ele>268.671882</ele>
        <time>2020-07-10T15:26:31.283Z</time>
      </trkpt>
      <trkpt lat="48.604935" lon="16.543484">
        <ele>268.785620</ele>
        <time>2020-07-10T15:26:33.270Z</time>
      </trkpt>
      <trkpt lat="48.605022" lon="16.543390">
        <ele>268.903315</ele>
        <time>2020-07-10T15:26:35.259Z</time>
      </trkpt>
      <trkpt lat="48.605116" lon="16.543300">
        <ele>269.025778</ele>
        <time>2020-07-10T15:26:37.255Z</time>
      </trkpt>
      <trkpt lat="48.605206" lon="16.543202">
        <ele>269.147852</ele>
        <time>2020-07-10T15:26:39.261Z</time>
      </trkpt>
      <trkpt lat="48.605295" lon="16.543108">
        <ele>269.267345</ele>
        <time>2020-07-10T15:26:41.279Z</time>
      </trkpt>
      <trkpt lat="48.605384" lon="16.543010">
        <ele>269.388527</ele>
        <time>2020-07-10T15:26:43.318Z</time>
      </trkpt>
      <trkpt lat="48.605477" lon="16.542908">
        <ele>269.514984</ele>
        <time>2020-07-10T15:26:45.264Z</time>
      </trkpt>
      <trkpt lat="48.605572" lon="16.542803">
        <ele>269.644505</ele>
        <time>2020-07-10T15:26:47.257Z</time>
      </trkpt>
      <trkpt lat="48.605666" lon="16.542700">
        <ele>269.772279</ele>
        <time>2020-07-10T15:26:49.283Z</time>
      </trkpt>
      <trkpt lat="48.605763" lon="16.542601">
        <ele>269.901091</ele>
        <time>2020-07-10T15:26:51.284Z</time>
      </trkpt>
      <trkpt lat="48.605860" lon="16.542510">
        <ele>270.026738</ele>
        <time>2020-07-10T15:26:53.254Z</time>
      </trkpt>
      <trkpt lat="48.605959" lon="16.542431">
        <ele>270.149951</ele>
        <time>2020-07-10T15:26:55.270Z</time>
      </trkpt>
      <trkpt lat="48.606051" lon="16.542332">
        <ele>270.274239</ele>
        <time>2020-07-10T15:26:57.277Z</time>
      </trkpt>
      <trkpt lat="48.606141" lon="16.542233">
        <ele>270.396739</ele>
        <time>2020-07-10T15:26:59.291Z</time>
      </trkpt>
      <trkpt lat="48.606232" lon="16.542142">
        <ele>270.504276</ele>
        <time>2020-07-10T15:27:01.254Z</time>
      </trkpt>
      <trkpt lat="48.606315" lon="16.542059">
        <ele>270.594597</ele>
        <time>2020-07-10T15:27:03.289Z</time>
      </trkpt>
      <trkpt lat="48.606415" lon="16.541970">
        <ele>270.699921</ele>
        <time>2020-07-10T15:27:05.276Z</time>
      </trkpt>
      <trkpt lat="48.606515" lon="16.541882">
        <ele>270.804941</ele>
        <time>2020-07-10T15:27:07.256Z</time>
      </trkpt>
      <trkpt lat="48.606611" lon="16.541799">
        <ele>270.905317</ele>
        <time>2020-07-10T15:27:09.273Z</time>
      </trkpt>
      <trkpt lat="48.606713" lon="16.541709">
        <ele>271.012510</ele>
        <time>2020-07-10T15:27:11.257Z</time>
      </trkpt>
      <trkpt lat="48.606799" lon="16.541631">
        <ele>271.103536</ele>
        <time>2020-07-10T15:27:13.289Z</time>
      </trkpt>
      <trkpt lat="48.606840" lon="16.541486">
        <ele>271.198189</ele>
        <time>2020-07-10T15:27:19.257Z</time>
      </trkpt>
      <trkpt lat="48.606786" lon="16.541331">
        <ele>271.303344</ele>
        <time>2020-07-10T15:27:22.265Z</time>
      </trkpt>
      <trkpt lat="48.606727" lon="16.541163">
        <ele>271.417518</ele>
        <time>2020-07-10T15:27:25.274Z</time>
      </trkpt>
      <trkpt lat="48.606828" lon="16.541021">
        <ele>271.542694</ele>
        <time>2020-07-10T15:27:28.269Z</time>
      </trkpt>
      <trkpt lat="48.606911" lon="16.540935">
        <ele>271.634021</ele>
        <time>2020-07-10T15:27:30.298Z</time>
      </trkpt>
      <trkpt lat="48.606997" lon="16.540868">
        <ele>271.721834</ele>
        <time>2020-07-10T15:27:32.274Z</time>
      </trkpt>
      <trkpt lat="48.607087" lon="16.540807">
        <ele>271.811357</ele>
        <time>2020-07-10T15:27:34.275Z</time>
      </trkpt>
      <trkpt lat="48.607186" lon="16.540746">
        <ele>271.908393</ele>
        <time>2020-07-10T15:27:36.273Z</time>
      </trkpt>
      <trkpt lat="48.607281" lon="16.540708">
        <ele>271.997592</ele>
        <time>2020-07-10T15:27:38.273Z</time>
      </trkpt>
      <trkpt lat="48.607389" lon="16.540668">
        <ele>272.087553</ele>
        <time>2020-07-10T15:27:40.255Z</time>
      </trkpt>
      <trkpt lat="48.607499" lon="16.540623">
        <ele>272.135907</ele>
        <time>2020-07-10T15:27:42.265Z</time>
      </trkpt>
      <trkpt lat="48.607608" lon="16.540585">
        <ele>272.183372</ele>
        <time>2020-07-10T15:27:44.267Z</time>
      </trkpt>
      <trkpt lat="48.607712" lon="16.540553">
        <ele>272.228406</ele>
        <time>2020-07-10T15:27:46.280Z</time>
      </trkpt>
      <trkpt lat="48.607824" lon="16.540531">
        <ele>272.276330</ele>
        <time>2020-07-10T15:27:48.281Z</time>
      </trkpt>
      <trkpt lat="48.607941" lon="16.540507">
        <ele>272.326432</ele>
        <time>2020-07-10T15:27:50.284Z</time>
      </trkpt>
      <trkpt lat="48.608058" lon="16.540478">
        <ele>272.376741</ele>
        <time>2020-07-10T15:27:52.272Z</time>
      </trkpt>
      <trkpt lat="48.608176" lon="16.540457">
        <ele>272.427157</ele>
        <time>2020-07-10T15:27:54.264Z</time>
      </trkpt>
      <trkpt lat="48.608292" lon="16.540426">
        <ele>272.477142</ele>
        <time>2020-07-10T15:27:56.267Z</time>
      </trkpt>
      <trkpt lat="48.608408" lon="16.540377">
        <ele>272.528248</ele>
        <time>2020-07-10T15:27:58.310Z</time>
      </trkpt>
      <trkpt lat="48.608519" lon="16.540338">
        <ele>272.576603</ele>
        <time>2020-07-10T15:28:00.258Z</time>
      </trkpt>
      <trkpt lat="48.608624" lon="16.540299">
        <ele>272.622482</ele>
        <time>2020-07-10T15:28:02.265Z</time>
      </trkpt>
      <trkpt lat="48.608739" lon="16.540241">
        <ele>272.673922</ele>
        <time>2020-07-10T15:28:04.263Z</time>
      </trkpt>
      <trkpt lat="48.608864" lon="16.540224">
        <ele>272.727177</ele>
        <time>2020-07-10T15:28:06.269Z</time>
      </trkpt>
      <trkpt lat="48.608970" lon="16.540225">
        <ele>272.772157</ele>
        <time>2020-07-10T15:28:08.274Z</time>
      </trkpt>
      <trkpt lat="48.609082" lon="16.540180">
        <ele>272.821330</ele>
        <time>2020-07-10T15:28:10.263Z</time>
      </trkpt>
      <trkpt lat="48.609209" lon="16.540137">
        <ele>272.865935</ele>
        <time>2020-07-10T15:28:12.252Z</time>
      </trkpt>
      <trkpt lat="48.609323" lon="16.540090">
        <ele>272.901038</ele>
        <time>2020-07-10T15:28:14.291Z</time>
      </trkpt>
      <trkpt lat="48.609437" lon="16.540042">
        <ele>272.936193</ele>
        <time>2020-07-10T15:28:16.268Z</time>
      </trkpt>
      <trkpt lat="48.609551" lon="16.539992">
        <ele>272.971455</ele>
        <time>2020-07-10T15:28:18.272Z</time>
      </trkpt>
      <trkpt lat="48.609663" lon="16.539943">
        <ele>273.006092</ele>
        <time>2020-07-10T15:28:20.265Z</time>
      </trkpt>
      <trkpt lat="48.609774" lon="16.539900">
        <ele>273.040132</ele>
        <time>2020-07-10T15:28:22.291Z</time>
      </trkpt>
      <trkpt lat="48.609871" lon="16.539824">
        <ele>273.072586</ele>
        <time>2020-07-10T15:28:24.283Z</time>
      </trkpt>
      <trkpt lat="48.609961" lon="16.539731">
        <ele>273.104968</ele>
        <time>2020-07-10T15:28:26.255Z</time>
      </trkpt>
      <trkpt lat="48.610054" lon="16.539616">
        <ele>273.140655</ele>
        <time>2020-07-10T15:28:28.283Z</time>
      </trkpt>
      <trkpt lat="48.610133" lon="16.539480">
        <ele>273.176214</ele>
        <time>2020-07-10T15:28:30.262Z</time>
      </trkpt>
      <trkpt lat="48.610217" lon="16.539343">
        <ele>273.212913</ele>
        <time>2020-07-10T15:28:32.290Z</time>
      </trkpt>
      <trkpt lat="48.610299" lon="16.539207">
        <ele>273.249066</ele>
        <time>2020-07-10T15:28:34.271Z</time>
      </trkpt>
      <trkpt lat="48.610377" lon="16.539096">
        <ele>273.280883</ele>
        <time>2020-07-10T15:28:36.259Z</time>
      </trkpt>
      <trkpt lat="48.610459" lon="16.538982">
        <ele>273.313972</ele>
        <time>2020-07-10T15:28:38.267Z</time>
      </trkpt>
      <trkpt lat="48.610549" lon="16.538854">
        <ele>273.350673</ele>
        <time>2020-07-10T15:28:40.260Z</time>
      </trkpt>
      <trkpt lat="48.610640" lon="16.538729">
        <ele>273.381615</ele>
        <time>2020-07-10T15:28:42.282Z</time>
      </trkpt>
      <trkpt lat="48.610728" lon="16.538608">
        <ele>273.400116</ele>
        <time>2020-07-10T15:28:44.309Z</time>
      </trkpt>
      <trkpt lat="48.610812" lon="16.538486">
        <ele>273.418233</ele>
        <time>2020-07-10T15:28:46.260Z</time>
      </trkpt>
      <trkpt lat="48.610878" lon="16.538356">
        <ele>273.435092</ele>
        <time>2020-07-10T15:28:48.290Z</time>
      </trkpt>
      <trkpt lat="48.610916" lon="16.538208">
        <ele>273.451422</ele>
        <time>2020-07-10T15:28:50.295Z</time>
      </trkpt>
      <trkpt lat="48.610960" lon="16.538054">
        <ele>273.468678</ele>
        <time>2020-07-10T15:28:52.291Z</time>
      </trkpt>
      <trkpt lat="48.610993" lon="16.537907">
        <ele>273.484646</ele>
        <time>2020-07-10T15:28:54.297Z</time>
      </trkpt>
      <trkpt lat="48.611027" lon="16.537750">
        <ele>273.501638</ele>
        <time>2020-07-10T15:28:56.287Z</time>
      </trkpt>
      <trkpt lat="48.611069" lon="16.537586">
        <ele>273.519728</ele>
        <time>2020-07-10T15:28:58.279Z</time>
      </trkpt>
      <trkpt lat="48.611109" lon="16.537435">
        <ele>273.536459</ele>
        <time>2020-07-10T15:29:00.261Z</time>
      </trkpt>
      <trkpt lat="48.611148" lon="16.537279">
        <ele>273.553614</ele>
        <time>2020-07-10T15:29:02.288Z</time>
      </trkpt>
      <trkpt lat="48.611191" lon="16.537121">
        <ele>273.571188</ele>
        <time>2020-07-10T15:29:04.294Z</time>
      </trkpt>
      <trkpt lat="48.611231" lon="16.536976">
        <ele>273.587348</ele>
        <time>2020-07-10T15:29:06.275Z</time>
      </trkpt>
      <trkpt lat="48.611278" lon="16.536832">
        <ele>273.603866</ele>
        <time>2020-07-10T15:29:08.269Z</time>
      </trkpt>
      <trkpt lat="48.611338" lon="16.536693">
        <ele>273.620940</ele>
        <time>2020-07-10T15:29:10.261Z</time>
      </trkpt>
      <trkpt lat="48.611400" lon="16.536558">
        <ele>273.637846</ele>
        <time>2020-07-10T15:29:12.295Z</time>
      </trkpt>
      <trkpt lat="48.611468" lon="16.536435">
        <ele>273.654338</ele>
        <time>2020-07-10T15:29:14.267Z</time>
      </trkpt>
      <trkpt lat="48.611537" lon="16.536305">
        <ele>273.658001</ele>
        <time>2020-07-10T15:29:16.254Z</time>
      </trkpt>
      <trkpt lat="48.611620" lon="16.536197">
        <ele>273.660849</ele>
        <time>2020-07-10T15:29:18.282Z</time>
      </trkpt>
      <trkpt lat="48.611702" lon="16.536081">
        <ele>273.663770</ele>
        <time>2020-07-10T15:29:20.278Z</time>
      </trkpt>
      <trkpt lat="48.611782" lon="16.535953">
        <ele>273.666800</ele>
        <time>2020-07-10T15:29:22.291Z</time>
      </trkpt>
      <trkpt lat="48.611863" lon="16.535824">
        <ele>273.669860</ele>
        <time>2020-07-10T15:29:24.278Z</time>
      </trkpt>
      <trkpt lat="48.611939" lon="16.535693">
        <ele>273.672858</ele>
        <time>2020-07-10T15:29:26.270Z</time>
      </trkpt>
      <trkpt lat="48.612019" lon="16.535574">
        <ele>273.675777</ele>
        <time>2020-07-10T15:29:28.256Z</time>
      </trkpt>
      <trkpt lat="48.612101" lon="16.535458">
        <ele>273.678698</ele>
        <time>2020-07-10T15:29:30.268Z</time>
      </trkpt>
      <trkpt lat="48.612185" lon="16.535341">
        <ele>273.681669</ele>
        <time>2020-07-10T15:29:32.262Z</time>
      </trkpt>
      <trkpt lat="48.612268" lon="16.535233">
        <ele>273.684517</ele>
        <time>2020-07-10T15:29:34.330Z</time>
      </trkpt>
      <trkpt lat="48.612338" lon="16.535099">
        <ele>273.687455</ele>
        <time>2020-07-10T15:29:36.321Z</time>
      </trkpt>
      <trkpt lat="48.612409" lon="16.534968">
        <ele>273.690369</ele>
        <time>2020-07-10T15:29:38.306Z</time>
      </trkpt>
      <trkpt lat="48.612466" lon="16.534827">
        <ele>273.693211</ele>
        <time>2020-07-10T15:29:40.273Z</time>
      </trkpt>
      <trkpt lat="48.612521" lon="16.534686">
        <ele>273.696027</ele>
        <time>2020-07-10T15:29:42.253Z</time>
      </trkpt>
      <trkpt lat="48.612572" lon="16.534540">
        <ele>273.698867</ele>
        <time>2020-07-10T15:29:44.277Z</time>
      </trkpt>
      <trkpt lat="48.612615" lon="16.534388">
        <ele>273.701711</ele>
        <time>2020-07-10T15:29:46.270Z</time>
      </trkpt>
      <trkpt lat="48.612655" lon="16.534237">
        <ele>273.705704</ele>
        <time>2020-07-10T15:29:48.317Z</time>
      </trkpt>
      <trkpt lat="48.612693" lon="16.534086">
        <ele>273.709855</ele>
        <time>2020-07-10T15:29:50.287Z</time>
      </trkpt>
      <trkpt lat="48.612732" lon="16.533929">
        <ele>273.714163</ele>
        <time>2020-07-10T15:29:52.275Z</time>
      </trkpt>
      <trkpt lat="48.612773" lon="16.533772">
        <ele>273.718499</ele>
        <time>2020-07-10T15:29:54.261Z</time>
      </trkpt>
      <trkpt lat="48.612812" lon="16.533623">
        <ele>273.722615</ele>
        <time>2020-07-10T15:29:56.302Z</time>
      </trkpt>
      <trkpt lat="48.612853" lon="16.533477">
        <ele>273.726690</ele>
        <time>2020-07-10T15:29:58.270Z</time>
      </trkpt>
      <trkpt lat="48.612889" lon="16.533331">
        <ele>273.730693</ele>
        <time>2020-07-10T15:30:00.263Z</time>
      </trkpt>
      <trkpt lat="48.612925" lon="16.533186">
        <ele>273.734671</ele>
        <time>2020-07-10T15:30:02.276Z</time>
      </trkpt>
      <trkpt lat="48.612960" lon="16.533036">
        <ele>273.738757</ele>
        <time>2020-07-10T15:30:04.302Z</time>
      </trkpt>
      <trkpt lat="48.612995" lon="16.532891">
        <ele>273.742723</ele>
        <time>2020-07-10T15:30:06.275Z</time>
      </trkpt>
      <trkpt lat="48.613032" lon="16.532745">
        <ele>273.746739</ele>
        <time>2020-07-10T15:30:08.282Z</time>
      </trkpt>
      <trkpt lat="48.613066" lon="16.532599">
        <ele>273.750715</ele>
        <time>2020-07-10T15:30:10.265Z</time>
      </trkpt>
      <trkpt lat="48.613099" lon="16.532451">
        <ele>273.754727</ele>
        <time>2020-07-10T15:30:12.255Z</time>
      </trkpt>
      <trkpt lat="48.613124" lon="16.532300">
        <ele>273.758726</ele>
        <time>2020-07-10T15:30:14.261Z</time>
      </trkpt>
      <trkpt lat="48.613151" lon="16.532150">
        <ele>273.762719</ele>
        <time>2020-07-10T15:30:16.274Z</time>
      </trkpt>
      <trkpt lat="48.613178" lon="16.531990">
        <ele>273.766961</ele>
        <time>2020-07-10T15:30:18.258Z</time>
      </trkpt>
      <trkpt lat="48.613203" lon="16.531820">
        <ele>273.771434</ele>
        <time>2020-07-10T15:30:20.284Z</time>
      </trkpt>
      <trkpt lat="48.613228" lon="16.531650">
        <ele>273.777074</ele>
        <time>2020-07-10T15:30:22.273Z</time>
      </trkpt>
      <trkpt lat="48.613254" lon="16.531486">
        <ele>273.782690</ele>
        <time>2020-07-10T15:30:24.280Z</time>
      </trkpt>
      <trkpt lat="48.613278" lon="16.531325">
        <ele>273.788185</ele>
        <time>2020-07-10T15:30:26.272Z</time>
      </trkpt>
      <trkpt lat="48.613294" lon="16.531170">
        <ele>273.793408</ele>
        <time>2020-07-10T15:30:28.257Z</time>
      </trkpt>
      <trkpt lat="48.613314" lon="16.531001">
        <ele>273.799125</ele>
        <time>2020-07-10T15:30:30.266Z</time>
      </trkpt>
      <trkpt lat="48.613334" lon="16.530825">
        <ele>273.805071</ele>
        <time>2020-07-10T15:30:32.272Z</time>
      </trkpt>
      <trkpt lat="48.613343" lon="16.530655">
        <ele>273.810749</ele>
        <time>2020-07-10T15:30:34.267Z</time>
      </trkpt>
      <trkpt lat="48.613361" lon="16.530477">
        <ele>273.816744</ele>
        <time>2020-07-10T15:30:36.265Z</time>
      </trkpt>
      <trkpt lat="48.613384" lon="16.530304">
        <ele>273.822620</ele>
        <time>2020-07-10T15:30:38.284Z</time>
      </trkpt>
      <trkpt lat="48.613412" lon="16.530133">
        <ele>273.828485</ele>
        <time>2020-07-10T15:30:40.279Z</time>
      </trkpt>
      <trkpt lat="48.613438" lon="16.529960">
        <ele>273.834392</ele>
        <time>2020-07-10T15:30:42.269Z</time>
      </trkpt>
      <trkpt lat="48.613474" lon="16.529803">
        <ele>273.839925</ele>
        <time>2020-07-10T15:30:44.297Z</time>
      </trkpt>
      <trkpt lat="48.613512" lon="16.529645">
        <ele>273.845523</ele>
        <time>2020-07-10T15:30:46.319Z</time>
      </trkpt>
      <trkpt lat="48.613546" lon="16.529483">
        <ele>273.851182</ele>
        <time>2020-07-10T15:30:48.278Z</time>
      </trkpt>
      <trkpt lat="48.613582" lon="16.529320">
        <ele>273.856904</ele>
        <time>2020-07-10T15:30:50.273Z</time>
      </trkpt>
      <trkpt lat="48.613615" lon="16.529154">
        <ele>273.863348</ele>
        <time>2020-07-10T15:30:52.298Z</time>
      </trkpt>
      <trkpt lat="48.613645" lon="16.528988">
        <ele>273.899897</ele>
        <time>2020-07-10T15:30:54.271Z</time>
      </trkpt>
      <trkpt lat="48.613678" lon="16.528826">
        <ele>273.935899</ele>
        <time>2020-07-10T15:30:56.276Z</time>
      </trkpt>
      <trkpt lat="48.613701" lon="16.528674">
        <ele>273.969016</ele>
        <time>2020-07-10T15:30:58.279Z</time>
      </trkpt>
      <trkpt lat="48.613735" lon="16.528508">
        <ele>274.005925</ele>
        <time>2020-07-10T15:31:00.276Z</time>
      </trkpt>
      <trkpt lat="48.613762" lon="16.528348">
        <ele>274.040995</ele>
        <time>2020-07-10T15:31:02.263Z</time>
      </trkpt>
      <trkpt lat="48.613801" lon="16.528186">
        <ele>274.077611</ele>
        <time>2020-07-10T15:31:04.305Z</time>
      </trkpt>
      <trkpt lat="48.613855" lon="16.528026">
        <ele>274.115764</ele>
        <time>2020-07-10T15:31:06.311Z</time>
      </trkpt>
      <trkpt lat="48.613921" lon="16.527881">
        <ele>274.153152</ele>
        <time>2020-07-10T15:31:08.284Z</time>
      </trkpt>
      <trkpt lat="48.614000" lon="16.527762">
        <ele>274.188968</ele>
        <time>2020-07-10T15:31:10.293Z</time>
      </trkpt>
      <trkpt lat="48.614090" lon="16.527666">
        <ele>274.224346</ele>
        <time>2020-07-10T15:31:12.258Z</time>
      </trkpt>
      <trkpt lat="48.614184" lon="16.527584">
        <ele>274.259204</ele>
        <time>2020-07-10T15:31:14.284Z</time>
      </trkpt>
      <trkpt lat="48.614284" lon="16.527516">
        <ele>274.294426</ele>
        <time>2020-07-10T15:31:16.276Z</time>
      </trkpt>
      <trkpt lat="48.614389" lon="16.527461">
        <ele>274.330121</ele>
        <time>2020-07-10T15:31:18.287Z</time>
      </trkpt>
      <trkpt lat="48.614494" lon="16.527397">
        <ele>274.366487</ele>
        <time>2020-07-10T15:31:20.254Z</time>
      </trkpt>
      <trkpt lat="48.614600" lon="16.527334">
        <ele>274.403073</ele>
        <time>2020-07-10T15:31:22.280Z</time>
      </trkpt>
      <trkpt lat="48.614705" lon="16.527271">
        <ele>274.439360</ele>
        <time>2020-07-10T15:31:24.282Z</time>
      </trkpt>
      <trkpt lat="48.614810" lon="16.527207">
        <ele>274.514748</ele>
        <time>2020-07-10T15:31:26.268Z</time>
      </trkpt>
      <trkpt lat="48.614916" lon="16.527144">
        <ele>274.591689</ele>
        <time>2020-07-10T15:31:28.283Z</time>
      </trkpt>
      <trkpt lat="48.615020" lon="16.527090">
        <ele>274.665973</ele>
        <time>2020-07-10T15:31:30.257Z</time>
      </trkpt>
      <trkpt lat="48.615126" lon="16.527040">
        <ele>274.740986</ele>
        <time>2020-07-10T15:31:32.291Z</time>
      </trkpt>
      <trkpt lat="48.615230" lon="16.526989">
        <ele>274.814846</ele>
        <time>2020-07-10T15:31:34.301Z</time>
      </trkpt>
      <trkpt lat="48.615331" lon="16.526940">
        <ele>274.886503</ele>
        <time>2020-07-10T15:31:36.297Z</time>
      </trkpt>
      <trkpt lat="48.615432" lon="16.526902">
        <ele>274.956815</ele>
        <time>2020-07-10T15:31:38.290Z</time>
      </trkpt>
      <trkpt lat="48.615534" lon="16.526868">
        <ele>275.027377</ele>
        <time>2020-07-10T15:31:40.257Z</time>
      </trkpt>
      <trkpt lat="48.615631" lon="16.526831">
        <ele>275.094959</ele>
        <time>2020-07-10T15:31:42.283Z</time>
      </trkpt>
      <trkpt lat="48.615719" lon="16.526796">
        <ele>275.156431</ele>
        <time>2020-07-10T15:31:44.279Z</time>
      </trkpt>
      <trkpt lat="48.615828" lon="16.526755">
        <ele>275.232311</ele>
        <time>2020-07-10T15:31:47.300Z</time>
      </trkpt>
      <trkpt lat="48.615975" lon="16.526735">
        <ele>275.332022</ele>
        <time>2020-07-10T15:32:28.307Z</time>
      </trkpt>
      <trkpt lat="48.616095" lon="16.526694">
        <ele>275.415133</ele>
        <time>2020-07-10T15:32:31.257Z</time>
      </trkpt>
      <trkpt lat="48.616192" lon="16.526663">
        <ele>275.482111</ele>
        <time>2020-07-10T15:32:33.254Z</time>
      </trkpt>
      <trkpt lat="48.616315" lon="16.526625">
        <ele>275.566922</ele>
        <time>2020-07-10T15:32:35.292Z</time>
      </trkpt>
      <trkpt lat="48.616424" lon="16.526598">
        <ele>275.641541</ele>
        <time>2020-07-10T15:32:37.276Z</time>
      </trkpt>
      <trkpt lat="48.616525" lon="16.526572">
        <ele>275.701737</ele>
        <time>2020-07-10T15:32:39.293Z</time>
      </trkpt>
      <trkpt lat="48.616626" lon="16.526542">
        <ele>275.759930</ele>
        <time>2020-07-10T15:32:41.265Z</time>
      </trkpt>
      <trkpt lat="48.616730" lon="16.526487">
        <ele>275.822219</ele>
        <time>2020-07-10T15:32:43.282Z</time>
      </trkpt>
      <trkpt lat="48.616837" lon="16.526431">
        <ele>275.886233</ele>
        <time>2020-07-10T15:32:45.265Z</time>
      </trkpt>
      <trkpt lat="48.616946" lon="16.526375">
        <ele>275.951316</ele>
        <time>2020-07-10T15:32:47.279Z</time>
      </trkpt>
      <trkpt lat="48.617052" lon="16.526312">
        <ele>276.015706</ele>
        <time>2020-07-10T15:32:49.305Z</time>
      </trkpt>
      <trkpt lat="48.617154" lon="16.526247">
        <ele>276.078282</ele>
        <time>2020-07-10T15:32:51.265Z</time>
      </trkpt>
      <trkpt lat="48.617255" lon="16.526175">
        <ele>276.141409</ele>
        <time>2020-07-10T15:32:53.266Z</time>
      </trkpt>
      <trkpt lat="48.617353" lon="16.526095">
        <ele>276.204369</ele>
        <time>2020-07-10T15:32:55.268Z</time>
      </trkpt>
      <trkpt lat="48.617449" lon="16.526013">
        <ele>276.266700</ele>
        <time>2020-07-10T15:32:57.271Z</time>
      </trkpt>
      <trkpt lat="48.617542" lon="16.525928">
        <ele>276.328132</ele>
        <time>2020-07-10T15:32:59.296Z</time>
      </trkpt>
      <trkpt lat="48.617636" lon="16.525852">
        <ele>276.388393</ele>
        <time>2020-07-10T15:33:01.300Z</time>
      </trkpt>
      <trkpt lat="48.617731" lon="16.525775">
        <ele>276.449328</ele>
        <time>2020-07-10T15:33:03.262Z</time>
      </trkpt>
      <trkpt lat="48.617828" lon="16.525697">
        <ele>276.511436</ele>
        <time>2020-07-10T15:33:05.276Z</time>
      </trkpt>
      <trkpt lat="48.617921" lon="16.525610">
        <ele>276.573258</ele>
        <time>2020-07-10T15:33:07.268Z</time>
      </trkpt>
      <trkpt lat="48.618016" lon="16.525511">
        <ele>276.638481</ele>
        <time>2020-07-10T15:33:09.287Z</time>
      </trkpt>
      <trkpt lat="48.618111" lon="16.525406">
        <ele>276.692940</ele>
        <time>2020-07-10T15:33:11.308Z</time>
      </trkpt>
      <trkpt lat="48.618203" lon="16.525299">
        <ele>276.734296</ele>
        <time>2020-07-10T15:33:13.321Z</time>
      </trkpt>
      <trkpt lat="48.618286" lon="16.525185">
        <ele>276.774248</ele>
        <time>2020-07-10T15:33:15.275Z</time>
      </trkpt>
      <trkpt lat="48.618363" lon="16.525062">
        <ele>276.814156</ele>
        <time>2020-07-10T15:33:17.278Z</time>
      </trkpt>
      <trkpt lat="48.618430" lon="16.524921">
        <ele>276.855064</ele>
        <time>2020-07-10T15:33:19.252Z</time>
      </trkpt>
      <trkpt lat="48.618484" lon="16.524764">
        <ele>276.896757</ele>
        <time>2020-07-10T15:33:21.263Z</time>
      </trkpt>
      <trkpt lat="48.618524" lon="16.524609">
        <ele>276.935956</ele>
        <time>2020-07-10T15:33:23.248Z</time>
      </trkpt>
      <trkpt lat="48.618552" lon="16.524450">
        <ele>276.974720</ele>
        <time>2020-07-10T15:33:25.271Z</time>
      </trkpt>
      <trkpt lat="48.618576" lon="16.524290">
        <ele>277.013371</ele>
        <time>2020-07-10T15:33:27.274Z</time>
      </trkpt>
      <trkpt lat="48.618599" lon="16.524134">
        <ele>277.051025</ele>
        <time>2020-07-10T15:33:29.272Z</time>
      </trkpt>
      <trkpt lat="48.618622" lon="16.523988">
        <ele>277.086383</ele>
        <time>2020-07-10T15:33:31.264Z</time>
      </trkpt>
      <trkpt lat="48.618649" lon="16.523831">
        <ele>277.124601</ele>
        <time>2020-07-10T15:33:33.277Z</time>
      </trkpt>
      <trkpt lat="48.618680" lon="16.523672">
        <ele>277.163653</ele>
        <time>2020-07-10T15:33:35.263Z</time>
      </trkpt>
      <trkpt lat="48.618710" lon="16.523520">
        <ele>277.201024</ele>
        <time>2020-07-10T15:33:37.282Z</time>
      </trkpt>
      <trkpt lat="48.618739" lon="16.523379">
        <ele>277.235811</ele>
        <time>2020-07-10T15:33:39.264Z</time>
      </trkpt>
      <trkpt lat="48.618767" lon="16.523244">
        <ele>277.269143</ele>
        <time>2020-07-10T15:33:41.276Z</time>
      </trkpt>
      <trkpt lat="48.618792" lon="16.523110">
        <ele>277.301945</ele>
        <time>2020-07-10T15:33:43.287Z</time>
      </trkpt>
      <trkpt lat="48.618826" lon="16.522917">
        <ele>277.352262</ele>
        <time>2020-07-10T15:33:46.267Z</time>
      </trkpt>
      <trkpt lat="48.618852" lon="16.522784">
        <ele>277.387927</ele>
        <time>2020-07-10T15:33:48.272Z</time>
      </trkpt>
      <trkpt lat="48.618874" lon="16.522650">
        <ele>277.423432</ele>
        <time>2020-07-10T15:33:50.282Z</time>
      </trkpt>
      <trkpt lat="48.618895" lon="16.522510">
        <ele>277.460348</ele>
        <time>2020-07-10T15:33:52.316Z</time>
      </trkpt>
      <trkpt lat="48.618913" lon="16.522375">
        <ele>277.495763</ele>
        <time>2020-07-10T15:33:54.275Z</time>
      </trkpt>
      <trkpt lat="48.618934" lon="16.522238">
        <ele>277.531927</ele>
        <time>2020-07-10T15:33:56.273Z</time>
      </trkpt>
      <trkpt lat="48.618967" lon="16.522098">
        <ele>277.570148</ele>
        <time>2020-07-10T15:33:58.310Z</time>
      </trkpt>
      <trkpt lat="48.619003" lon="16.521965">
        <ele>277.607105</ele>
        <time>2020-07-10T15:34:00.257Z</time>
      </trkpt>
      <trkpt lat="48.619042" lon="16.521834">
        <ele>277.644050</ele>
        <time>2020-07-10T15:34:02.281Z</time>
      </trkpt>
      <trkpt lat="48.619086" lon="16.521699">
        <ele>277.682755</ele>
        <time>2020-07-10T15:34:04.297Z</time>
      </trkpt>
      <trkpt lat="48.619135" lon="16.521581">
        <ele>277.718589</ele>
        <time>2020-07-10T15:34:06.299Z</time>
      </trkpt>
      <trkpt lat="48.619214" lon="16.521423">
        <ele>277.769531</ele>
        <time>2020-07-10T15:34:09.267Z</time>
      </trkpt>
      <trkpt lat="48.619303" lon="16.521274">
        <ele>277.821170</ele>
        <time>2020-07-10T15:34:12.300Z</time>
      </trkpt>
      <trkpt lat="48.619373" lon="16.521181">
        <ele>277.857411</ele>
        <time>2020-07-10T15:34:14.296Z</time>
      </trkpt>
      <trkpt lat="48.619441" lon="16.521083">
        <ele>277.893945</ele>
        <time>2020-07-10T15:34:16.285Z</time>
      </trkpt>
      <trkpt lat="48.619508" lon="16.520975">
        <ele>277.932031</ele>
        <time>2020-07-10T15:34:18.278Z</time>
      </trkpt>
      <trkpt lat="48.619575" lon="16.520871">
        <ele>277.969373</ele>
        <time>2020-07-10T15:34:20.276Z</time>
      </trkpt>
      <trkpt lat="48.619641" lon="16.520771">
        <ele>278.005710</ele>
        <time>2020-07-10T15:34:22.263Z</time>
      </trkpt>
      <trkpt lat="48.619710" lon="16.520671">
        <ele>278.060013</ele>
        <time>2020-07-10T15:34:24.276Z</time>
      </trkpt>
      <trkpt lat="48.619782" lon="16.520570">
        <ele>278.120119</ele>
        <time>2020-07-10T15:34:26.267Z</time>
      </trkpt>
      <trkpt lat="48.619853" lon="16.520468">
        <ele>278.180055</ele>
        <time>2020-07-10T15:34:28.276Z</time>
      </trkpt>
      <trkpt lat="48.619922" lon="16.520359">
        <ele>278.241123</ele>
        <time>2020-07-10T15:34:30.267Z</time>
      </trkpt>
      <trkpt lat="48.619991" lon="16.520250">
        <ele>278.302190</ele>
        <time>2020-07-10T15:34:32.277Z</time>
      </trkpt>
      <trkpt lat="48.620062" lon="16.520143">
        <ele>278.363537</ele>
        <time>2020-07-10T15:34:34.293Z</time>
      </trkpt>
      <trkpt lat="48.620140" lon="16.520038">
        <ele>278.427449</ele>
        <time>2020-07-10T15:34:36.278Z</time>
      </trkpt>
      <trkpt lat="48.620216" lon="16.519943">
        <ele>278.487797</ele>
        <time>2020-07-10T15:34:38.249Z</time>
      </trkpt>
      <trkpt lat="48.620293" lon="16.519852">
        <ele>278.547609</ele>
        <time>2020-07-10T15:34:40.282Z</time>
      </trkpt>
      <trkpt lat="48.620376" lon="16.519767">
        <ele>278.608962</ele>
        <time>2020-07-10T15:34:42.298Z</time>
      </trkpt>
      <trkpt lat="48.620459" lon="16.519686">
        <ele>278.669423</ele>
        <time>2020-07-10T15:34:44.273Z</time>
      </trkpt>
      <trkpt lat="48.620541" lon="16.519606">
        <ele>278.729150</ele>
        <time>2020-07-10T15:34:46.281Z</time>
      </trkpt>
      <trkpt lat="48.620626" lon="16.519530">
        <ele>278.789589</ele>
        <time>2020-07-10T15:34:48.295Z</time>
      </trkpt>
      <trkpt lat="48.620704" lon="16.519459">
        <ele>278.845311</ele>
        <time>2020-07-10T15:34:50.256Z</time>
      </trkpt>
      <trkpt lat="48.620814" lon="16.519368">
        <ele>278.922055</ele>
        <time>2020-07-10T15:34:53.295Z</time>
      </trkpt>
      <trkpt lat="48.620920" lon="16.519274">
        <ele>278.997266</ele>
        <time>2020-07-10T15:34:56.268Z</time>
      </trkpt>
      <trkpt lat="48.621032" lon="16.519167">
        <ele>279.078350</ele>
        <time>2020-07-10T15:34:59.306Z</time>
      </trkpt>
      <trkpt lat="48.621112" lon="16.519095">
        <ele>279.142510</ele>
        <time>2020-07-10T15:35:01.274Z</time>
      </trkpt>
      <trkpt lat="48.621201" lon="16.519022">
        <ele>279.225338</ele>
        <time>2020-07-10T15:35:03.275Z</time>
      </trkpt>
      <trkpt lat="48.621297" lon="16.518947">
        <ele>279.313733</ele>
        <time>2020-07-10T15:35:05.267Z</time>
      </trkpt>
      <trkpt lat="48.621388" lon="16.518861">
        <ele>279.401516</ele>
        <time>2020-07-10T15:35:07.288Z</time>
      </trkpt>
      <trkpt lat="48.621479" lon="16.518787">
        <ele>279.486040</ele>
        <time>2020-07-10T15:35:09.307Z</time>
      </trkpt>
      <trkpt lat="48.621567" lon="16.518706">
        <ele>279.570314</ele>
        <time>2020-07-10T15:35:11.277Z</time>
      </trkpt>
      <trkpt lat="48.621655" lon="16.518619">
        <ele>279.656320</ele>
        <time>2020-07-10T15:35:13.271Z</time>
      </trkpt>
      <trkpt lat="48.621743" lon="16.518534">
        <ele>279.741739</ele>
        <time>2020-07-10T15:35:15.263Z</time>
      </trkpt>
      <trkpt lat="48.621831" lon="16.518446">
        <ele>279.828042</ele>
        <time>2020-07-10T15:35:17.256Z</time>
      </trkpt>
      <trkpt lat="48.621911" lon="16.518354">
        <ele>279.910256</ele>
        <time>2020-07-10T15:35:19.290Z</time>
      </trkpt>
      <trkpt lat="48.621999" lon="16.518255">
        <ele>279.999976</ele>
        <time>2020-07-10T15:35:21.255Z</time>
      </trkpt>
      <trkpt lat="48.622089" lon="16.518155">
        <ele>280.091334</ele>
        <time>2020-07-10T15:35:23.278Z</time>
      </trkpt>
      <trkpt lat="48.622182" lon="16.518059">
        <ele>280.183445</ele>
        <time>2020-07-10T15:35:25.295Z</time>
      </trkpt>
      <trkpt lat="48.622276" lon="16.517960">
        <ele>280.277150</ele>
        <time>2020-07-10T15:35:27.286Z</time>
      </trkpt>
      <trkpt lat="48.622373" lon="16.517859">
        <ele>280.373489</ele>
        <time>2020-07-10T15:35:29.259Z</time>
      </trkpt>
      <trkpt lat="48.622455" lon="16.517761">
        <ele>280.458983</ele>
        <time>2020-07-10T15:35:31.284Z</time>
      </trkpt>
      <trkpt lat="48.622529" lon="16.517672">
        <ele>280.536326</ele>
        <time>2020-07-10T15:35:33.280Z</time>
      </trkpt>
      <trkpt lat="48.622627" lon="16.517633">
        <ele>280.630201</ele>
        <time>2020-07-10T15:35:37.306Z</time>
      </trkpt>
      <trkpt lat="48.622529" lon="16.517675">
        <ele>280.740650</ele>
        <time>2020-07-10T15:35:42.270Z</time>
      </trkpt>
      <trkpt lat="48.622393" lon="16.517740">
        <ele>280.895306</ele>
        <time>2020-07-10T15:37:11.275Z</time>
      </trkpt>
      <trkpt lat="48.622291" lon="16.517862">
        <ele>281.036304</ele>
        <time>2020-07-10T15:37:14.271Z</time>
      </trkpt>
      <trkpt lat="48.622218" lon="16.517956">
        <ele>281.140254</ele>
        <time>2020-07-10T15:37:16.282Z</time>
      </trkpt>
      <trkpt lat="48.622142" lon="16.518041">
        <ele>281.242741</ele>
        <time>2020-07-10T15:37:18.275Z</time>
      </trkpt>
      <trkpt lat="48.622065" lon="16.518129">
        <ele>281.347384</ele>
        <time>2020-07-10T15:37:20.285Z</time>
      </trkpt>
      <trkpt lat="48.621982" lon="16.518222">
        <ele>281.459384</ele>
        <time>2020-07-10T15:37:22.287Z</time>
      </trkpt>
      <trkpt lat="48.621898" lon="16.518319">
        <ele>281.573973</ele>
        <time>2020-07-10T15:37:24.302Z</time>
      </trkpt>
      <trkpt lat="48.621816" lon="16.518412">
        <ele>281.685104</ele>
        <time>2020-07-10T15:37:26.294Z</time>
      </trkpt>
      <trkpt lat="48.621727" lon="16.518492">
        <ele>281.797362</ele>
        <time>2020-07-10T15:37:28.284Z</time>
      </trkpt>
      <trkpt lat="48.621637" lon="16.518582">
        <ele>281.914349</ele>
        <time>2020-07-10T15:37:30.269Z</time>
      </trkpt>
      <trkpt lat="48.621547" lon="16.518665">
        <ele>282.028645</ele>
        <time>2020-07-10T15:37:32.277Z</time>
      </trkpt>
      <trkpt lat="48.621459" lon="16.518749">
        <ele>282.141476</ele>
        <time>2020-07-10T15:37:34.263Z</time>
      </trkpt>
      <trkpt lat="48.621365" lon="16.518835">
        <ele>282.260596</ele>
        <time>2020-07-10T15:37:36.284Z</time>
      </trkpt>
      <trkpt lat="48.621269" lon="16.518909">
        <ele>282.377429</ele>
        <time>2020-07-10T15:37:38.266Z</time>
      </trkpt>
      <trkpt lat="48.621175" lon="16.518984">
        <ele>282.492667</ele>
        <time>2020-07-10T15:37:40.285Z</time>
      </trkpt>
      <trkpt lat="48.621083" lon="16.519062">
        <ele>282.552379</ele>
        <time>2020-07-10T15:37:42.307Z</time>
      </trkpt>
      <trkpt lat="48.620990" lon="16.519150">
        <ele>282.579960</ele>
        <time>2020-07-10T15:37:44.275Z</time>
      </trkpt>
      <trkpt lat="48.620897" lon="16.519235">
        <ele>282.607281</ele>
        <time>2020-07-10T15:37:46.268Z</time>
      </trkpt>
      <trkpt lat="48.620798" lon="16.519318">
        <ele>282.635741</ele>
        <time>2020-07-10T15:37:48.310Z</time>
      </trkpt>
      <trkpt lat="48.620701" lon="16.519396">
        <ele>282.663362</ele>
        <time>2020-07-10T15:37:50.267Z</time>
      </trkpt>
      <trkpt lat="48.620614" lon="16.519474">
        <ele>282.688791</ele>
        <time>2020-07-10T15:37:52.269Z</time>
      </trkpt>
      <trkpt lat="48.620524" lon="16.519565">
        <ele>282.716010</ele>
        <time>2020-07-10T15:37:54.265Z</time>
      </trkpt>
      <trkpt lat="48.620432" lon="16.519665">
        <ele>282.744495</ele>
        <time>2020-07-10T15:37:56.294Z</time>
      </trkpt>
      <trkpt lat="48.620341" lon="16.519765">
        <ele>282.772776</ele>
        <time>2020-07-10T15:37:58.303Z</time>
      </trkpt>
      <trkpt lat="48.620253" lon="16.519870">
        <ele>282.800957</ele>
        <time>2020-07-10T15:38:00.251Z</time>
      </trkpt>
      <trkpt lat="48.620164" lon="16.519980">
        <ele>282.829855</ele>
        <time>2020-07-10T15:38:02.301Z</time>
      </trkpt>
      <trkpt lat="48.620078" lon="16.520094">
        <ele>282.858606</ele>
        <time>2020-07-10T15:38:04.273Z</time>
      </trkpt>
      <trkpt lat="48.620001" lon="16.520211">
        <ele>282.886047</ele>
        <time>2020-07-10T15:38:06.288Z</time>
      </trkpt>
      <trkpt lat="48.619925" lon="16.520330">
        <ele>282.913550</ele>
        <time>2020-07-10T15:38:08.272Z</time>
      </trkpt>
      <trkpt lat="48.619851" lon="16.520450">
        <ele>282.940827</ele>
        <time>2020-07-10T15:38:10.314Z</time>
      </trkpt>
      <trkpt lat="48.619777" lon="16.520571">
        <ele>282.968226</ele>
        <time>2020-07-10T15:38:12.294Z</time>
      </trkpt>
      <trkpt lat="48.619700" lon="16.520688">
        <ele>282.993461</ele>
        <time>2020-07-10T15:38:14.278Z</time>
      </trkpt>
      <trkpt lat="48.619618" lon="16.520809">
        <ele>283.013828</ele>
        <time>2020-07-10T15:38:16.285Z</time>
      </trkpt>
      <trkpt lat="48.619534" lon="16.520927">
        <ele>283.034209</ele>
        <time>2020-07-10T15:38:18.255Z</time>
      </trkpt>
      <trkpt lat="48.619449" lon="16.521049">
        <ele>283.055042</ele>
        <time>2020-07-10T15:38:20.265Z</time>
      </trkpt>
      <trkpt lat="48.619363" lon="16.521179">
        <ele>283.076658</ele>
        <time>2020-07-10T15:38:22.274Z</time>
      </trkpt>
      <trkpt lat="48.619277" lon="16.521309">
        <ele>283.098274</ele>
        <time>2020-07-10T15:38:24.292Z</time>
      </trkpt>
      <trkpt lat="48.619195" lon="16.521438">
        <ele>283.119308</ele>
        <time>2020-07-10T15:38:26.264Z</time>
      </trkpt>
      <trkpt lat="48.619114" lon="16.521568">
        <ele>283.140305</ele>
        <time>2020-07-10T15:38:28.266Z</time>
      </trkpt>
      <trkpt lat="48.619040" lon="16.521706">
        <ele>283.161190</ele>
        <time>2020-07-10T15:38:30.258Z</time>
      </trkpt>
      <trkpt lat="48.618973" lon="16.521861">
        <ele>283.182957</ele>
        <time>2020-07-10T15:38:32.299Z</time>
      </trkpt>
      <trkpt lat="48.618917" lon="16.522031">
        <ele>283.205281</ele>
        <time>2020-07-10T15:38:34.269Z</time>
      </trkpt>
      <trkpt lat="48.618887" lon="16.522212">
        <ele>283.227213</ele>
        <time>2020-07-10T15:38:36.258Z</time>
      </trkpt>
      <trkpt lat="48.618858" lon="16.522394">
        <ele>283.249217</ele>
        <time>2020-07-10T15:38:38.294Z</time>
      </trkpt>
      <trkpt lat="48.618835" lon="16.522576">
        <ele>283.270995</ele>
        <time>2020-07-10T15:38:40.268Z</time>
      </trkpt>
      <trkpt lat="48.618809" lon="16.522757">
        <ele>283.292766</ele>
        <time>2020-07-10T15:38:42.281Z</time>
      </trkpt>
      <trkpt lat="48.618777" lon="16.522942">
        <ele>283.312844</ele>
        <time>2020-07-10T15:38:44.262Z</time>
      </trkpt>
      <trkpt lat="48.618742" lon="16.523124">
        <ele>283.327822</ele>
        <time>2020-07-10T15:38:46.277Z</time>
      </trkpt>
      <trkpt lat="48.618711" lon="16.523308">
        <ele>283.342826</ele>
        <time>2020-07-10T15:38:48.258Z</time>
      </trkpt>
      <trkpt lat="48.618680" lon="16.523494">
        <ele>283.357984</ele>
        <time>2020-07-10T15:38:50.272Z</time>
      </trkpt>
      <trkpt lat="48.618650" lon="16.523683">
        <ele>283.373343</ele>
        <time>2020-07-10T15:38:52.280Z</time>
      </trkpt>
      <trkpt lat="48.618624" lon="16.523870">
        <ele>283.388443</ele>
        <time>2020-07-10T15:38:54.278Z</time>
      </trkpt>
      <trkpt lat="48.618597" lon="16.524058">
        <ele>283.403646</ele>
        <time>2020-07-10T15:38:56.275Z</time>
      </trkpt>
      <trkpt lat="48.618560" lon="16.524243">
        <ele>283.418919</ele>
        <time>2020-07-10T15:38:58.303Z</time>
      </trkpt>
      <trkpt lat="48.618526" lon="16.524426">
        <ele>283.433940</ele>
        <time>2020-07-10T15:39:00.266Z</time>
      </trkpt>
      <trkpt lat="48.618492" lon="16.524606">
        <ele>283.448733</ele>
        <time>2020-07-10T15:39:02.278Z</time>
      </trkpt>
      <trkpt lat="48.618449" lon="16.524781">
        <ele>283.463486</ele>
        <time>2020-07-10T15:39:04.265Z</time>
      </trkpt>
      <trkpt lat="48.618392" lon="16.524945">
        <ele>283.478127</ele>
        <time>2020-07-10T15:39:06.260Z</time>
      </trkpt>
      <trkpt lat="48.618322" lon="16.525091">
        <ele>283.492379</ele>
        <time>2020-07-10T15:39:08.266Z</time>
      </trkpt>
      <trkpt lat="48.618243" lon="16.525222">
        <ele>283.506391</ele>
        <time>2020-07-10T15:39:10.290Z</time>
      </trkpt>
      <trkpt lat="48.618160" lon="16.525344">
        <ele>283.520225</ele>
        <time>2020-07-10T15:39:12.259Z</time>
      </trkpt>
      <trkpt lat="48.618069" lon="16.525461">
        <ele>283.530603</ele>
        <time>2020-07-10T15:39:14.269Z</time>
      </trkpt>
      <trkpt lat="48.617973" lon="16.525568">
        <ele>283.540057</ele>
        <time>2020-07-10T15:39:16.266Z</time>
      </trkpt>
      <trkpt lat="48.617877" lon="16.525665">
        <ele>283.549209</ele>
        <time>2020-07-10T15:39:18.276Z</time>
      </trkpt>
      <trkpt lat="48.617778" lon="16.525745">
        <ele>283.558108</ele>
        <time>2020-07-10T15:39:20.277Z</time>
      </trkpt>
      <trkpt lat="48.617676" lon="16.525817">
        <ele>283.567032</ele>
        <time>2020-07-10T15:39:22.265Z</time>
      </trkpt>
      <trkpt lat="48.617572" lon="16.525888">
        <ele>283.576078</ele>
        <time>2020-07-10T15:39:24.307Z</time>
      </trkpt>
      <trkpt lat="48.617469" lon="16.525956">
        <ele>283.584988</ele>
        <time>2020-07-10T15:39:26.272Z</time>
      </trkpt>
      <trkpt lat="48.617366" lon="16.526027">
        <ele>283.593962</ele>
        <time>2020-07-10T15:39:28.266Z</time>
      </trkpt>
      <trkpt lat="48.617261" lon="16.526101">
        <ele>283.603145</ele>
        <time>2020-07-10T15:39:30.265Z</time>
      </trkpt>
      <trkpt lat="48.617153" lon="16.526177">
        <ele>283.612589</ele>
        <time>2020-07-10T15:39:32.269Z</time>
      </trkpt>
      <trkpt lat="48.617044" lon="16.526262">
        <ele>283.622311</ele>
        <time>2020-07-10T15:39:34.263Z</time>
      </trkpt>
      <trkpt lat="48.616935" lon="16.526342">
        <ele>283.631917</ele>
        <time>2020-07-10T15:39:36.264Z</time>
      </trkpt>
      <trkpt lat="48.616818" lon="16.526417">
        <ele>283.641991</ele>
        <time>2020-07-10T15:39:38.301Z</time>
      </trkpt>
      <trkpt lat="48.616709" lon="16.526477">
        <ele>283.651187</ele>
        <time>2020-07-10T15:39:40.278Z</time>
      </trkpt>
      <trkpt lat="48.616596" lon="16.526527">
        <ele>283.660521</ele>
        <time>2020-07-10T15:39:42.283Z</time>
      </trkpt>
      <trkpt lat="48.616481" lon="16.526561">
        <ele>283.643992</ele>
        <time>2020-07-10T15:39:44.274Z</time>
      </trkpt>
      <trkpt lat="48.616367" lon="16.526594">
        <ele>283.597778</ele>
        <time>2020-07-10T15:39:46.274Z</time>
      </trkpt>
      <trkpt lat="48.616252" lon="16.526631">
        <ele>283.550965</ele>
        <time>2020-07-10T15:39:48.276Z</time>
      </trkpt>
      <trkpt lat="48.616137" lon="16.526664">
        <ele>283.504360</ele>
        <time>2020-07-10T15:39:50.270Z</time>
      </trkpt>
      <trkpt lat="48.616021" lon="16.526695">
        <ele>283.457458</ele>
        <time>2020-07-10T15:39:52.272Z</time>
      </trkpt>
      <trkpt lat="48.615918" lon="16.526728">
        <ele>283.415538</ele>
        <time>2020-07-10T15:39:54.284Z</time>
      </trkpt>
      <trkpt lat="48.615811" lon="16.526759">
        <ele>283.372160</ele>
        <time>2020-07-10T15:39:56.298Z</time>
      </trkpt>
      <trkpt lat="48.615706" lon="16.526789">
        <ele>283.329614</ele>
        <time>2020-07-10T15:39:58.279Z</time>
      </trkpt>
      <trkpt lat="48.615610" lon="16.526826">
        <ele>283.290170</ele>
        <time>2020-07-10T15:40:00.249Z</time>
      </trkpt>
      <trkpt lat="48.615509" lon="16.526867">
        <ele>283.248532</ele>
        <time>2020-07-10T15:40:02.261Z</time>
      </trkpt>
      <trkpt lat="48.615400" lon="16.526905">
        <ele>283.203995</ele>
        <time>2020-07-10T15:40:04.274Z</time>
      </trkpt>
      <trkpt lat="48.615291" lon="16.526949">
        <ele>283.159077</ele>
        <time>2020-07-10T15:40:06.267Z</time>
      </trkpt>
      <trkpt lat="48.615185" lon="16.527002">
        <ele>283.114626</ele>
        <time>2020-07-10T15:40:08.252Z</time>
      </trkpt>
      <trkpt lat="48.615077" lon="16.527061">
        <ele>283.068906</ele>
        <time>2020-07-10T15:40:10.305Z</time>
      </trkpt>
      <trkpt lat="48.614971" lon="16.527120">
        <ele>283.023934</ele>
        <time>2020-07-10T15:40:12.299Z</time>
      </trkpt>
      <trkpt lat="48.614867" lon="16.527177">
        <ele>282.979891</ele>
        <time>2020-07-10T15:40:14.265Z</time>
      </trkpt>
      <trkpt lat="48.614767" lon="16.527232">
        <ele>282.942227</ele>
        <time>2020-07-10T15:40:16.266Z</time>
      </trkpt>
      <trkpt lat="48.614666" lon="16.527291">
        <ele>282.916223</ele>
        <time>2020-07-10T15:40:18.278Z</time>
      </trkpt>
      <trkpt lat="48.614566" lon="16.527349">
        <ele>282.890499</ele>
        <time>2020-07-10T15:40:20.286Z</time>
      </trkpt>
      <trkpt lat="48.614465" lon="16.527408">
        <ele>282.864495</ele>
        <time>2020-07-10T15:40:22.266Z</time>
      </trkpt>
      <trkpt lat="48.614365" lon="16.527469">
        <ele>282.838597</ele>
        <time>2020-07-10T15:40:24.283Z</time>
      </trkpt>
      <trkpt lat="48.614266" lon="16.527530">
        <ele>282.812922</ele>
        <time>2020-07-10T15:40:26.301Z</time>
      </trkpt>
      <trkpt lat="48.614168" lon="16.527598">
        <ele>282.787026</ele>
        <time>2020-07-10T15:40:28.266Z</time>
      </trkpt>
      <trkpt lat="48.614077" lon="16.527674">
        <ele>282.762059</ele>
        <time>2020-07-10T15:40:30.283Z</time>
      </trkpt>
      <trkpt lat="48.613989" lon="16.527761">
        <ele>282.736809</ele>
        <time>2020-07-10T15:40:32.286Z</time>
      </trkpt>
      <trkpt lat="48.613911" lon="16.527870">
        <ele>282.711304</ele>
        <time>2020-07-10T15:40:34.257Z</time>
      </trkpt>
      <trkpt lat="48.613841" lon="16.528000">
        <ele>282.684680</ele>
        <time>2020-07-10T15:40:36.264Z</time>
      </trkpt>
      <trkpt lat="48.613782" lon="16.528142">
        <ele>282.658049</ele>
        <time>2020-07-10T15:40:38.272Z</time>
      </trkpt>
      <trkpt lat="48.613738" lon="16.528300">
        <ele>282.630825</ele>
        <time>2020-07-10T15:40:40.274Z</time>
      </trkpt>
      <trkpt lat="48.613701" lon="16.528455">
        <ele>282.604657</ele>
        <time>2020-07-10T15:40:42.288Z</time>
      </trkpt>
      <trkpt lat="48.613672" lon="16.528615">
        <ele>282.578313</ele>
        <time>2020-07-10T15:40:44.303Z</time>
      </trkpt>
      <trkpt lat="48.613645" lon="16.528776">
        <ele>282.551938</ele>
        <time>2020-07-10T15:40:46.294Z</time>
      </trkpt>
      <trkpt lat="48.613620" lon="16.528932">
        <ele>282.526450</ele>
        <time>2020-07-10T15:40:48.302Z</time>
      </trkpt>
      <trkpt lat="48.613588" lon="16.529088">
        <ele>282.494838</ele>
        <time>2020-07-10T15:40:50.280Z</time>
      </trkpt>
      <trkpt lat="48.613554" lon="16.529243">
        <ele>282.460180</ele>
        <time>2020-07-10T15:40:52.270Z</time>
      </trkpt>
      <trkpt lat="48.613520" lon="16.529398">
        <ele>282.425522</ele>
        <time>2020-07-10T15:40:54.306Z</time>
      </trkpt>
      <trkpt lat="48.613491" lon="16.529559">
        <ele>282.390108</ele>
        <time>2020-07-10T15:40:56.269Z</time>
      </trkpt>
      <trkpt lat="48.613462" lon="16.529720">
        <ele>282.354695</ele>
        <time>2020-07-10T15:40:58.275Z</time>
      </trkpt>
      <trkpt lat="48.613429" lon="16.529879">
        <ele>282.319327</ele>
        <time>2020-07-10T15:41:00.252Z</time>
      </trkpt>
      <trkpt lat="48.613398" lon="16.530038">
        <ele>282.284147</ele>
        <time>2020-07-10T15:41:02.278Z</time>
      </trkpt>
      <trkpt lat="48.613368" lon="16.530202">
        <ele>282.248034</ele>
        <time>2020-07-10T15:41:04.297Z</time>
      </trkpt>
      <trkpt lat="48.613343" lon="16.530371">
        <ele>282.211281</ele>
        <time>2020-07-10T15:41:06.286Z</time>
      </trkpt>
      <trkpt lat="48.613319" lon="16.530548">
        <ele>282.172935</ele>
        <time>2020-07-10T15:41:08.290Z</time>
      </trkpt>
      <trkpt lat="48.613305" lon="16.530724">
        <ele>282.135314</ele>
        <time>2020-07-10T15:41:10.274Z</time>
      </trkpt>
      <trkpt lat="48.613291" lon="16.530894">
        <ele>282.098956</ele>
        <time>2020-07-10T15:41:12.256Z</time>
      </trkpt>
      <trkpt lat="48.613272" lon="16.531057">
        <ele>282.063830</ele>
        <time>2020-07-10T15:41:14.293Z</time>
      </trkpt>
      <trkpt lat="48.613252" lon="16.531223">
        <ele>282.028020</ele>
        <time>2020-07-10T15:41:16.262Z</time>
      </trkpt>
      <trkpt lat="48.613230" lon="16.531392">
        <ele>281.991465</ele>
        <time>2020-07-10T15:41:18.267Z</time>
      </trkpt>
      <trkpt lat="48.613207" lon="16.531559">
        <ele>281.955263</ele>
        <time>2020-07-10T15:41:20.278Z</time>
      </trkpt>
      <trkpt lat="48.613184" lon="16.531730">
        <ele>281.907441</ele>
        <time>2020-07-10T15:41:22.268Z</time>
      </trkpt>
      <trkpt lat="48.613164" lon="16.531906">
        <ele>281.850771</ele>
        <time>2020-07-10T15:41:24.291Z</time>
      </trkpt>
      <trkpt lat="48.613146" lon="16.532082">
        <ele>281.794256</ele>
        <time>2020-07-10T15:41:26.299Z</time>
      </trkpt>
      <trkpt lat="48.613126" lon="16.532252">
        <ele>281.739461</ele>
        <time>2020-07-10T15:41:28.294Z</time>
      </trkpt>
      <trkpt lat="48.613105" lon="16.532415">
        <ele>281.686763</ele>
        <time>2020-07-10T15:41:30.282Z</time>
      </trkpt>
      <trkpt lat="48.613074" lon="16.532572">
        <ele>281.634767</ele>
        <time>2020-07-10T15:41:32.315Z</time>
      </trkpt>
      <trkpt lat="48.613036" lon="16.532729">
        <ele>281.581711</ele>
        <time>2020-07-10T15:41:34.304Z</time>
      </trkpt>
      <trkpt lat="48.612996" lon="16.532887">
        <ele>281.528022</ele>
        <time>2020-07-10T15:41:36.281Z</time>
      </trkpt>
      <trkpt lat="48.612953" lon="16.533047">
        <ele>281.473214</ele>
        <time>2020-07-10T15:41:38.289Z</time>
      </trkpt>
      <trkpt lat="48.612907" lon="16.533212">
        <ele>281.416389</ele>
        <time>2020-07-10T15:41:40.266Z</time>
      </trkpt>
      <trkpt lat="48.612858" lon="16.533382">
        <ele>281.357538</ele>
        <time>2020-07-10T15:41:42.287Z</time>
      </trkpt>
      <trkpt lat="48.612805" lon="16.533553">
        <ele>281.297606</ele>
        <time>2020-07-10T15:41:44.286Z</time>
      </trkpt>
      <trkpt lat="48.612756" lon="16.533726">
        <ele>281.237881</ele>
        <time>2020-07-10T15:41:46.263Z</time>
      </trkpt>
      <trkpt lat="48.612711" lon="16.533904">
        <ele>281.177406</ele>
        <time>2020-07-10T15:41:48.282Z</time>
      </trkpt>
      <trkpt lat="48.612669" lon="16.534082">
        <ele>281.117431</ele>
        <time>2020-07-10T15:41:50.265Z</time>
      </trkpt>
      <trkpt lat="48.612627" lon="16.534256">
        <ele>281.078631</ele>
        <time>2020-07-10T15:41:52.296Z</time>
      </trkpt>
      <trkpt lat="48.612580" lon="16.534424">
        <ele>281.084842</ele>
        <time>2020-07-10T15:41:54.270Z</time>
      </trkpt>
      <trkpt lat="48.612530" lon="16.534591">
        <ele>281.091083</ele>
        <time>2020-07-10T15:41:56.262Z</time>
      </trkpt>
      <trkpt lat="48.612475" lon="16.534747">
        <ele>281.097103</ele>
        <time>2020-07-10T15:41:58.273Z</time>
      </trkpt>
      <trkpt lat="48.612417" lon="16.534892">
        <ele>281.102873</ele>
        <time>2020-07-10T15:42:00.252Z</time>
      </trkpt>
      <trkpt lat="48.612357" lon="16.535031">
        <ele>281.108524</ele>
        <time>2020-07-10T15:42:02.280Z</time>
      </trkpt>
      <trkpt lat="48.612287" lon="16.535166">
        <ele>281.114366</ele>
        <time>2020-07-10T15:42:04.269Z</time>
      </trkpt>
      <trkpt lat="48.612213" lon="16.535296">
        <ele>281.120206</ele>
        <time>2020-07-10T15:42:06.283Z</time>
      </trkpt>
      <trkpt lat="48.612129" lon="16.535410">
        <ele>281.126018</ele>
        <time>2020-07-10T15:42:08.272Z</time>
      </trkpt>
      <trkpt lat="48.612040" lon="16.535532">
        <ele>281.132203</ele>
        <time>2020-07-10T15:42:10.274Z</time>
      </trkpt>
      <trkpt lat="48.611952" lon="16.535657">
        <ele>281.138420</ele>
        <time>2020-07-10T15:42:12.274Z</time>
      </trkpt>
      <trkpt lat="48.611864" lon="16.535782">
        <ele>281.144637</ele>
        <time>2020-07-10T15:42:14.271Z</time>
      </trkpt>
      <trkpt lat="48.611782" lon="16.535911">
        <ele>281.150730</ele>
        <time>2020-07-10T15:42:16.276Z</time>
      </trkpt>
      <trkpt lat="48.611705" lon="16.536030">
        <ele>281.156399</ele>
        <time>2020-07-10T15:42:18.277Z</time>
      </trkpt>
      <trkpt lat="48.611630" lon="16.536149">
        <ele>281.161997</ele>
        <time>2020-07-10T15:42:20.283Z</time>
      </trkpt>
      <trkpt lat="48.611554" lon="16.536265">
        <ele>281.167557</ele>
        <time>2020-07-10T15:42:22.271Z</time>
      </trkpt>
      <trkpt lat="48.611485" lon="16.536372">
        <ele>281.149029</ele>
        <time>2020-07-10T15:42:24.267Z</time>
      </trkpt>
      <trkpt lat="48.611415" lon="16.536481">
        <ele>281.117479</ele>
        <time>2020-07-10T15:42:26.286Z</time>
      </trkpt>
      <trkpt lat="48.611350" lon="16.536604">
        <ele>281.084785</ele>
        <time>2020-07-10T15:42:28.291Z</time>
      </trkpt>
      <trkpt lat="48.611289" lon="16.536729">
        <ele>281.052528</ele>
        <time>2020-07-10T15:42:30.296Z</time>
      </trkpt>
      <trkpt lat="48.611236" lon="16.536864">
        <ele>281.019929</ele>
        <time>2020-07-10T15:42:32.290Z</time>
      </trkpt>
      <trkpt lat="48.611197" lon="16.537009">
        <ele>280.987427</ele>
        <time>2020-07-10T15:42:34.280Z</time>
      </trkpt>
      <trkpt lat="48.611155" lon="16.537164">
        <ele>280.952647</ele>
        <time>2020-07-10T15:42:36.248Z</time>
      </trkpt>
      <trkpt lat="48.611111" lon="16.537324">
        <ele>280.916668</ele>
        <time>2020-07-10T15:42:38.275Z</time>
      </trkpt>
      <trkpt lat="48.611072" lon="16.537485">
        <ele>280.881067</ele>
        <time>2020-07-10T15:42:40.281Z</time>
      </trkpt>
      <trkpt lat="48.611031" lon="16.537644">
        <ele>280.845632</ele>
        <time>2020-07-10T15:42:42.273Z</time>
      </trkpt>
      <trkpt lat="48.610994" lon="16.537801">
        <ele>280.811025</ele>
        <time>2020-07-10T15:42:44.259Z</time>
      </trkpt>
      <trkpt lat="48.610957" lon="16.537949">
        <ele>280.778173</ele>
        <time>2020-07-10T15:42:46.264Z</time>
      </trkpt>
      <trkpt lat="48.610920" lon="16.538100">
        <ele>280.744737</ele>
        <time>2020-07-10T15:42:48.283Z</time>
      </trkpt>
      <trkpt lat="48.610880" lon="16.538253">
        <ele>280.710576</ele>
        <time>2020-07-10T15:42:50.270Z</time>
      </trkpt>
      <trkpt lat="48.610837" lon="16.538394">
        <ele>280.678336</ele>
        <time>2020-07-10T15:42:52.268Z</time>
      </trkpt>
      <trkpt lat="48.610783" lon="16.538522">
        <ele>280.646810</ele>
        <time>2020-07-10T15:42:54.274Z</time>
      </trkpt>
      <trkpt lat="48.610714" lon="16.538638">
        <ele>280.614413</ele>
        <time>2020-07-10T15:42:56.263Z</time>
      </trkpt>
      <trkpt lat="48.610644" lon="16.538760">
        <ele>280.537997</ele>
        <time>2020-07-10T15:42:58.296Z</time>
      </trkpt>
      <trkpt lat="48.610563" lon="16.538870">
        <ele>280.441730</ele>
        <time>2020-07-10T15:43:00.250Z</time>
      </trkpt>
      <trkpt lat="48.610484" lon="16.538984">
        <ele>280.345172</ele>
        <time>2020-07-10T15:43:02.272Z</time>
      </trkpt>
      <trkpt lat="48.610409" lon="16.539094">
        <ele>280.252786</ele>
        <time>2020-07-10T15:43:04.286Z</time>
      </trkpt>
      <trkpt lat="48.610332" lon="16.539197">
        <ele>280.161883</ele>
        <time>2020-07-10T15:43:06.251Z</time>
      </trkpt>
      <trkpt lat="48.610258" lon="16.539308">
        <ele>280.069718</ele>
        <time>2020-07-10T15:43:08.265Z</time>
      </trkpt>
      <trkpt lat="48.610183" lon="16.539407">
        <ele>279.981687</ele>
        <time>2020-07-10T15:43:10.284Z</time>
      </trkpt>
      <trkpt lat="48.610105" lon="16.539513">
        <ele>279.888956</ele>
        <time>2020-07-10T15:43:12.289Z</time>
      </trkpt>
      <trkpt lat="48.610029" lon="16.539620">
        <ele>279.797136</ele>
        <time>2020-07-10T15:43:14.266Z</time>
      </trkpt>
      <trkpt lat="48.609952" lon="16.539716">
        <ele>279.708891</ele>
        <time>2020-07-10T15:43:16.281Z</time>
      </trkpt>
      <trkpt lat="48.609876" lon="16.539813">
        <ele>279.620951</ele>
        <time>2020-07-10T15:43:18.284Z</time>
      </trkpt>
      <trkpt lat="48.609798" lon="16.539892">
        <ele>279.537937</ele>
        <time>2020-07-10T15:43:20.314Z</time>
      </trkpt>
      <trkpt lat="48.609679" lon="16.539966">
        <ele>279.424155</ele>
        <time>2020-07-10T15:43:23.267Z</time>
      </trkpt>
      <trkpt lat="48.609446" lon="16.540006">
        <ele>279.216787</ele>
        <time>2020-07-10T15:44:47.255Z</time>
      </trkpt>
      <trkpt lat="48.609318" lon="16.540064">
        <ele>279.098624</ele>
        <time>2020-07-10T15:44:50.262Z</time>
      </trkpt>
      <trkpt lat="48.609225" lon="16.540097">
        <ele>279.014149</ele>
        <time>2020-07-10T15:44:52.269Z</time>
      </trkpt>
      <trkpt lat="48.609138" lon="16.540141">
        <ele>278.962656</ele>
        <time>2020-07-10T15:44:54.259Z</time>
      </trkpt>
      <trkpt lat="48.609045" lon="16.540187">
        <ele>278.907823</ele>
        <time>2020-07-10T15:44:56.284Z</time>
      </trkpt>
      <trkpt lat="48.608955" lon="16.540223">
        <ele>278.855653</ele>
        <time>2020-07-10T15:44:58.269Z</time>
      </trkpt>
      <trkpt lat="48.608863" lon="16.540255">
        <ele>278.802751</ele>
        <time>2020-07-10T15:45:00.258Z</time>
      </trkpt>
      <trkpt lat="48.608760" lon="16.540255">
        <ele>278.745030</ele>
        <time>2020-07-10T15:45:02.272Z</time>
      </trkpt>
      <trkpt lat="48.608660" lon="16.540264">
        <ele>278.688892</ele>
        <time>2020-07-10T15:45:04.288Z</time>
      </trkpt>
      <trkpt lat="48.608564" lon="16.540305">
        <ele>278.632990</ele>
        <time>2020-07-10T15:45:06.284Z</time>
      </trkpt>
      <trkpt lat="48.608472" lon="16.540333">
        <ele>278.580400</ele>
        <time>2020-07-10T15:45:08.289Z</time>
      </trkpt>
      <trkpt lat="48.608341" lon="16.540356">
        <ele>278.506495</ele>
        <time>2020-07-10T15:45:11.298Z</time>
      </trkpt>
      <trkpt lat="48.608244" lon="16.540380">
        <ele>278.451414</ele>
        <time>2020-07-10T15:45:13.294Z</time>
      </trkpt>
      <trkpt lat="48.608146" lon="16.540414">
        <ele>278.395069</ele>
        <time>2020-07-10T15:45:15.274Z</time>
      </trkpt>
      <trkpt lat="48.608048" lon="16.540444">
        <ele>278.339037</ele>
        <time>2020-07-10T15:45:17.269Z</time>
      </trkpt>
      <trkpt lat="48.607952" lon="16.540479">
        <ele>278.283698</ele>
        <time>2020-07-10T15:45:19.255Z</time>
      </trkpt>
      <trkpt lat="48.607854" lon="16.540490">
        <ele>278.228628</ele>
        <time>2020-07-10T15:45:21.257Z</time>
      </trkpt>
      <trkpt lat="48.607758" lon="16.540521">
        <ele>278.173617</ele>
        <time>2020-07-10T15:45:23.267Z</time>
      </trkpt>
      <trkpt lat="48.607658" lon="16.540548">
        <ele>278.116692</ele>
        <time>2020-07-10T15:45:25.274Z</time>
      </trkpt>
      <trkpt lat="48.607553" lon="16.540580">
        <ele>278.056667</ele>
        <time>2020-07-10T15:45:27.278Z</time>
      </trkpt>
      <trkpt lat="48.607449" lon="16.540615">
        <ele>278.001403</ele>
        <time>2020-07-10T15:45:29.307Z</time>
      </trkpt>
      <trkpt lat="48.607347" lon="16.540658">
        <ele>277.971339</ele>
        <time>2020-07-10T15:45:31.276Z</time>
      </trkpt>
      <trkpt lat="48.607246" lon="16.540700">
        <ele>277.941599</ele>
        <time>2020-07-10T15:45:33.274Z</time>
      </trkpt>
      <trkpt lat="48.607148" lon="16.540746">
        <ele>277.912465</ele>
        <time>2020-07-10T15:45:35.260Z</time>
      </trkpt>
      <trkpt lat="48.607058" lon="16.540791">
        <ele>277.885552</ele>
        <time>2020-07-10T15:45:37.277Z</time>
      </trkpt>
      <trkpt lat="48.606971" lon="16.540854">
        <ele>277.858165</ele>
        <time>2020-07-10T15:45:39.254Z</time>
      </trkpt>
      <trkpt lat="48.606878" lon="16.540916">
        <ele>277.829308</ele>
        <time>2020-07-10T15:45:41.288Z</time>
      </trkpt>
      <trkpt lat="48.606794" lon="16.540994">
        <ele>277.801322</ele>
        <time>2020-07-10T15:45:43.287Z</time>
      </trkpt>
      <trkpt lat="48.606714" lon="16.541077">
        <ele>277.773777</ele>
        <time>2020-07-10T15:45:45.294Z</time>
      </trkpt>
      <trkpt lat="48.606668" lon="16.541199">
        <ele>277.747411</ele>
        <time>2020-07-10T15:45:47.284Z</time>
      </trkpt>
      <trkpt lat="48.606673" lon="16.541348">
        <ele>277.719402</ele>
        <time>2020-07-10T15:45:49.272Z</time>
      </trkpt>
      <trkpt lat="48.606692" lon="16.541486">
        <ele>277.692939</ele>
        <time>2020-07-10T15:45:51.266Z</time>
      </trkpt>
      <trkpt lat="48.606666" lon="16.541661">
        <ele>277.659266</ele>
        <time>2020-07-10T15:45:54.266Z</time>
      </trkpt>
      <trkpt lat="48.606571" lon="16.541788">
        <ele>277.623266</ele>
        <time>2020-07-10T15:45:57.299Z</time>
      </trkpt>
      <trkpt lat="48.606495" lon="16.541863">
        <ele>277.597500</ele>
        <time>2020-07-10T15:45:59.270Z</time>
      </trkpt>
      <trkpt lat="48.606403" lon="16.541966">
        <ele>277.565001</ele>
        <time>2020-07-10T15:46:02.294Z</time>
      </trkpt>
      <trkpt lat="48.606300" lon="16.542085">
        <ele>277.528200</ele>
        <time>2020-07-10T15:46:05.281Z</time>
      </trkpt>
      <trkpt lat="48.606222" lon="16.542158">
        <ele>277.502156</ele>
        <time>2020-07-10T15:46:07.274Z</time>
      </trkpt>
      <trkpt lat="48.606147" lon="16.542238">
        <ele>277.461068</ele>
        <time>2020-07-10T15:46:09.268Z</time>
      </trkpt>
      <trkpt lat="48.606069" lon="16.542322">
        <ele>277.412588</ele>
        <time>2020-07-10T15:46:11.272Z</time>
      </trkpt>
      <trkpt lat="48.605986" lon="16.542404">
        <ele>277.362395</ele>
        <time>2020-07-10T15:46:13.295Z</time>
      </trkpt>
      <trkpt lat="48.605900" lon="16.542495">
        <ele>277.309256</ele>
        <time>2020-07-10T15:46:15.270Z</time>
      </trkpt>
      <trkpt lat="48.605808" lon="16.542585">
        <ele>277.253782</ele>
        <time>2020-07-10T15:46:17.288Z</time>
      </trkpt>
      <trkpt lat="48.605710" lon="16.542663">
        <ele>277.197715</ele>
        <time>2020-07-10T15:46:19.280Z</time>
      </trkpt>
      <trkpt lat="48.605622" lon="16.542755">
        <ele>277.143553</ele>
        <time>2020-07-10T15:46:21.290Z</time>
      </trkpt>
      <trkpt lat="48.605531" lon="16.542848">
        <ele>277.087947</ele>
        <time>2020-07-10T15:46:23.301Z</time>
      </trkpt>
      <trkpt lat="48.605442" lon="16.542939">
        <ele>277.033556</ele>
        <time>2020-07-10T15:46:25.273Z</time>
      </trkpt>
      <trkpt lat="48.605351" lon="16.543036">
        <ele>276.977190</ele>
        <time>2020-07-10T15:46:27.279Z</time>
      </trkpt>
      <trkpt lat="48.605262" lon="16.543130">
        <ele>276.922230</ele>
        <time>2020-07-10T15:46:29.256Z</time>
      </trkpt>
      <trkpt lat="48.605179" lon="16.543224">
        <ele>276.869732</ele>
        <time>2020-07-10T15:46:31.266Z</time>
      </trkpt>
      <trkpt lat="48.605090" lon="16.543319">
        <ele>276.814579</ele>
        <time>2020-07-10T15:46:33.279Z</time>
      </trkpt>
      <trkpt lat="48.605000" lon="16.543409">
        <ele>276.759953</ele>
        <time>2020-07-10T15:46:35.287Z</time>
      </trkpt>
      <trkpt lat="48.604908" lon="16.543509">
        <ele>276.702592</ele>
        <time>2020-07-10T15:46:37.281Z</time>
      </trkpt>
      <trkpt lat="48.604817" lon="16.543609">
        <ele>276.645642</ele>
        <time>2020-07-10T15:46:39.274Z</time>
      </trkpt>
      <trkpt lat="48.604727" lon="16.543707">
        <ele>276.589494</ele>
        <time>2020-07-10T15:46:41.263Z</time>
      </trkpt>
      <trkpt lat="48.604623" lon="16.543778">
        <ele>276.506699</ele>
        <time>2020-07-10T15:46:43.283Z</time>
      </trkpt>
      <trkpt lat="48.604512" lon="16.543842">
        <ele>276.418129</ele>
        <time>2020-07-10T15:46:45.307Z</time>
      </trkpt>
      <trkpt lat="48.604406" lon="16.543911">
        <ele>276.332088</ele>
        <time>2020-07-10T15:46:47.256Z</time>
      </trkpt>
      <trkpt lat="48.604294" lon="16.543963">
        <ele>276.244736</ele>
        <time>2020-07-10T15:46:49.296Z</time>
      </trkpt>
      <trkpt lat="48.604186" lon="16.544012">
        <ele>276.160668</ele>
        <time>2020-07-10T15:46:51.265Z</time>
      </trkpt>
      <trkpt lat="48.604072" lon="16.544065">
        <ele>276.071746</ele>
        <time>2020-07-10T15:46:53.294Z</time>
      </trkpt>
      <trkpt lat="48.603961" lon="16.544119">
        <ele>275.984810</ele>
        <time>2020-07-10T15:46:55.289Z</time>
      </trkpt>
      <trkpt lat="48.603849" lon="16.544154">
        <ele>275.899542</ele>
        <time>2020-07-10T15:46:57.287Z</time>
      </trkpt>
      <trkpt lat="48.603739" lon="16.544224">
        <ele>275.810563</ele>
        <time>2020-07-10T15:46:59.275Z</time>
      </trkpt>
      <trkpt lat="48.603652" lon="16.544338">
        <ele>275.724734</ele>
        <time>2020-07-10T15:47:01.269Z</time>
      </trkpt>
      <trkpt lat="48.603565" lon="16.544437">
        <ele>275.643557</ele>
        <time>2020-07-10T15:47:03.292Z</time>
      </trkpt>
      <trkpt lat="48.603480" lon="16.544539">
        <ele>275.562654</ele>
        <time>2020-07-10T15:47:05.286Z</time>
      </trkpt>
      <trkpt lat="48.603404" lon="16.544638">
        <ele>275.487867</ele>
        <time>2020-07-10T15:47:07.265Z</time>
      </trkpt>
      <trkpt lat="48.603325" lon="16.544739">
        <ele>275.410738</ele>
        <time>2020-07-10T15:47:09.283Z</time>
      </trkpt>
      <trkpt lat="48.603245" lon="16.544860">
        <ele>275.326378</ele>
        <time>2020-07-10T15:47:11.279Z</time>
      </trkpt>
      <trkpt lat="48.603159" lon="16.544981">
        <ele>275.240249</ele>
        <time>2020-07-10T15:47:13.287Z</time>
      </trkpt>
      <trkpt lat="48.603073" lon="16.545096">
        <ele>275.180304</ele>
        <time>2020-07-10T15:47:15.295Z</time>
      </trkpt>
      <trkpt lat="48.602997" lon="16.545215">
        <ele>275.123179</ele>
        <time>2020-07-10T15:47:17.260Z</time>
      </trkpt>
      <trkpt lat="48.602927" lon="16.545327">
        <ele>275.069966</ele>
        <time>2020-07-10T15:47:19.284Z</time>
      </trkpt>
      <trkpt lat="48.602851" lon="16.545444">
        <ele>275.013335</ele>
        <time>2020-07-10T15:47:21.283Z</time>
      </trkpt>
      <trkpt lat="48.602770" lon="16.545564">
        <ele>274.954125</ele>
        <time>2020-07-10T15:47:23.283Z</time>
      </trkpt>
      <trkpt lat="48.602687" lon="16.545687">
        <ele>274.893444</ele>
        <time>2020-07-10T15:47:25.282Z</time>
      </trkpt>
      <trkpt lat="48.602605" lon="16.545807">
        <ele>274.833860</ele>
        <time>2020-07-10T15:47:27.280Z</time>
      </trkpt>
      <trkpt lat="48.602518" lon="16.545926">
        <ele>274.772604</ele>
        <time>2020-07-10T15:47:29.289Z</time>
      </trkpt>
      <trkpt lat="48.602427" lon="16.546047">
        <ele>274.709331</ele>
        <time>2020-07-10T15:47:31.291Z</time>
      </trkpt>
      <trkpt lat="48.602340" lon="16.546172">
        <ele>274.646667</ele>
        <time>2020-07-10T15:47:33.285Z</time>
      </trkpt>
      <trkpt lat="48.602253" lon="16.546292">
        <ele>274.585179</ele>
        <time>2020-07-10T15:47:35.293Z</time>
      </trkpt>
      <trkpt lat="48.602169" lon="16.546407">
        <ele>274.526012</ele>
        <time>2020-07-10T15:47:37.266Z</time>
      </trkpt>
      <trkpt lat="48.602091" lon="16.546520">
        <ele>274.469609</ele>
        <time>2020-07-10T15:47:39.287Z</time>
      </trkpt>
      <trkpt lat="48.602013" lon="16.546631">
        <ele>274.413681</ele>
        <time>2020-07-10T15:47:41.286Z</time>
      </trkpt>
      <trkpt lat="48.601934" lon="16.546740">
        <ele>274.357839</ele>
        <time>2020-07-10T15:47:43.301Z</time>
      </trkpt>
      <trkpt lat="48.601859" lon="16.546853">
        <ele>274.301656</ele>
        <time>2020-07-10T15:47:45.273Z</time>
      </trkpt>
      <trkpt lat="48.601784" lon="16.546966">
        <ele>274.220051</ele>
        <time>2020-07-10T15:47:47.287Z</time>
      </trkpt>
      <trkpt lat="48.601711" lon="16.547077">
        <ele>274.140257</ele>
        <time>2020-07-10T15:47:49.282Z</time>
      </trkpt>
      <trkpt lat="48.601637" lon="16.547185">
        <ele>274.060987</ele>
        <time>2020-07-10T15:47:51.283Z</time>
      </trkpt>
      <trkpt lat="48.601563" lon="16.547289">
        <ele>273.983119</ele>
        <time>2020-07-10T15:47:53.285Z</time>
      </trkpt>
      <trkpt lat="48.601494" lon="16.547385">
        <ele>273.910849</ele>
        <time>2020-07-10T15:47:55.282Z</time>
      </trkpt>
      <trkpt lat="48.601424" lon="16.547478">
        <ele>273.839028</ele>
        <time>2020-07-10T15:47:57.270Z</time>
      </trkpt>
      <trkpt lat="48.601355" lon="16.547571">
        <ele>273.767784</ele>
        <time>2020-07-10T15:47:59.293Z</time>
      </trkpt>
      <trkpt lat="48.601283" lon="16.547668">
        <ele>273.693458</ele>
        <time>2020-07-10T15:48:01.317Z</time>
      </trkpt>
      <trkpt lat="48.601208" lon="16.547771">
        <ele>273.615366</ele>
        <time>2020-07-10T15:48:03.286Z</time>
      </trkpt>
      <trkpt lat="48.601121" lon="16.547869">
        <ele>273.531748</ele>
        <time>2020-07-10T15:48:05.262Z</time>
      </trkpt>
      <trkpt lat="48.601026" lon="16.547966">
        <ele>273.443394</ele>
        <time>2020-07-10T15:48:07.290Z</time>
      </trkpt>
      <trkpt lat="48.600928" lon="16.548056">
        <ele>273.355018</ele>
        <time>2020-07-10T15:48:09.284Z</time>
      </trkpt>
      <trkpt lat="48.600826" lon="16.548134">
        <ele>273.266916</ele>
        <time>2020-07-10T15:48:11.272Z</time>
      </trkpt>
      <trkpt lat="48.600723" lon="16.548206">
        <ele>273.179453</ele>
        <time>2020-07-10T15:48:13.273Z</time>
      </trkpt>
      <trkpt lat="48.600624" lon="16.548273">
        <ele>273.095851</ele>
        <time>2020-07-10T15:48:15.275Z</time>
      </trkpt>
      <trkpt lat="48.600521" lon="16.548323">
        <ele>273.012470</ele>
        <time>2020-07-10T15:48:17.304Z</time>
      </trkpt>
      <trkpt lat="48.600419" lon="16.548375">
        <ele>272.929502</ele>
        <time>2020-07-10T15:48:19.287Z</time>
      </trkpt>
      <trkpt lat="48.600313" lon="16.548417">
        <ele>272.848118</ele>
        <time>2020-07-10T15:48:21.261Z</time>
      </trkpt>
      <trkpt lat="48.600203" lon="16.548456">
        <ele>272.764702</ele>
        <time>2020-07-10T15:48:23.313Z</time>
      </trkpt>
      <trkpt lat="48.600085" lon="16.548487">
        <ele>272.676277</ele>
        <time>2020-07-10T15:48:25.254Z</time>
      </trkpt>
      <trkpt lat="48.599964" lon="16.548518">
        <ele>272.585669</ele>
        <time>2020-07-10T15:48:27.273Z</time>
      </trkpt>
      <trkpt lat="48.599845" lon="16.548556">
        <ele>272.495873</ele>
        <time>2020-07-10T15:48:29.262Z</time>
      </trkpt>
      <trkpt lat="48.599726" lon="16.548586">
        <ele>272.406802</ele>
        <time>2020-07-10T15:48:31.262Z</time>
      </trkpt>
      <trkpt lat="48.599607" lon="16.548622">
        <ele>272.317203</ele>
        <time>2020-07-10T15:48:33.268Z</time>
      </trkpt>
      <trkpt lat="48.599493" lon="16.548654">
        <ele>272.231598</ele>
        <time>2020-07-10T15:48:35.272Z</time>
      </trkpt>
      <trkpt lat="48.599379" lon="16.548685">
        <ele>272.146081</ele>
        <time>2020-07-10T15:48:37.307Z</time>
      </trkpt>
      <trkpt lat="48.599268" lon="16.548715">
        <ele>272.062831</ele>
        <time>2020-07-10T15:48:39.275Z</time>
      </trkpt>
      <trkpt lat="48.599157" lon="16.548746">
        <ele>271.979493</ele>
        <time>2020-07-10T15:48:41.266Z</time>
      </trkpt>
      <trkpt lat="48.599044" lon="16.548783">
        <ele>271.894131</ele>
        <time>2020-07-10T15:48:43.274Z</time>
      </trkpt>
      <trkpt lat="48.598926" lon="16.548821">
        <ele>271.805057</ele>
        <time>2020-07-10T15:48:45.280Z</time>
      </trkpt>
      <trkpt lat="48.598817" lon="16.548857">
        <ele>271.722685</ele>
        <time>2020-07-10T15:48:47.280Z</time>
      </trkpt>
      <trkpt lat="48.598713" lon="16.548902">
        <ele>271.642819</ele>
        <time>2020-07-10T15:48:49.306Z</time>
      </trkpt>
      <trkpt lat="48.598613" lon="16.548961">
        <ele>271.575112</ele>
        <time>2020-07-10T15:48:51.265Z</time>
      </trkpt>
      <trkpt lat="48.598509" lon="16.549056">
        <ele>271.524393</ele>
        <time>2020-07-10T15:48:53.300Z</time>
      </trkpt>
      <trkpt lat="48.598411" lon="16.549168">
        <ele>271.473116</ele>
        <time>2020-07-10T15:48:55.270Z</time>
      </trkpt>
      <trkpt lat="48.598311" lon="16.549277">
        <ele>271.421659</ele>
        <time>2020-07-10T15:48:57.267Z</time>
      </trkpt>
      <trkpt lat="48.598215" lon="16.549398">
        <ele>271.369491</ele>
        <time>2020-07-10T15:48:59.275Z</time>
      </trkpt>
      <trkpt lat="48.598120" lon="16.549528">
        <ele>271.316008</ele>
        <time>2020-07-10T15:49:01.253Z</time>
      </trkpt>
      <trkpt lat="48.598021" lon="16.549660">
        <ele>271.260912</ele>
        <time>2020-07-10T15:49:03.295Z</time>
      </trkpt>
      <trkpt lat="48.597924" lon="16.549801">
        <ele>271.204747</ele>
        <time>2020-07-10T15:49:05.275Z</time>
      </trkpt>
      <trkpt lat="48.597825" lon="16.549934">
        <ele>271.149468</ele>
        <time>2020-07-10T15:49:07.275Z</time>
      </trkpt>
      <trkpt lat="48.597728" lon="16.550064">
        <ele>271.095363</ele>
        <time>2020-07-10T15:49:09.264Z</time>
      </trkpt>
      <trkpt lat="48.597634" lon="16.550194">
        <ele>271.042189</ele>
        <time>2020-07-10T15:49:11.268Z</time>
      </trkpt>
      <trkpt lat="48.597538" lon="16.550325">
        <ele>270.988211</ele>
        <time>2020-07-10T15:49:13.277Z</time>
      </trkpt>
      <trkpt lat="48.597442" lon="16.550456">
        <ele>270.934233</ele>
        <time>2020-07-10T15:49:15.280Z</time>
      </trkpt>
      <trkpt lat="48.597346" lon="16.550585">
        <ele>270.880623</ele>
        <time>2020-07-10T15:49:17.272Z</time>
      </trkpt>
      <trkpt lat="48.597251" lon="16.550706">
        <ele>270.829272</ele>
        <time>2020-07-10T15:49:19.279Z</time>
      </trkpt>
      <trkpt lat="48.597159" lon="16.550819">
        <ele>270.782127</ele>
        <time>2020-07-10T15:49:21.287Z</time>
      </trkpt>
      <trkpt lat="48.597067" lon="16.550936">
        <ele>270.734313</ele>
        <time>2020-07-10T15:49:23.287Z</time>
      </trkpt>
      <trkpt lat="48.596975" lon="16.551050">
        <ele>270.687002</ele>
        <time>2020-07-10T15:49:25.278Z</time>
      </trkpt>
      <trkpt lat="48.596884" lon="16.551168">
        <ele>270.639320</ele>
        <time>2020-07-10T15:49:27.294Z</time>
      </trkpt>
      <trkpt lat="48.596795" lon="16.551288">
        <ele>270.591891</ele>
        <time>2020-07-10T15:49:29.270Z</time>
      </trkpt>
      <trkpt lat="48.596712" lon="16.551409">
        <ele>270.546033</ele>
        <time>2020-07-10T15:49:31.279Z</time>
      </trkpt>
      <trkpt lat="48.596629" lon="16.551530">
        <ele>270.500174</ele>
        <time>2020-07-10T15:49:33.272Z</time>
      </trkpt>
      <trkpt lat="48.596548" lon="16.551640">
        <ele>270.456870</ele>
        <time>2020-07-10T15:49:35.294Z</time>
      </trkpt>
      <trkpt lat="48.596466" lon="16.551749">
        <ele>270.413443</ele>
        <time>2020-07-10T15:49:37.277Z</time>
      </trkpt>
      <trkpt lat="48.596381" lon="16.551864">
        <ele>270.368077</ele>
        <time>2020-07-10T15:49:39.257Z</time>
      </trkpt>
      <trkpt lat="48.596294" lon="16.551980">
        <ele>270.321940</ele>
        <time>2020-07-10T15:49:41.288Z</time>
      </trkpt>
      <trkpt lat="48.596208" lon="16.552096">
        <ele>270.276102</ele>
        <time>2020-07-10T15:49:43.271Z</time>
      </trkpt>
      <trkpt lat="48.596122" lon="16.552213">
        <ele>270.230087</ele>
        <time>2020-07-10T15:49:45.288Z</time>
      </trkpt>
      <trkpt lat="48.596038" lon="16.552330">
        <ele>270.184661</ele>
        <time>2020-07-10T15:49:47.267Z</time>
      </trkpt>
      <trkpt lat="48.595956" lon="16.552452">
        <ele>270.138904</ele>
        <time>2020-07-10T15:49:49.306Z</time>
      </trkpt>
      <trkpt lat="48.595878" lon="16.552591">
        <ele>270.085559</ele>
        <time>2020-07-10T15:49:51.265Z</time>
      </trkpt>
      <trkpt lat="48.595800" lon="16.552723">
        <ele>270.031381</ele>
        <time>2020-07-10T15:49:53.271Z</time>
      </trkpt>
      <trkpt lat="48.595725" lon="16.552851">
        <ele>269.979041</ele>
        <time>2020-07-10T15:49:55.264Z</time>
      </trkpt>
      <trkpt lat="48.595652" lon="16.552983">
        <ele>269.926376</ele>
        <time>2020-07-10T15:49:57.257Z</time>
      </trkpt>
      <trkpt lat="48.595580" lon="16.553117">
        <ele>269.873534</ele>
        <time>2020-07-10T15:49:59.276Z</time>
      </trkpt>
      <trkpt lat="48.595508" lon="16.553245">
        <ele>269.822103</ele>
        <time>2020-07-10T15:50:01.262Z</time>
      </trkpt>
      <trkpt lat="48.595437" lon="16.553375">
        <ele>269.770501</ele>
        <time>2020-07-10T15:50:03.290Z</time>
      </trkpt>
      <trkpt lat="48.595366" lon="16.553508">
        <ele>269.718187</ele>
        <time>2020-07-10T15:50:05.269Z</time>
      </trkpt>
      <trkpt lat="48.595294" lon="16.553638">
        <ele>269.666289</ele>
        <time>2020-07-10T15:50:07.272Z</time>
      </trkpt>
      <trkpt lat="48.595224" lon="16.553766">
        <ele>269.615453</ele>
        <time>2020-07-10T15:50:09.260Z</time>
      </trkpt>
      <trkpt lat="48.595154" lon="16.553889">
        <ele>269.565788</ele>
        <time>2020-07-10T15:50:11.255Z</time>
      </trkpt>
      <trkpt lat="48.595083" lon="16.554010">
        <ele>269.516278</ele>
        <time>2020-07-10T15:50:13.266Z</time>
      </trkpt>
      <trkpt lat="48.595008" lon="16.554130">
        <ele>269.465744</ele>
        <time>2020-07-10T15:50:15.269Z</time>
      </trkpt>
      <trkpt lat="48.594929" lon="16.554247">
        <ele>269.414568</ele>
        <time>2020-07-10T15:50:17.284Z</time>
      </trkpt>
      <trkpt lat="48.594847" lon="16.554357">
        <ele>269.363837</ele>
        <time>2020-07-10T15:50:19.275Z</time>
      </trkpt>
      <trkpt lat="48.594763" lon="16.554462">
        <ele>269.313399</ele>
        <time>2020-07-10T15:50:21.263Z</time>
      </trkpt>
      <trkpt lat="48.594681" lon="16.554562">
        <ele>269.234347</ele>
        <time>2020-07-10T15:50:23.274Z</time>
      </trkpt>
      <trkpt lat="48.594598" lon="16.554661">
        <ele>269.130328</ele>
        <time>2020-07-10T15:50:25.257Z</time>
      </trkpt>
      <trkpt lat="48.594513" lon="16.554758">
        <ele>269.025547</ele>
        <time>2020-07-10T15:50:27.273Z</time>
      </trkpt>
      <trkpt lat="48.594425" lon="16.554853">
        <ele>268.919156</ele>
        <time>2020-07-10T15:50:29.256Z</time>
      </trkpt>
      <trkpt lat="48.594335" lon="16.554946">
        <ele>268.811896</ele>
        <time>2020-07-10T15:50:31.280Z</time>
      </trkpt>
      <trkpt lat="48.594239" lon="16.555031">
        <ele>268.702435</ele>
        <time>2020-07-10T15:50:33.289Z</time>
      </trkpt>
      <trkpt lat="48.594143" lon="16.555106">
        <ele>268.596113</ele>
        <time>2020-07-10T15:50:35.274Z</time>
      </trkpt>
      <trkpt lat="48.594038" lon="16.555182">
        <ele>268.481572</ele>
        <time>2020-07-10T15:50:37.264Z</time>
      </trkpt>
      <trkpt lat="48.593931" lon="16.555259">
        <ele>268.364975</ele>
        <time>2020-07-10T15:50:39.313Z</time>
      </trkpt>
      <trkpt lat="48.593822" lon="16.555340">
        <ele>268.245473</ele>
        <time>2020-07-10T15:50:41.256Z</time>
      </trkpt>
      <trkpt lat="48.593712" lon="16.555417">
        <ele>268.126203</ele>
        <time>2020-07-10T15:50:43.261Z</time>
      </trkpt>
      <trkpt lat="48.593604" lon="16.555496">
        <ele>268.008156</ele>
        <time>2020-07-10T15:50:45.250Z</time>
      </trkpt>
      <trkpt lat="48.593498" lon="16.555571">
        <ele>267.893004</ele>
        <time>2020-07-10T15:50:47.253Z</time>
      </trkpt>
      <trkpt lat="48.593391" lon="16.555652">
        <ele>267.775264</ele>
        <time>2020-07-10T15:50:49.254Z</time>
      </trkpt>
      <trkpt lat="48.593284" lon="16.555731">
        <ele>267.658102</ele>
        <time>2020-07-10T15:50:51.259Z</time>
      </trkpt>
      <trkpt lat="48.593181" lon="16.555805">
        <ele>267.545897</ele>
        <time>2020-07-10T15:50:53.255Z</time>
      </trkpt>
      <trkpt lat="48.593077" lon="16.555878">
        <ele>267.440382</ele>
        <time>2020-07-10T15:50:55.250Z</time>
      </trkpt>
      <trkpt lat="48.592969" lon="16.555951">
        <ele>267.333563</ele>
        <time>2020-07-10T15:50:57.301Z</time>
      </trkpt>
      <trkpt lat="48.592870" lon="16.556021">
        <ele>267.234879</ele>
        <time>2020-07-10T15:50:59.261Z</time>
      </trkpt>
      <trkpt lat="48.592772" lon="16.556090">
        <ele>267.137266</ele>
        <time>2020-07-10T15:51:01.253Z</time>
      </trkpt>
      <trkpt lat="48.592669" lon="16.556160">
        <ele>267.035300</ele>
        <time>2020-07-10T15:51:03.258Z</time>
      </trkpt>
      <trkpt lat="48.592567" lon="16.556231">
        <ele>266.933908</ele>
        <time>2020-07-10T15:51:05.251Z</time>
      </trkpt>
      <trkpt lat="48.592465" lon="16.556299">
        <ele>266.833251</ele>
        <time>2020-07-10T15:51:07.257Z</time>
      </trkpt>
      <trkpt lat="48.592364" lon="16.556369">
        <ele>266.732929</ele>
        <time>2020-07-10T15:51:09.251Z</time>
      </trkpt>
      <trkpt lat="48.592263" lon="16.556437">
        <ele>266.633098</ele>
        <time>2020-07-10T15:51:11.266Z</time>
      </trkpt>
      <trkpt lat="48.592162" lon="16.556503">
        <ele>266.533748</ele>
        <time>2020-07-10T15:51:13.280Z</time>
      </trkpt>
      <trkpt lat="48.592061" lon="16.556577">
        <ele>266.432406</ele>
        <time>2020-07-10T15:51:15.284Z</time>
      </trkpt>
      <trkpt lat="48.591965" lon="16.556652">
        <ele>266.334835</ele>
        <time>2020-07-10T15:51:17.301Z</time>
      </trkpt>
      <trkpt lat="48.591866" lon="16.556737">
        <ele>266.232036</ele>
        <time>2020-07-10T15:51:19.277Z</time>
      </trkpt>
      <trkpt lat="48.591777" lon="16.556832">
        <ele>266.133664</ele>
        <time>2020-07-10T15:51:21.261Z</time>
      </trkpt>
      <trkpt lat="48.591690" lon="16.556934">
        <ele>266.034256</ele>
        <time>2020-07-10T15:51:23.291Z</time>
      </trkpt>
      <trkpt lat="48.591603" lon="16.557031">
        <ele>265.936650</ele>
        <time>2020-07-10T15:51:25.259Z</time>
      </trkpt>
      <trkpt lat="48.591507" lon="16.557139">
        <ele>265.859894</ele>
        <time>2020-07-10T15:51:27.255Z</time>
      </trkpt>
      <trkpt lat="48.591417" lon="16.557250">
        <ele>265.802487</ele>
        <time>2020-07-10T15:51:29.285Z</time>
      </trkpt>
      <trkpt lat="48.591326" lon="16.557353">
        <ele>265.746300</ele>
        <time>2020-07-10T15:51:31.278Z</time>
      </trkpt>
      <trkpt lat="48.591239" lon="16.557452">
        <ele>265.692480</ele>
        <time>2020-07-10T15:51:33.261Z</time>
      </trkpt>
      <trkpt lat="48.591149" lon="16.557549">
        <ele>265.637850</ele>
        <time>2020-07-10T15:51:35.266Z</time>
      </trkpt>
      <trkpt lat="48.591056" lon="16.557656">
        <ele>265.580087</ele>
        <time>2020-07-10T15:51:37.279Z</time>
      </trkpt>
      <trkpt lat="48.590969" lon="16.557768">
        <ele>265.523609</ele>
        <time>2020-07-10T15:51:39.277Z</time>
      </trkpt>
      <trkpt lat="48.590893" lon="16.557889">
        <ele>265.469057</ele>
        <time>2020-07-10T15:51:41.259Z</time>
      </trkpt>
      <trkpt lat="48.590832" lon="16.558044">
        <ele>265.410093</ele>
        <time>2020-07-10T15:51:43.252Z</time>
      </trkpt>
      <trkpt lat="48.590776" lon="16.558208">
        <ele>265.349754</ele>
        <time>2020-07-10T15:51:45.300Z</time>
      </trkpt>
      <trkpt lat="48.590725" lon="16.558372">
        <ele>265.290509</ele>
        <time>2020-07-10T15:51:47.277Z</time>
      </trkpt>
      <trkpt lat="48.590676" lon="16.558531">
        <ele>265.233163</ele>
        <time>2020-07-10T15:51:49.253Z</time>
      </trkpt>
      <trkpt lat="48.590635" lon="16.558697">
        <ele>265.175233</ele>
        <time>2020-07-10T15:51:51.282Z</time>
      </trkpt>
      <trkpt lat="48.590593" lon="16.558858">
        <ele>265.118652</ele>
        <time>2020-07-10T15:51:53.262Z</time>
      </trkpt>
      <trkpt lat="48.590553" lon="16.559019">
        <ele>265.062427</ele>
        <time>2020-07-10T15:51:55.307Z</time>
      </trkpt>
      <trkpt lat="48.590511" lon="16.559180">
        <ele>265.002125</ele>
        <time>2020-07-10T15:51:57.257Z</time>
      </trkpt>
      <trkpt lat="48.590468" lon="16.559351">
        <ele>264.865181</ele>
        <time>2020-07-10T15:51:59.289Z</time>
      </trkpt>
      <trkpt lat="48.590422" lon="16.559519">
        <ele>264.729072</ele>
        <time>2020-07-10T15:52:01.313Z</time>
      </trkpt>
      <trkpt lat="48.590374" lon="16.559681">
        <ele>264.596192</ele>
        <time>2020-07-10T15:52:03.283Z</time>
      </trkpt>
      <trkpt lat="48.590332" lon="16.559841">
        <ele>264.467334</ele>
        <time>2020-07-10T15:52:05.272Z</time>
      </trkpt>
      <trkpt lat="48.590293" lon="16.559999">
        <ele>264.341092</ele>
        <time>2020-07-10T15:52:07.258Z</time>
      </trkpt>
      <trkpt lat="48.590255" lon="16.560159">
        <ele>264.213834</ele>
        <time>2020-07-10T15:52:09.262Z</time>
      </trkpt>
      <trkpt lat="48.590218" lon="16.560325">
        <ele>264.082705</ele>
        <time>2020-07-10T15:52:11.289Z</time>
      </trkpt>
      <trkpt lat="48.590178" lon="16.560487">
        <ele>263.953262</ele>
        <time>2020-07-10T15:52:13.276Z</time>
      </trkpt>
      <trkpt lat="48.590128" lon="16.560652">
        <ele>263.817402</ele>
        <time>2020-07-10T15:52:15.256Z</time>
      </trkpt>
      <trkpt lat="48.590084" lon="16.560818">
        <ele>263.683532</ele>
        <time>2020-07-10T15:52:17.255Z</time>
      </trkpt>
      <trkpt lat="48.590043" lon="16.560983">
        <ele>263.551589</ele>
        <time>2020-07-10T15:52:19.314Z</time>
      </trkpt>
      <trkpt lat="48.589998" lon="16.561147">
        <ele>263.418678</ele>
        <time>2020-07-10T15:52:21.268Z</time>
      </trkpt>
      <trkpt lat="48.589957" lon="16.561311">
        <ele>263.287436</ele>
        <time>2020-07-10T15:52:23.274Z</time>
      </trkpt>
      <trkpt lat="48.589903" lon="16.561449">
        <ele>263.167408</ele>
        <time>2020-07-10T15:52:25.248Z</time>
      </trkpt>
      <trkpt lat="48.589799" lon="16.561420">
        <ele>263.047723</ele>
        <time>2020-07-10T15:52:28.269Z</time>
      </trkpt>
      <trkpt lat="48.589757" lon="16.561564">
        <ele>262.892038</ele>
        <time>2020-07-10T15:52:32.284Z</time>
      </trkpt>
      <trkpt lat="48.589740" lon="16.561728">
        <ele>262.658914</ele>
        <time>2020-07-10T15:52:35.263Z</time>
      </trkpt>
      <trkpt lat="48.589716" lon="16.561897">
        <ele>262.416170</ele>
        <time>2020-07-10T15:52:38.296Z</time>
      </trkpt>
      <trkpt lat="48.589680" lon="16.562037">
        <ele>262.205226</ele>
        <time>2020-07-10T15:52:40.274Z</time>
      </trkpt>
      <trkpt lat="48.589637" lon="16.562180">
        <ele>261.984625</ele>
        <time>2020-07-10T15:52:42.291Z</time>
      </trkpt>
      <trkpt lat="48.589590" lon="16.562351">
        <ele>261.724573</ele>
        <time>2020-07-10T15:52:44.304Z</time>
      </trkpt>
      <trkpt lat="48.589535" lon="16.562542">
        <ele>261.432025</ele>
        <time>2020-07-10T15:52:46.302Z</time>
      </trkpt>
      <trkpt lat="48.589485" lon="16.562708">
        <ele>261.175869</ele>
        <time>2020-07-10T15:52:48.276Z</time>
      </trkpt>
      <trkpt lat="48.589434" lon="16.562874">
        <ele>260.918825</ele>
        <time>2020-07-10T15:52:50.295Z</time>
      </trkpt>
      <trkpt lat="48.589376" lon="16.563033">
        <ele>260.663827</ele>
        <time>2020-07-10T15:52:52.278Z</time>
      </trkpt>
      <trkpt lat="48.589314" lon="16.563182">
        <ele>260.416616</ele>
        <time>2020-07-10T15:52:54.284Z</time>
      </trkpt>
      <trkpt lat="48.589246" lon="16.563333">
        <ele>260.160075</ele>
        <time>2020-07-10T15:52:56.258Z</time>
      </trkpt>
      <trkpt lat="48.589171" lon="16.563473">
        <ele>259.907069</ele>
        <time>2020-07-10T15:52:58.268Z</time>
      </trkpt>
      <trkpt lat="48.589099" lon="16.563610">
        <ele>259.661334</ele>
        <time>2020-07-10T15:53:00.254Z</time>
      </trkpt>
      <trkpt lat="48.589024" lon="16.563733">
        <ele>259.426399</ele>
        <time>2020-07-10T15:53:02.258Z</time>
      </trkpt>
      <trkpt lat="48.588952" lon="16.563860">
        <ele>259.191497</ele>
        <time>2020-07-10T15:53:04.276Z</time>
      </trkpt>
      <trkpt lat="48.588875" lon="16.563978">
        <ele>259.069478</ele>
        <time>2020-07-10T15:53:06.285Z</time>
      </trkpt>
      <trkpt lat="48.588790" lon="16.564083">
        <ele>258.968373</ele>
        <time>2020-07-10T15:53:08.264Z</time>
      </trkpt>
      <trkpt lat="48.588710" lon="16.564193">
        <ele>258.868767</ele>
        <time>2020-07-10T15:53:10.256Z</time>
      </trkpt>
      <trkpt lat="48.588622" lon="16.564297">
        <ele>258.765884</ele>
        <time>2020-07-10T15:53:12.281Z</time>
      </trkpt>
      <trkpt lat="48.588530" lon="16.564388">
        <ele>258.664617</ele>
        <time>2020-07-10T15:53:14.270Z</time>
      </trkpt>
      <trkpt lat="48.588434" lon="16.564474">
        <ele>258.561834</ele>
        <time>2020-07-10T15:53:16.269Z</time>
      </trkpt>
      <trkpt lat="48.588333" lon="16.564545">
        <ele>258.459238</ele>
        <time>2020-07-10T15:53:18.266Z</time>
      </trkpt>
      <trkpt lat="48.588229" lon="16.564612">
        <ele>258.355110</ele>
        <time>2020-07-10T15:53:20.285Z</time>
      </trkpt>
      <trkpt lat="48.588128" lon="16.564672">
        <ele>258.255155</ele>
        <time>2020-07-10T15:53:22.317Z</time>
      </trkpt>
      <trkpt lat="48.588025" lon="16.564718">
        <ele>258.156230</ele>
        <time>2020-07-10T15:53:24.270Z</time>
      </trkpt>
      <trkpt lat="48.587915" lon="16.564765">
        <ele>258.050941</ele>
        <time>2020-07-10T15:53:26.266Z</time>
      </trkpt>
      <trkpt lat="48.587801" lon="16.564795">
        <ele>257.944358</ele>
        <time>2020-07-10T15:53:28.301Z</time>
      </trkpt>
      <trkpt lat="48.587657" lon="16.564823">
        <ele>257.810628</ele>
        <time>2020-07-10T15:53:30.283Z</time>
      </trkpt>
      <trkpt lat="48.587515" lon="16.564842">
        <ele>257.679322</ele>
        <time>2020-07-10T15:53:32.254Z</time>
      </trkpt>
      <trkpt lat="48.587391" lon="16.564845">
        <ele>257.565092</ele>
        <time>2020-07-10T15:53:34.284Z</time>
      </trkpt>
      <trkpt lat="48.587274" lon="16.564847">
        <ele>257.469903</ele>
        <time>2020-07-10T15:53:36.254Z</time>
      </trkpt>
      <trkpt lat="48.587172" lon="16.564841">
        <ele>257.405227</ele>
        <time>2020-07-10T15:53:38.287Z</time>
      </trkpt>
      <trkpt lat="48.587133" lon="16.564969">
        <ele>257.346163</ele>
        <time>2020-07-10T15:53:41.263Z</time>
      </trkpt>
      <trkpt lat="48.587059" lon="16.565077">
        <ele>257.280993</ele>
        <time>2020-07-10T15:53:46.263Z</time>
      </trkpt>
      <trkpt lat="48.586960" lon="16.565103">
        <ele>257.217327</ele>
        <time>2020-07-10T15:53:49.258Z</time>
      </trkpt>
      <trkpt lat="48.586840" lon="16.565143">
        <ele>257.139469</ele>
        <time>2020-07-10T15:53:52.297Z</time>
      </trkpt>
      <trkpt lat="48.586753" lon="16.565179">
        <ele>257.082319</ele>
        <time>2020-07-10T15:53:54.252Z</time>
      </trkpt>
      <trkpt lat="48.586660" lon="16.565208">
        <ele>257.022154</ele>
        <time>2020-07-10T15:53:56.251Z</time>
      </trkpt>
      <trkpt lat="48.586533" lon="16.565261">
        <ele>256.938677</ele>
        <time>2020-07-10T15:53:59.268Z</time>
      </trkpt>
      <trkpt lat="48.586444" lon="16.565289">
        <ele>256.881079</ele>
        <time>2020-07-10T15:54:01.268Z</time>
      </trkpt>
      <trkpt lat="48.586353" lon="16.565296">
        <ele>256.823347</ele>
        <time>2020-07-10T15:54:03.280Z</time>
      </trkpt>
      <trkpt lat="48.586225" lon="16.565265">
        <ele>256.741212</ele>
        <time>2020-07-10T15:54:06.272Z</time>
      </trkpt>
      <trkpt lat="48.586099" lon="16.565228">
        <ele>256.659887</ele>
        <time>2020-07-10T15:54:09.281Z</time>
      </trkpt>
      <trkpt lat="48.585976" lon="16.565191">
        <ele>256.580426</ele>
        <time>2020-07-10T15:54:12.274Z</time>
      </trkpt>
      <trkpt lat="48.585849" lon="16.565147">
        <ele>256.497873</ele>
        <time>2020-07-10T15:54:15.277Z</time>
      </trkpt>
      <trkpt lat="48.585720" lon="16.565117">
        <ele>256.415178</ele>
        <time>2020-07-10T15:54:18.295Z</time>
      </trkpt>
      <trkpt lat="48.585589" lon="16.565086">
        <ele>256.340215</ele>
        <time>2020-07-10T15:54:21.272Z</time>
      </trkpt>
      <trkpt lat="48.585495" lon="16.565063">
        <ele>256.300211</ele>
        <time>2020-07-10T15:54:23.317Z</time>
      </trkpt>
      <trkpt lat="48.585403" lon="16.565038">
        <ele>256.260941</ele>
        <time>2020-07-10T15:54:25.255Z</time>
      </trkpt>
      <trkpt lat="48.585311" lon="16.565014">
        <ele>256.221720</ele>
        <time>2020-07-10T15:54:27.266Z</time>
      </trkpt>
      <trkpt lat="48.585218" lon="16.564989">
        <ele>256.182037</ele>
        <time>2020-07-10T15:54:29.270Z</time>
      </trkpt>
      <trkpt lat="48.585119" lon="16.564969">
        <ele>256.140076</ele>
        <time>2020-07-10T15:54:31.275Z</time>
      </trkpt>
      <trkpt lat="48.585022" lon="16.564958">
        <ele>256.099211</ele>
        <time>2020-07-10T15:54:33.281Z</time>
      </trkpt>
      <trkpt lat="48.584929" lon="16.564942">
        <ele>256.059888</ele>
        <time>2020-07-10T15:54:35.285Z</time>
      </trkpt>
      <trkpt lat="48.584830" lon="16.564926">
        <ele>256.018060</ele>
        <time>2020-07-10T15:54:37.299Z</time>
      </trkpt>
      <trkpt lat="48.584728" lon="16.564914">
        <ele>255.975080</ele>
        <time>2020-07-10T15:54:39.261Z</time>
      </trkpt>
      <trkpt lat="48.584624" lon="16.564904">
        <ele>255.931300</ele>
        <time>2020-07-10T15:54:41.273Z</time>
      </trkpt>
      <trkpt lat="48.584518" lon="16.564887">
        <ele>255.886518</ele>
        <time>2020-07-10T15:54:43.275Z</time>
      </trkpt>
      <trkpt lat="48.584412" lon="16.564866">
        <ele>255.841606</ele>
        <time>2020-07-10T15:54:45.256Z</time>
      </trkpt>
      <trkpt lat="48.584299" lon="16.564851">
        <ele>255.793951</ele>
        <time>2020-07-10T15:54:47.272Z</time>
      </trkpt>
      <trkpt lat="48.584187" lon="16.564836">
        <ele>255.746714</ele>
        <time>2020-07-10T15:54:49.260Z</time>
      </trkpt>
      <trkpt lat="48.584074" lon="16.564827">
        <ele>255.699176</ele>
        <time>2020-07-10T15:54:51.264Z</time>
      </trkpt>
      <trkpt lat="48.583960" lon="16.564814">
        <ele>255.651147</ele>
        <time>2020-07-10T15:54:53.296Z</time>
      </trkpt>
      <trkpt lat="48.583841" lon="16.564813">
        <ele>255.601948</ele>
        <time>2020-07-10T15:54:55.274Z</time>
      </trkpt>
      <trkpt lat="48.583721" lon="16.564831">
        <ele>255.583727</ele>
        <time>2020-07-10T15:54:57.279Z</time>
      </trkpt>
      <trkpt lat="48.583604" lon="16.564863">
        <ele>255.565760</ele>
        <time>2020-07-10T15:54:59.248Z</time>
      </trkpt>
      <trkpt lat="48.583493" lon="16.564909">
        <ele>255.548368</ele>
        <time>2020-07-10T15:55:01.270Z</time>
      </trkpt>
      <trkpt lat="48.583378" lon="16.564962">
        <ele>255.530201</ele>
        <time>2020-07-10T15:55:03.288Z</time>
      </trkpt>
      <trkpt lat="48.583261" lon="16.565024">
        <ele>255.511467</ele>
        <time>2020-07-10T15:55:05.269Z</time>
      </trkpt>
      <trkpt lat="48.583143" lon="16.565086">
        <ele>255.492590</ele>
        <time>2020-07-10T15:55:07.275Z</time>
      </trkpt>
      <trkpt lat="48.583026" lon="16.565150">
        <ele>255.473789</ele>
        <time>2020-07-10T15:55:09.287Z</time>
      </trkpt>
      <trkpt lat="48.582915" lon="16.565210">
        <ele>255.455976</ele>
        <time>2020-07-10T15:55:11.251Z</time>
      </trkpt>
      <trkpt lat="48.582805" lon="16.565273">
        <ele>255.438201</ele>
        <time>2020-07-10T15:55:13.258Z</time>
      </trkpt>
      <trkpt lat="48.582695" lon="16.565335">
        <ele>255.420461</ele>
        <time>2020-07-10T15:55:15.282Z</time>
      </trkpt>
      <trkpt lat="48.582589" lon="16.565399">
        <ele>255.403214</ele>
        <time>2020-07-10T15:55:17.251Z</time>
      </trkpt>
      <trkpt lat="48.582484" lon="16.565465">
        <ele>255.386030</ele>
        <time>2020-07-10T15:55:19.291Z</time>
      </trkpt>
      <trkpt lat="48.582374" lon="16.565537">
        <ele>255.367917</ele>
        <time>2020-07-10T15:55:21.267Z</time>
      </trkpt>
      <trkpt lat="48.582267" lon="16.565600">
        <ele>255.350566</ele>
        <time>2020-07-10T15:55:23.289Z</time>
      </trkpt>
      <trkpt lat="48.582159" lon="16.565607">
        <ele>255.334231</ele>
        <time>2020-07-10T15:55:26.274Z</time>
      </trkpt>
      <trkpt lat="48.582110" lon="16.565489">
        <ele>255.299315</ele>
        <time>2020-07-10T15:55:29.295Z</time>
      </trkpt>
      <trkpt lat="48.582005" lon="16.565574">
        <ele>255.244654</ele>
        <time>2020-07-10T15:55:33.269Z</time>
      </trkpt>
      <trkpt lat="48.581882" lon="16.565637">
        <ele>255.185055</ele>
        <time>2020-07-10T15:55:36.327Z</time>
      </trkpt>
      <trkpt lat="48.581755" lon="16.565704">
        <ele>255.123325</ele>
        <time>2020-07-10T15:55:39.258Z</time>
      </trkpt>
      <trkpt lat="48.581667" lon="16.565744">
        <ele>255.081154</ele>
        <time>2020-07-10T15:55:41.267Z</time>
      </trkpt>
      <trkpt lat="48.581577" lon="16.565787">
        <ele>255.037837</ele>
        <time>2020-07-10T15:55:43.259Z</time>
      </trkpt>
      <trkpt lat="48.581484" lon="16.565848">
        <ele>254.991314</ele>
        <time>2020-07-10T15:55:45.251Z</time>
      </trkpt>
      <trkpt lat="48.581390" lon="16.565909">
        <ele>254.944368</ele>
        <time>2020-07-10T15:55:47.268Z</time>
      </trkpt>
      <trkpt lat="48.581294" lon="16.565967">
        <ele>254.896924</ele>
        <time>2020-07-10T15:55:49.280Z</time>
      </trkpt>
      <trkpt lat="48.581194" lon="16.566022">
        <ele>254.848089</ele>
        <time>2020-07-10T15:55:51.257Z</time>
      </trkpt>
      <trkpt lat="48.581094" lon="16.566078">
        <ele>254.799149</ele>
        <time>2020-07-10T15:55:53.267Z</time>
      </trkpt>
      <trkpt lat="48.580992" lon="16.566149">
        <ele>254.747615</ele>
        <time>2020-07-10T15:55:55.275Z</time>
      </trkpt>
      <trkpt lat="48.580893" lon="16.566220">
        <ele>254.697328</ele>
        <time>2020-07-10T15:55:57.265Z</time>
      </trkpt>
      <trkpt lat="48.580791" lon="16.566287">
        <ele>254.646290</ele>
        <time>2020-07-10T15:55:59.256Z</time>
      </trkpt>
      <trkpt lat="48.580685" lon="16.566351">
        <ele>254.593908</ele>
        <time>2020-07-10T15:56:01.310Z</time>
      </trkpt>
      <trkpt lat="48.580576" lon="16.566412">
        <ele>254.540568</ele>
        <time>2020-07-10T15:56:03.281Z</time>
      </trkpt>
      <trkpt lat="48.580472" lon="16.566469">
        <ele>254.512055</ele>
        <time>2020-07-10T15:56:05.275Z</time>
      </trkpt>
      <trkpt lat="48.580369" lon="16.566526">
        <ele>254.534541</ele>
        <time>2020-07-10T15:56:07.257Z</time>
      </trkpt>
      <trkpt lat="48.580263" lon="16.566582">
        <ele>254.557560</ele>
        <time>2020-07-10T15:56:09.264Z</time>
      </trkpt>
      <trkpt lat="48.580146" lon="16.566636">
        <ele>254.582638</ele>
        <time>2020-07-10T15:56:11.283Z</time>
      </trkpt>
      <trkpt lat="48.580059" lon="16.566675">
        <ele>254.601241</ele>
        <time>2020-07-10T15:56:13.284Z</time>
      </trkpt>
      <trkpt lat="48.579943" lon="16.566694">
        <ele>254.625160</ele>
        <time>2020-07-10T15:56:17.264Z</time>
      </trkpt>
      <trkpt lat="48.579842" lon="16.566761">
        <ele>254.647772</ele>
        <time>2020-07-10T15:56:21.275Z</time>
      </trkpt>
      <trkpt lat="48.579750" lon="16.566818">
        <ele>254.668154</ele>
        <time>2020-07-10T15:56:24.274Z</time>
      </trkpt>
      <trkpt lat="48.579638" lon="16.566884">
        <ele>254.692798</ele>
        <time>2020-07-10T15:56:27.258Z</time>
      </trkpt>
      <trkpt lat="48.579536" lon="16.566959">
        <ele>254.716051</ele>
        <time>2020-07-10T15:56:30.261Z</time>
      </trkpt>
      <trkpt lat="48.579427" lon="16.567012">
        <ele>254.739523</ele>
        <time>2020-07-10T15:56:33.262Z</time>
      </trkpt>
      <trkpt lat="48.579335" lon="16.567055">
        <ele>254.759265</ele>
        <time>2020-07-10T15:56:35.251Z</time>
      </trkpt>
      <trkpt lat="48.579236" lon="16.567101">
        <ele>254.780497</ele>
        <time>2020-07-10T15:56:37.252Z</time>
      </trkpt>
      <trkpt lat="48.579132" lon="16.567149">
        <ele>254.802789</ele>
        <time>2020-07-10T15:56:39.265Z</time>
      </trkpt>
      <trkpt lat="48.579033" lon="16.567201">
        <ele>254.824274</ele>
        <time>2020-07-10T15:56:41.279Z</time>
      </trkpt>
      <trkpt lat="48.578933" lon="16.567263">
        <ele>254.846432</ele>
        <time>2020-07-10T15:56:43.284Z</time>
      </trkpt>
      <trkpt lat="48.578827" lon="16.567322">
        <ele>254.869588</ele>
        <time>2020-07-10T15:56:45.260Z</time>
      </trkpt>
      <trkpt lat="48.578713" lon="16.567385">
        <ele>254.877755</ele>
        <time>2020-07-10T15:56:47.277Z</time>
      </trkpt>
      <trkpt lat="48.578610" lon="16.567447">
        <ele>254.882008</ele>
        <time>2020-07-10T15:56:49.282Z</time>
      </trkpt>
      <trkpt lat="48.578514" lon="16.567514">
        <ele>254.886065</ele>
        <time>2020-07-10T15:56:51.254Z</time>
      </trkpt>
      <trkpt lat="48.578442" lon="16.567621">
        <ele>254.889938</ele>
        <time>2020-07-10T15:56:53.259Z</time>
      </trkpt>
      <trkpt lat="48.578383" lon="16.567727">
        <ele>254.893454</ele>
        <time>2020-07-10T15:56:55.268Z</time>
      </trkpt>
      <trkpt lat="48.578300" lon="16.567795">
        <ele>254.897076</ele>
        <time>2020-07-10T15:56:57.275Z</time>
      </trkpt>
      <trkpt lat="48.578211" lon="16.567839">
        <ele>254.900668</ele>
        <time>2020-07-10T15:56:59.275Z</time>
      </trkpt>
      <trkpt lat="48.578123" lon="16.567893">
        <ele>254.904312</ele>
        <time>2020-07-10T15:57:01.262Z</time>
      </trkpt>
      <trkpt lat="48.578036" lon="16.567945">
        <ele>254.907901</ele>
        <time>2020-07-10T15:57:03.253Z</time>
      </trkpt>
      <trkpt lat="48.577955" lon="16.568018">
        <ele>254.911519</ele>
        <time>2020-07-10T15:57:05.283Z</time>
      </trkpt>
      <trkpt lat="48.577879" lon="16.568108">
        <ele>254.915223</ele>
        <time>2020-07-10T15:57:07.259Z</time>
      </trkpt>
      <trkpt lat="48.577793" lon="16.568206">
        <ele>254.919355</ele>
        <time>2020-07-10T15:57:09.261Z</time>
      </trkpt>
      <trkpt lat="48.577707" lon="16.568308">
        <ele>254.923549</ele>
        <time>2020-07-10T15:57:11.268Z</time>
      </trkpt>
      <trkpt lat="48.577616" lon="16.568407">
        <ele>254.927850</ele>
        <time>2020-07-10T15:57:13.266Z</time>
      </trkpt>
      <trkpt lat="48.577503" lon="16.568473">
        <ele>254.932497</ele>
        <time>2020-07-10T15:57:15.259Z</time>
      </trkpt>
      <trkpt lat="48.577400" lon="16.568524">
        <ele>254.936655</ele>
        <time>2020-07-10T15:57:17.261Z</time>
      </trkpt>
      <trkpt lat="48.577297" lon="16.568586">
        <ele>254.940909</ele>
        <time>2020-07-10T15:57:19.290Z</time>
      </trkpt>
      <trkpt lat="48.577190" lon="16.568656">
        <ele>254.924605</ele>
        <time>2020-07-10T15:57:21.298Z</time>
      </trkpt>
      <trkpt lat="48.577085" lon="16.568727">
        <ele>254.891943</ele>
        <time>2020-07-10T15:57:23.279Z</time>
      </trkpt>
      <trkpt lat="48.576984" lon="16.568786">
        <ele>254.861197</ele>
        <time>2020-07-10T15:57:25.281Z</time>
      </trkpt>
      <trkpt lat="48.576881" lon="16.568844">
        <ele>254.829987</ele>
        <time>2020-07-10T15:57:27.297Z</time>
      </trkpt>
      <trkpt lat="48.576775" lon="16.568895">
        <ele>254.798401</ele>
        <time>2020-07-10T15:57:29.272Z</time>
      </trkpt>
      <trkpt lat="48.576666" lon="16.568952">
        <ele>254.765651</ele>
        <time>2020-07-10T15:57:31.281Z</time>
      </trkpt>
      <trkpt lat="48.576556" lon="16.569028">
        <ele>254.731308</ele>
        <time>2020-07-10T15:57:33.275Z</time>
      </trkpt>
      <trkpt lat="48.576465" lon="16.569107">
        <ele>254.701510</ele>
        <time>2020-07-10T15:57:35.274Z</time>
      </trkpt>
      <trkpt lat="48.576372" lon="16.569199">
        <ele>254.669950</ele>
        <time>2020-07-10T15:57:37.292Z</time>
      </trkpt>
      <trkpt lat="48.576275" lon="16.569281">
        <ele>254.638392</ele>
        <time>2020-07-10T15:57:39.257Z</time>
      </trkpt>
      <trkpt lat="48.576172" lon="16.569362">
        <ele>254.605423</ele>
        <time>2020-07-10T15:57:41.281Z</time>
      </trkpt>
      <trkpt lat="48.576075" lon="16.569444">
        <ele>254.573865</ele>
        <time>2020-07-10T15:57:43.435Z</time>
      </trkpt>
      <trkpt lat="48.575990" lon="16.569519">
        <ele>254.545918</ele>
        <time>2020-07-10T15:57:45.283Z</time>
      </trkpt>
      <trkpt lat="48.575898" lon="16.569604">
        <ele>254.515301</ele>
        <time>2020-07-10T15:57:47.294Z</time>
      </trkpt>
      <trkpt lat="48.575805" lon="16.569692">
        <ele>254.484146</ele>
        <time>2020-07-10T15:57:49.292Z</time>
      </trkpt>
      <trkpt lat="48.575707" lon="16.569788">
        <ele>254.450985</ele>
        <time>2020-07-10T15:57:51.283Z</time>
      </trkpt>
      <trkpt lat="48.575626" lon="16.569884">
        <ele>254.425552</ele>
        <time>2020-07-10T15:57:53.308Z</time>
      </trkpt>
      <trkpt lat="48.575529" lon="16.570010">
        <ele>254.402444</ele>
        <time>2020-07-10T15:57:55.281Z</time>
      </trkpt>
      <trkpt lat="48.575442" lon="16.570131">
        <ele>254.381083</ele>
        <time>2020-07-10T15:57:57.306Z</time>
      </trkpt>
      <trkpt lat="48.575360" lon="16.570250">
        <ele>254.360544</ele>
        <time>2020-07-10T15:57:59.270Z</time>
      </trkpt>
      <trkpt lat="48.575288" lon="16.570373">
        <ele>254.340912</ele>
        <time>2020-07-10T15:58:01.258Z</time>
      </trkpt>
      <trkpt lat="48.575217" lon="16.570499">
        <ele>254.321127</ele>
        <time>2020-07-10T15:58:03.250Z</time>
      </trkpt>
      <trkpt lat="48.575148" lon="16.570627">
        <ele>254.301390</ele>
        <time>2020-07-10T15:58:05.280Z</time>
      </trkpt>
      <trkpt lat="48.575083" lon="16.570742">
        <ele>254.283310</ele>
        <time>2020-07-10T15:58:07.292Z</time>
      </trkpt>
      <trkpt lat="48.575022" lon="16.570854">
        <ele>254.265968</ele>
        <time>2020-07-10T15:58:09.258Z</time>
      </trkpt>
      <trkpt lat="48.574958" lon="16.570953">
        <ele>254.249423</ele>
        <time>2020-07-10T15:58:11.280Z</time>
      </trkpt>
      <trkpt lat="48.574881" lon="16.571054">
        <ele>254.231002</ele>
        <time>2020-07-10T15:58:13.263Z</time>
      </trkpt>
      <trkpt lat="48.574805" lon="16.571148">
        <ele>254.213259</ele>
        <time>2020-07-10T15:58:15.253Z</time>
      </trkpt>
      <trkpt lat="48.574723" lon="16.571233">
        <ele>254.195294</ele>
        <time>2020-07-10T15:58:17.265Z</time>
      </trkpt>
      <trkpt lat="48.574645" lon="16.571305">
        <ele>254.178781</ele>
        <time>2020-07-10T15:58:19.277Z</time>
      </trkpt>
      <trkpt lat="48.574562" lon="16.571374">
        <ele>254.161666</ele>
        <time>2020-07-10T15:58:21.249Z</time>
      </trkpt>
      <trkpt lat="48.574465" lon="16.571469">
        <ele>254.140783</ele>
        <time>2020-07-10T15:58:24.279Z</time>
      </trkpt>
      <trkpt lat="48.574382" lon="16.571533">
        <ele>254.123948</ele>
        <time>2020-07-10T15:58:34.255Z</time>
      </trkpt>
      <trkpt lat="48.574296" lon="16.571595">
        <ele>254.106299</ele>
        <time>2020-07-10T15:58:37.304Z</time>
      </trkpt>
      <trkpt lat="48.574203" lon="16.571648">
        <ele>254.072403</ele>
        <time>2020-07-10T15:58:40.276Z</time>
      </trkpt>
      <trkpt lat="48.574056" lon="16.571666">
        <ele>254.022108</ele>
        <time>2020-07-10T15:58:43.276Z</time>
      </trkpt>
      <trkpt lat="48.573956" lon="16.571691">
        <ele>253.987541</ele>
        <time>2020-07-10T15:58:45.275Z</time>
      </trkpt>
      <trkpt lat="48.573868" lon="16.571797">
        <ele>253.949165</ele>
        <time>2020-07-10T15:58:47.260Z</time>
      </trkpt>
      <trkpt lat="48.573779" lon="16.571898">
        <ele>253.911210</ele>
        <time>2020-07-10T15:58:49.256Z</time>
      </trkpt>
      <trkpt lat="48.573685" lon="16.571970">
        <ele>253.875272</ele>
        <time>2020-07-10T15:58:51.257Z</time>
      </trkpt>
      <trkpt lat="48.573584" lon="16.572039">
        <ele>253.837472</ele>
        <time>2020-07-10T15:58:53.307Z</time>
      </trkpt>
      <trkpt lat="48.573483" lon="16.572101">
        <ele>253.800295</ele>
        <time>2020-07-10T15:58:55.301Z</time>
      </trkpt>
      <trkpt lat="48.573387" lon="16.572169">
        <ele>253.764139</ele>
        <time>2020-07-10T15:58:57.286Z</time>
      </trkpt>
      <trkpt lat="48.573293" lon="16.572246">
        <ele>253.727677</ele>
        <time>2020-07-10T15:58:59.282Z</time>
      </trkpt>
      <trkpt lat="48.573197" lon="16.572318">
        <ele>253.691128</ele>
        <time>2020-07-10T15:59:01.265Z</time>
      </trkpt>
      <trkpt lat="48.573100" lon="16.572370">
        <ele>253.656029</ele>
        <time>2020-07-10T15:59:03.272Z</time>
      </trkpt>
      <trkpt lat="48.572994" lon="16.572368">
        <ele>253.619877</ele>
        <time>2020-07-10T15:59:05.277Z</time>
      </trkpt>
      <trkpt lat="48.572890" lon="16.572358">
        <ele>253.584339</ele>
        <time>2020-07-10T15:59:07.288Z</time>
      </trkpt>
      <trkpt lat="48.572786" lon="16.572350">
        <ele>253.548826</ele>
        <time>2020-07-10T15:59:09.263Z</time>
      </trkpt>
      <trkpt lat="48.572689" lon="16.572348">
        <ele>253.515743</ele>
        <time>2020-07-10T15:59:11.252Z</time>
      </trkpt>
      <trkpt lat="48.572582" lon="16.572403">
        <ele>253.471922</ele>
        <time>2020-07-10T15:59:15.256Z</time>
      </trkpt>
      <trkpt lat="48.572484" lon="16.572501">
        <ele>253.419132</ele>
        <time>2020-07-10T15:59:19.248Z</time>
      </trkpt>
      <trkpt lat="48.572393" lon="16.572623">
        <ele>253.364484</ele>
        <time>2020-07-10T15:59:22.283Z</time>
      </trkpt>
      <trkpt lat="48.572326" lon="16.572721">
        <ele>253.322597</ele>
        <time>2020-07-10T15:59:24.257Z</time>
      </trkpt>
      <trkpt lat="48.572231" lon="16.572865">
        <ele>253.262152</ele>
        <time>2020-07-10T15:59:27.316Z</time>
      </trkpt>
      <trkpt lat="48.572157" lon="16.572966">
        <ele>253.217358</ele>
        <time>2020-07-10T15:59:29.276Z</time>
      </trkpt>
      <trkpt lat="48.572078" lon="16.573066">
        <ele>253.171064</ele>
        <time>2020-07-10T15:59:31.264Z</time>
      </trkpt>
      <trkpt lat="48.572008" lon="16.573162">
        <ele>253.128599</ele>
        <time>2020-07-10T15:59:33.273Z</time>
      </trkpt>
      <trkpt lat="48.571899" lon="16.573293">
        <ele>253.066036</ele>
        <time>2020-07-10T15:59:36.284Z</time>
      </trkpt>
      <trkpt lat="48.571827" lon="16.573392">
        <ele>253.022307</ele>
        <time>2020-07-10T15:59:38.267Z</time>
      </trkpt>
      <trkpt lat="48.571758" lon="16.573494">
        <ele>252.978946</ele>
        <time>2020-07-10T15:59:40.285Z</time>
      </trkpt>
      <trkpt lat="48.571683" lon="16.573609">
        <ele>252.930948</ele>
        <time>2020-07-10T15:59:42.259Z</time>
      </trkpt>
      <trkpt lat="48.571600" lon="16.573737">
        <ele>252.877675</ele>
        <time>2020-07-10T15:59:44.255Z</time>
      </trkpt>
      <trkpt lat="48.571514" lon="16.573838">
        <ele>252.828747</ele>
        <time>2020-07-10T15:59:46.290Z</time>
      </trkpt>
      <trkpt lat="48.571408" lon="16.573849">
        <ele>252.781015</ele>
        <time>2020-07-10T15:59:48.288Z</time>
      </trkpt>
      <trkpt lat="48.571300" lon="16.573840">
        <ele>252.732423</ele>
        <time>2020-07-10T15:59:50.274Z</time>
      </trkpt>
      <trkpt lat="48.571196" lon="16.573812">
        <ele>252.685376</ele>
        <time>2020-07-10T15:59:52.264Z</time>
      </trkpt>
      <trkpt lat="48.571090" lon="16.573776">
        <ele>252.660361</ele>
        <time>2020-07-10T15:59:54.286Z</time>
      </trkpt>
      <trkpt lat="48.570987" lon="16.573757">
        <ele>252.636469</ele>
        <time>2020-07-10T15:59:56.250Z</time>
      </trkpt>
      <trkpt lat="48.570869" lon="16.573754">
        <ele>252.609296</ele>
        <time>2020-07-10T15:59:58.273Z</time>
      </trkpt>
      <trkpt lat="48.570761" lon="16.573753">
        <ele>252.584428</ele>
        <time>2020-07-10T16:00:00.246Z</time>
      </trkpt>
      <trkpt lat="48.570660" lon="16.573743">
        <ele>252.561123</ele>
        <time>2020-07-10T16:00:02.277Z</time>
      </trkpt>
      <trkpt lat="48.570561" lon="16.573714">
        <ele>252.537904</ele>
        <time>2020-07-10T16:00:04.264Z</time>
      </trkpt>
      <trkpt lat="48.570457" lon="16.573716">
        <ele>252.513956</ele>
        <time>2020-07-10T16:00:06.252Z</time>
      </trkpt>
      <trkpt lat="48.570352" lon="16.573719">
        <ele>252.489775</ele>
        <time>2020-07-10T16:00:08.288Z</time>
      </trkpt>
      <trkpt lat="48.570244" lon="16.573726">
        <ele>252.464885</ele>
        <time>2020-07-10T16:00:10.272Z</time>
      </trkpt>
      <trkpt lat="48.570132" lon="16.573724">
        <ele>252.439095</ele>
        <time>2020-07-10T16:00:12.254Z</time>
      </trkpt>
      <trkpt lat="48.570029" lon="16.573735">
        <ele>252.415320</ele>
        <time>2020-07-10T16:00:14.299Z</time>
      </trkpt>
      <trkpt lat="48.569930" lon="16.573751">
        <ele>252.392395</ele>
        <time>2020-07-10T16:00:16.276Z</time>
      </trkpt>
      <trkpt lat="48.569828" lon="16.573781">
        <ele>252.368469</ele>
        <time>2020-07-10T16:00:18.254Z</time>
      </trkpt>
      <trkpt lat="48.569731" lon="16.573819">
        <ele>252.345397</ele>
        <time>2020-07-10T16:00:21.308Z</time>
      </trkpt>
      <trkpt lat="48.569629" lon="16.573836">
        <ele>252.321769</ele>
        <time>2020-07-10T16:00:24.269Z</time>
      </trkpt>
      <trkpt lat="48.569504" lon="16.573871">
        <ele>252.292497</ele>
        <time>2020-07-10T16:00:27.270Z</time>
      </trkpt>
      <trkpt lat="48.569411" lon="16.573917">
        <ele>252.269697</ele>
        <time>2020-07-10T16:00:29.267Z</time>
      </trkpt>
      <trkpt lat="48.569312" lon="16.573943">
        <ele>252.242898</ele>
        <time>2020-07-10T16:00:31.286Z</time>
      </trkpt>
      <trkpt lat="48.569222" lon="16.573982">
        <ele>252.217927</ele>
        <time>2020-07-10T16:00:33.253Z</time>
      </trkpt>
      <trkpt lat="48.569113" lon="16.574029">
        <ele>252.187697</ele>
        <time>2020-07-10T16:00:35.257Z</time>
      </trkpt>
      <trkpt lat="48.568999" lon="16.574081">
        <ele>252.155938</ele>
        <time>2020-07-10T16:00:37.269Z</time>
      </trkpt>
      <trkpt lat="48.568894" lon="16.574138">
        <ele>252.126182</ele>
        <time>2020-07-10T16:00:39.256Z</time>
      </trkpt>
      <trkpt lat="48.568786" lon="16.574227">
        <ele>252.093374</ele>
        <time>2020-07-10T16:00:41.272Z</time>
      </trkpt>
      <trkpt lat="48.568686" lon="16.574297">
        <ele>252.063982</ele>
        <time>2020-07-10T16:00:43.253Z</time>
      </trkpt>
      <trkpt lat="48.568609" lon="16.574372">
        <ele>252.039550</ele>
        <time>2020-07-10T16:00:45.276Z</time>
      </trkpt>
      <trkpt lat="48.568541" lon="16.574479">
        <ele>252.013368</ele>
        <time>2020-07-10T16:00:47.274Z</time>
      </trkpt>
      <trkpt lat="48.568469" lon="16.574612">
        <ele>251.983042</ele>
        <time>2020-07-10T16:00:49.295Z</time>
      </trkpt>
      <trkpt lat="48.568397" lon="16.574739">
        <ele>251.953528</ele>
        <time>2020-07-10T16:00:51.295Z</time>
      </trkpt>
      <trkpt lat="48.568334" lon="16.574855">
        <ele>251.927043</ele>
        <time>2020-07-10T16:00:53.281Z</time>
      </trkpt>
      <trkpt lat="48.568281" lon="16.574966">
        <ele>251.902886</ele>
        <time>2020-07-10T16:00:55.267Z</time>
      </trkpt>
      <trkpt lat="48.568211" lon="16.575121">
        <ele>251.869768</ele>
        <time>2020-07-10T16:00:58.267Z</time>
      </trkpt>
      <trkpt lat="48.568144" lon="16.575270">
        <ele>251.837975</ele>
        <time>2020-07-10T16:01:01.265Z</time>
      </trkpt>
      <trkpt lat="48.568062" lon="16.575380">
        <ele>251.808732</ele>
        <time>2020-07-10T16:01:04.258Z</time>
      </trkpt>
      <trkpt lat="48.567967" lon="16.575472">
        <ele>251.776302</ele>
        <time>2020-07-10T16:01:07.258Z</time>
      </trkpt>
      <trkpt lat="48.567873" lon="16.575563">
        <ele>251.741309</ele>
        <time>2020-07-10T16:01:09.268Z</time>
      </trkpt>
      <trkpt lat="48.567775" lon="16.575668">
        <ele>251.703651</ele>
        <time>2020-07-10T16:01:11.292Z</time>
      </trkpt>
      <trkpt lat="48.567675" lon="16.575762">
        <ele>251.666735</ele>
        <time>2020-07-10T16:01:13.291Z</time>
      </trkpt>
      <trkpt lat="48.567579" lon="16.575852">
        <ele>251.631322</ele>
        <time>2020-07-10T16:01:15.276Z</time>
      </trkpt>
      <trkpt lat="48.567474" lon="16.575938">
        <ele>251.593884</ele>
        <time>2020-07-10T16:01:17.275Z</time>
      </trkpt>
      <trkpt lat="48.567376" lon="16.576006">
        <ele>251.560081</ele>
        <time>2020-07-10T16:01:19.268Z</time>
      </trkpt>
      <trkpt lat="48.567275" lon="16.576085">
        <ele>251.524431</ele>
        <time>2020-07-10T16:01:22.268Z</time>
      </trkpt>
      <trkpt lat="48.567202" lon="16.576185">
        <ele>251.493546</ele>
        <time>2020-07-10T16:01:26.279Z</time>
      </trkpt>
      <trkpt lat="48.567129" lon="16.576277">
        <ele>251.463749</ele>
        <time>2020-07-10T16:01:29.267Z</time>
      </trkpt>
      <trkpt lat="48.567046" lon="16.576400">
        <ele>251.427309</ele>
        <time>2020-07-10T16:01:32.309Z</time>
      </trkpt>
      <trkpt lat="48.566942" lon="16.576527">
        <ele>251.385395</ele>
        <time>2020-07-10T16:01:35.269Z</time>
      </trkpt>
      <trkpt lat="48.566870" lon="16.576641">
        <ele>251.352705</ele>
        <time>2020-07-10T16:01:37.263Z</time>
      </trkpt>
      <trkpt lat="48.566790" lon="16.576802">
        <ele>251.310941</ele>
        <time>2020-07-10T16:01:40.287Z</time>
      </trkpt>
      <trkpt lat="48.566731" lon="16.576925">
        <ele>251.279429</ele>
        <time>2020-07-10T16:01:42.275Z</time>
      </trkpt>
      <trkpt lat="48.566667" lon="16.577045">
        <ele>251.247458</ele>
        <time>2020-07-10T16:01:44.282Z</time>
      </trkpt>
      <trkpt lat="48.566598" lon="16.577179">
        <ele>251.221879</ele>
        <time>2020-07-10T16:01:46.272Z</time>
      </trkpt>
      <trkpt lat="48.566531" lon="16.577311">
        <ele>251.208275</ele>
        <time>2020-07-10T16:01:48.274Z</time>
      </trkpt>
      <trkpt lat="48.566458" lon="16.577449">
        <ele>251.193828</ele>
        <time>2020-07-10T16:01:50.303Z</time>
      </trkpt>
      <trkpt lat="48.566388" lon="16.577568">
        <ele>251.180808</ele>
        <time>2020-07-10T16:01:52.251Z</time>
      </trkpt>
      <trkpt lat="48.566313" lon="16.577695">
        <ele>251.166889</ele>
        <time>2020-07-10T16:01:54.304Z</time>
      </trkpt>
      <trkpt lat="48.566254" lon="16.577837">
        <ele>251.153178</ele>
        <time>2020-07-10T16:01:56.284Z</time>
      </trkpt>
      <trkpt lat="48.566181" lon="16.577949">
        <ele>251.140322</ele>
        <time>2020-07-10T16:01:58.324Z</time>
      </trkpt>
      <trkpt lat="48.566112" lon="16.578064">
        <ele>251.127628</ele>
        <time>2020-07-10T16:02:00.262Z</time>
      </trkpt>
      <trkpt lat="48.566044" lon="16.578184">
        <ele>251.114709</ele>
        <time>2020-07-10T16:02:02.255Z</time>
      </trkpt>
      <trkpt lat="48.565971" lon="16.578305">
        <ele>251.101320</ele>
        <time>2020-07-10T16:02:04.265Z</time>
      </trkpt>
      <trkpt lat="48.565883" lon="16.578447">
        <ele>251.085411</ele>
        <time>2020-07-10T16:02:07.258Z</time>
      </trkpt>
      <trkpt lat="48.565804" lon="16.578556">
        <ele>251.072191</ele>
        <time>2020-07-10T16:02:11.267Z</time>
      </trkpt>
      <trkpt lat="48.565722" lon="16.578674">
        <ele>251.058199</ele>
        <time>2020-07-10T16:02:16.260Z</time>
      </trkpt>
      <trkpt lat="48.565638" lon="16.578741">
        <ele>251.046462</ele>
        <time>2020-07-10T16:02:19.268Z</time>
      </trkpt>
      <trkpt lat="48.565536" lon="16.578806">
        <ele>251.032782</ele>
        <time>2020-07-10T16:02:22.292Z</time>
      </trkpt>
      <trkpt lat="48.565428" lon="16.578887">
        <ele>251.017883</ele>
        <time>2020-07-10T16:02:25.268Z</time>
      </trkpt>
      <trkpt lat="48.565347" lon="16.578950">
        <ele>251.006626</ele>
        <time>2020-07-10T16:02:27.291Z</time>
      </trkpt>
      <trkpt lat="48.565255" lon="16.579029">
        <ele>251.017239</ele>
        <time>2020-07-10T16:02:29.293Z</time>
      </trkpt>
      <trkpt lat="48.565170" lon="16.579097">
        <ele>251.028170</ele>
        <time>2020-07-10T16:02:31.282Z</time>
      </trkpt>
      <trkpt lat="48.565090" lon="16.579164">
        <ele>251.038565</ele>
        <time>2020-07-10T16:02:33.260Z</time>
      </trkpt>
      <trkpt lat="48.565011" lon="16.579239">
        <ele>251.049168</ele>
        <time>2020-07-10T16:02:35.255Z</time>
      </trkpt>
      <trkpt lat="48.564933" lon="16.579309">
        <ele>251.059478</ele>
        <time>2020-07-10T16:02:37.268Z</time>
      </trkpt>
      <trkpt lat="48.564822" lon="16.579405">
        <ele>251.074013</ele>
        <time>2020-07-10T16:02:40.251Z</time>
      </trkpt>
      <trkpt lat="48.564755" lon="16.579532">
        <ele>251.086229</ele>
        <time>2020-07-10T16:02:42.258Z</time>
      </trkpt>
      <trkpt lat="48.564664" lon="16.579616">
        <ele>251.098348</ele>
        <time>2020-07-10T16:02:44.254Z</time>
      </trkpt>
      <trkpt lat="48.564575" lon="16.579695">
        <ele>251.110079</ele>
        <time>2020-07-10T16:02:46.267Z</time>
      </trkpt>
      <trkpt lat="48.564485" lon="16.579782">
        <ele>251.122221</ele>
        <time>2020-07-10T16:02:48.254Z</time>
      </trkpt>
      <trkpt lat="48.564400" lon="16.579862">
        <ele>251.133602</ele>
        <time>2020-07-10T16:02:50.253Z</time>
      </trkpt>
      <trkpt lat="48.564315" lon="16.579945">
        <ele>251.145103</ele>
        <time>2020-07-10T16:02:52.281Z</time>
      </trkpt>
      <trkpt lat="48.564223" lon="16.580023">
        <ele>251.157093</ele>
        <time>2020-07-10T16:02:54.257Z</time>
      </trkpt>
      <trkpt lat="48.564092" lon="16.580067">
        <ele>251.172344</ele>
        <time>2020-07-10T16:02:57.252Z</time>
      </trkpt>
      <trkpt lat="48.564000" lon="16.580108">
        <ele>251.183245</ele>
        <time>2020-07-10T16:02:59.290Z</time>
      </trkpt>
      <trkpt lat="48.563897" lon="16.580140">
        <ele>251.195196</ele>
        <time>2020-07-10T16:03:01.275Z</time>
      </trkpt>
      <trkpt lat="48.563793" lon="16.580173">
        <ele>251.207273</ele>
        <time>2020-07-10T16:03:03.259Z</time>
      </trkpt>
      <trkpt lat="48.563690" lon="16.580214">
        <ele>251.205483</ele>
        <time>2020-07-10T16:03:05.295Z</time>
      </trkpt>
      <trkpt lat="48.563591" lon="16.580261">
        <ele>251.199215</ele>
        <time>2020-07-10T16:03:07.270Z</time>
      </trkpt>
      <trkpt lat="48.563486" lon="16.580304">
        <ele>251.192644</ele>
        <time>2020-07-10T16:03:09.285Z</time>
      </trkpt>
      <trkpt lat="48.563382" lon="16.580344">
        <ele>251.186163</ele>
        <time>2020-07-10T16:03:11.300Z</time>
      </trkpt>
      <trkpt lat="48.563274" lon="16.580379">
        <ele>251.179491</ele>
        <time>2020-07-10T16:03:13.256Z</time>
      </trkpt>
      <trkpt lat="48.563163" lon="16.580420">
        <ele>251.172589</ele>
        <time>2020-07-10T16:03:15.280Z</time>
      </trkpt>
      <trkpt lat="48.563054" lon="16.580461">
        <ele>251.165805</ele>
        <time>2020-07-10T16:03:17.263Z</time>
      </trkpt>
      <trkpt lat="48.562938" lon="16.580508">
        <ele>251.158551</ele>
        <time>2020-07-10T16:03:19.293Z</time>
      </trkpt>
      <trkpt lat="48.562829" lon="16.580550">
        <ele>251.151757</ele>
        <time>2020-07-10T16:03:21.293Z</time>
      </trkpt>
      <trkpt lat="48.562721" lon="16.580594">
        <ele>251.145001</ele>
        <time>2020-07-10T16:03:23.277Z</time>
      </trkpt>
      <trkpt lat="48.562616" lon="16.580639">
        <ele>251.138409</ele>
        <time>2020-07-10T16:03:25.283Z</time>
      </trkpt>
      <trkpt lat="48.562512" lon="16.580681">
        <ele>251.131907</ele>
        <time>2020-07-10T16:03:27.254Z</time>
      </trkpt>
      <trkpt lat="48.562407" lon="16.580725">
        <ele>251.125325</ele>
        <time>2020-07-10T16:03:29.284Z</time>
      </trkpt>
      <trkpt lat="48.562297" lon="16.580776">
        <ele>251.118376</ele>
        <time>2020-07-10T16:03:31.272Z</time>
      </trkpt>
      <trkpt lat="48.562189" lon="16.580822">
        <ele>251.111598</ele>
        <time>2020-07-10T16:03:33.258Z</time>
      </trkpt>
      <trkpt lat="48.562090" lon="16.580859">
        <ele>251.105438</ele>
        <time>2020-07-10T16:03:35.276Z</time>
      </trkpt>
      <trkpt lat="48.561990" lon="16.580903">
        <ele>251.092117</ele>
        <time>2020-07-10T16:03:37.294Z</time>
      </trkpt>
      <trkpt lat="48.561886" lon="16.580951">
        <ele>251.067224</ele>
        <time>2020-07-10T16:03:39.256Z</time>
      </trkpt>
      <trkpt lat="48.561784" lon="16.581000">
        <ele>251.042723</ele>
        <time>2020-07-10T16:03:41.284Z</time>
      </trkpt>
      <trkpt lat="48.561672" lon="16.581048">
        <ele>251.016073</ele>
        <time>2020-07-10T16:03:43.267Z</time>
      </trkpt>
      <trkpt lat="48.561569" lon="16.581111">
        <ele>250.990637</ele>
        <time>2020-07-10T16:03:45.285Z</time>
      </trkpt>
      <trkpt lat="48.561475" lon="16.581200">
        <ele>250.965243</ele>
        <time>2020-07-10T16:03:47.297Z</time>
      </trkpt>
      <trkpt lat="48.561387" lon="16.581311">
        <ele>250.939002</ele>
        <time>2020-07-10T16:03:49.270Z</time>
      </trkpt>
      <trkpt lat="48.561333" lon="16.581459">
        <ele>250.913399</ele>
        <time>2020-07-10T16:03:51.261Z</time>
      </trkpt>
      <trkpt lat="48.561307" lon="16.581591">
        <ele>250.892534</ele>
        <time>2020-07-10T16:03:53.291Z</time>
      </trkpt>
      <trkpt lat="48.561260" lon="16.581710">
        <ele>250.871539</ele>
        <time>2020-07-10T16:04:01.265Z</time>
      </trkpt>
      <trkpt lat="48.561201" lon="16.581853">
        <ele>250.846010</ele>
        <time>2020-07-10T16:04:06.261Z</time>
      </trkpt>
      <trkpt lat="48.561207" lon="16.581992">
        <ele>250.824907</ele>
        <time>2020-07-10T16:04:08.329Z</time>
      </trkpt>
      <trkpt lat="48.561216" lon="16.582133">
        <ele>250.803446</ele>
        <time>2020-07-10T16:04:10.279Z</time>
      </trkpt>
      <trkpt lat="48.561226" lon="16.582280">
        <ele>250.781059</ele>
        <time>2020-07-10T16:04:12.269Z</time>
      </trkpt>
      <trkpt lat="48.561232" lon="16.582434">
        <ele>250.757687</ele>
        <time>2020-07-10T16:04:14.276Z</time>
      </trkpt>
      <trkpt lat="48.561238" lon="16.582590">
        <ele>250.734013</ele>
        <time>2020-07-10T16:04:16.270Z</time>
      </trkpt>
      <trkpt lat="48.561246" lon="16.582753">
        <ele>250.709251</ele>
        <time>2020-07-10T16:04:18.283Z</time>
      </trkpt>
      <trkpt lat="48.561253" lon="16.582907">
        <ele>250.686551</ele>
        <time>2020-07-10T16:04:20.268Z</time>
      </trkpt>
      <trkpt lat="48.561250" lon="16.583068">
        <ele>250.666260</ele>
        <time>2020-07-10T16:04:22.252Z</time>
      </trkpt>
      <trkpt lat="48.561247" lon="16.583240">
        <ele>250.644584</ele>
        <time>2020-07-10T16:04:24.295Z</time>
      </trkpt>
      <trkpt lat="48.561247" lon="16.583403">
        <ele>250.624050</ele>
        <time>2020-07-10T16:04:26.263Z</time>
      </trkpt>
      <trkpt lat="48.561247" lon="16.583578">
        <ele>250.602003</ele>
        <time>2020-07-10T16:04:28.273Z</time>
      </trkpt>
      <trkpt lat="48.561259" lon="16.583750">
        <ele>250.580215</ele>
        <time>2020-07-10T16:04:30.265Z</time>
      </trkpt>
      <trkpt lat="48.561270" lon="16.583916">
        <ele>250.559198</ele>
        <time>2020-07-10T16:04:32.323Z</time>
      </trkpt>
      <trkpt lat="48.561291" lon="16.584084">
        <ele>250.537659</ele>
        <time>2020-07-10T16:04:34.270Z</time>
      </trkpt>
      <trkpt lat="48.561312" lon="16.584255">
        <ele>250.515749</ele>
        <time>2020-07-10T16:04:36.258Z</time>
      </trkpt>
      <trkpt lat="48.561329" lon="16.584419">
        <ele>250.494836</ele>
        <time>2020-07-10T16:04:38.287Z</time>
      </trkpt>
      <trkpt lat="48.561350" lon="16.584583">
        <ele>250.473792</ele>
        <time>2020-07-10T16:04:40.294Z</time>
      </trkpt>
      <trkpt lat="48.561381" lon="16.584754">
        <ele>250.451456</ele>
        <time>2020-07-10T16:04:42.257Z</time>
      </trkpt>
      <trkpt lat="48.561418" lon="16.584922">
        <ele>250.429151</ele>
        <time>2020-07-10T16:04:44.256Z</time>
      </trkpt>
      <trkpt lat="48.561452" lon="16.585094">
        <ele>250.406537</ele>
        <time>2020-07-10T16:04:46.298Z</time>
      </trkpt>
      <trkpt lat="48.561491" lon="16.585267">
        <ele>250.383513</ele>
        <time>2020-07-10T16:04:48.263Z</time>
      </trkpt>
      <trkpt lat="48.561532" lon="16.585443">
        <ele>250.360007</ele>
        <time>2020-07-10T16:04:50.279Z</time>
      </trkpt>
      <trkpt lat="48.561568" lon="16.585608">
        <ele>250.337549</ele>
        <time>2020-07-10T16:04:52.289Z</time>
      </trkpt>
      <trkpt lat="48.561601" lon="16.585776">
        <ele>250.314136</ele>
        <time>2020-07-10T16:04:54.271Z</time>
      </trkpt>
      <trkpt lat="48.561633" lon="16.585944">
        <ele>250.290780</ele>
        <time>2020-07-10T16:04:56.277Z</time>
      </trkpt>
      <trkpt lat="48.561657" lon="16.586112">
        <ele>250.267818</ele>
        <time>2020-07-10T16:04:58.288Z</time>
      </trkpt>
      <trkpt lat="48.561695" lon="16.586308">
        <ele>250.240532</ele>
        <time>2020-07-10T16:05:00.259Z</time>
      </trkpt>
      <trkpt lat="48.561743" lon="16.586536">
        <ele>250.208567</ele>
        <time>2020-07-10T16:05:02.282Z</time>
      </trkpt>
      <trkpt lat="48.561791" lon="16.586761">
        <ele>250.176984</ele>
        <time>2020-07-10T16:05:04.292Z</time>
      </trkpt>
      <trkpt lat="48.561848" lon="16.586948">
        <ele>250.149478</ele>
        <time>2020-07-10T16:05:06.285Z</time>
      </trkpt>
      <trkpt lat="48.561894" lon="16.587115">
        <ele>250.125312</ele>
        <time>2020-07-10T16:05:08.251Z</time>
      </trkpt>
      <trkpt lat="48.561936" lon="16.587254">
        <ele>250.104898</ele>
        <time>2020-07-10T16:05:10.271Z</time>
      </trkpt>
      <trkpt lat="48.561965" lon="16.587398">
        <ele>250.084788</ele>
        <time>2020-07-10T16:05:12.251Z</time>
      </trkpt>
      <trkpt lat="48.561994" lon="16.587542">
        <ele>250.064679</ele>
        <time>2020-07-10T16:05:14.279Z</time>
      </trkpt>
      <trkpt lat="48.562027" lon="16.587690">
        <ele>250.043814</ele>
        <time>2020-07-10T16:05:16.278Z</time>
      </trkpt>
      <trkpt lat="48.562063" lon="16.587847">
        <ele>250.021616</ele>
        <time>2020-07-10T16:05:18.293Z</time>
      </trkpt>
      <trkpt lat="48.562099" lon="16.588012">
        <ele>249.998405</ele>
        <time>2020-07-10T16:05:20.250Z</time>
      </trkpt>
      <trkpt lat="48.562134" lon="16.588185">
        <ele>250.040098</ele>
        <time>2020-07-10T16:05:22.258Z</time>
      </trkpt>
      <trkpt lat="48.562172" lon="16.588365">
        <ele>250.177395</ele>
        <time>2020-07-10T16:05:24.287Z</time>
      </trkpt>
      <trkpt lat="48.562212" lon="16.588535">
        <ele>250.308508</ele>
        <time>2020-07-10T16:05:26.270Z</time>
      </trkpt>
      <trkpt lat="48.562257" lon="16.588703">
        <ele>250.440211</ele>
        <time>2020-07-10T16:05:28.276Z</time>
      </trkpt>
      <trkpt lat="48.562303" lon="16.588872">
        <ele>250.573003</ele>
        <time>2020-07-10T16:05:30.286Z</time>
      </trkpt>
      <trkpt lat="48.562346" lon="16.589046">
        <ele>250.707974</ele>
        <time>2020-07-10T16:05:32.296Z</time>
      </trkpt>
      <trkpt lat="48.562402" lon="16.589222">
        <ele>250.849884</ele>
        <time>2020-07-10T16:05:34.274Z</time>
      </trkpt>
      <trkpt lat="48.562442" lon="16.589400">
        <ele>250.986488</ele>
        <time>2020-07-10T16:05:36.261Z</time>
      </trkpt>
      <trkpt lat="48.562474" lon="16.589574">
        <ele>251.117722</ele>
        <time>2020-07-10T16:05:38.267Z</time>
      </trkpt>
      <trkpt lat="48.562507" lon="16.589740">
        <ele>251.243676</ele>
        <time>2020-07-10T16:05:40.286Z</time>
      </trkpt>
      <trkpt lat="48.562540" lon="16.589911">
        <ele>251.373114</ele>
        <time>2020-07-10T16:05:42.254Z</time>
      </trkpt>
      <trkpt lat="48.562580" lon="16.590089">
        <ele>251.509717</ele>
        <time>2020-07-10T16:05:44.273Z</time>
      </trkpt>
      <trkpt lat="48.562620" lon="16.590267">
        <ele>251.646320</ele>
        <time>2020-07-10T16:05:46.265Z</time>
      </trkpt>
      <trkpt lat="48.562659" lon="16.590446">
        <ele>251.783264</ele>
        <time>2020-07-10T16:05:48.264Z</time>
      </trkpt>
      <trkpt lat="48.562697" lon="16.590625">
        <ele>251.919868</ele>
        <time>2020-07-10T16:05:50.269Z</time>
      </trkpt>
      <trkpt lat="48.562732" lon="16.590806">
        <ele>252.019495</ele>
        <time>2020-07-10T16:05:52.275Z</time>
      </trkpt>
      <trkpt lat="48.562770" lon="16.590982">
        <ele>252.102395</ele>
        <time>2020-07-10T16:05:54.268Z</time>
      </trkpt>
      <trkpt lat="48.562804" lon="16.591158">
        <ele>252.184496</ele>
        <time>2020-07-10T16:05:56.274Z</time>
      </trkpt>
      <trkpt lat="48.562839" lon="16.591333">
        <ele>252.266361</ele>
        <time>2020-07-10T16:05:58.258Z</time>
      </trkpt>
      <trkpt lat="48.562873" lon="16.591508">
        <ele>252.348032</ele>
        <time>2020-07-10T16:06:00.251Z</time>
      </trkpt>
      <trkpt lat="48.562910" lon="16.591683">
        <ele>252.430298</ele>
        <time>2020-07-10T16:06:02.276Z</time>
      </trkpt>
      <trkpt lat="48.562947" lon="16.591860">
        <ele>252.513418</ele>
        <time>2020-07-10T16:06:04.254Z</time>
      </trkpt>
      <trkpt lat="48.562988" lon="16.592042">
        <ele>252.599509</ele>
        <time>2020-07-10T16:06:06.299Z</time>
      </trkpt>
      <trkpt lat="48.563029" lon="16.592225">
        <ele>252.686023</ele>
        <time>2020-07-10T16:06:08.262Z</time>
      </trkpt>
      <trkpt lat="48.563069" lon="16.592406">
        <ele>252.771474</ele>
        <time>2020-07-10T16:06:10.264Z</time>
      </trkpt>
      <trkpt lat="48.563110" lon="16.592584">
        <ele>252.855871</ele>
        <time>2020-07-10T16:06:12.267Z</time>
      </trkpt>
      <trkpt lat="48.563150" lon="16.592766">
        <ele>252.941746</ele>
        <time>2020-07-10T16:06:14.265Z</time>
      </trkpt>
      <trkpt lat="48.563189" lon="16.592955">
        <ele>253.030397</ele>
        <time>2020-07-10T16:06:16.267Z</time>
      </trkpt>
      <trkpt lat="48.563226" lon="16.593145">
        <ele>253.119084</ele>
        <time>2020-07-10T16:06:18.267Z</time>
      </trkpt>
      <trkpt lat="48.563263" lon="16.593331">
        <ele>253.191827</ele>
        <time>2020-07-10T16:06:20.270Z</time>
      </trkpt>
      <trkpt lat="48.563302" lon="16.593514">
        <ele>253.236526</ele>
        <time>2020-07-10T16:06:22.272Z</time>
      </trkpt>
      <trkpt lat="48.563340" lon="16.593697">
        <ele>253.281118</ele>
        <time>2020-07-10T16:06:24.252Z</time>
      </trkpt>
      <trkpt lat="48.563379" lon="16.593878">
        <ele>253.325374</ele>
        <time>2020-07-10T16:06:26.272Z</time>
      </trkpt>
      <trkpt lat="48.563413" lon="16.594064">
        <ele>253.370237</ele>
        <time>2020-07-10T16:06:28.266Z</time>
      </trkpt>
      <trkpt lat="48.563450" lon="16.594246">
        <ele>253.414503</ele>
        <time>2020-07-10T16:06:30.281Z</time>
      </trkpt>
      <trkpt lat="48.563486" lon="16.594427">
        <ele>253.458444</ele>
        <time>2020-07-10T16:06:32.302Z</time>
      </trkpt>
      <trkpt lat="48.563519" lon="16.594607">
        <ele>253.501869</ele>
        <time>2020-07-10T16:06:34.272Z</time>
      </trkpt>
      <trkpt lat="48.563548" lon="16.594790">
        <ele>253.545618</ele>
        <time>2020-07-10T16:06:36.269Z</time>
      </trkpt>
      <trkpt lat="48.563579" lon="16.594976">
        <ele>253.590213</ele>
        <time>2020-07-10T16:06:38.279Z</time>
      </trkpt>
      <trkpt lat="48.563613" lon="16.595158">
        <ele>253.634180</ele>
        <time>2020-07-10T16:06:40.303Z</time>
      </trkpt>
      <trkpt lat="48.563646" lon="16.595337">
        <ele>253.677381</ele>
        <time>2020-07-10T16:06:42.259Z</time>
      </trkpt>
      <trkpt lat="48.563675" lon="16.595511">
        <ele>253.719098</ele>
        <time>2020-07-10T16:06:44.286Z</time>
      </trkpt>
      <trkpt lat="48.563705" lon="16.595680">
        <ele>253.759779</ele>
        <time>2020-07-10T16:06:46.301Z</time>
      </trkpt>
      <trkpt lat="48.563734" lon="16.595849">
        <ele>253.800370</ele>
        <time>2020-07-10T16:06:48.289Z</time>
      </trkpt>
      <trkpt lat="48.563769" lon="16.596020">
        <ele>253.783543</ele>
        <time>2020-07-10T16:06:50.254Z</time>
      </trkpt>
      <trkpt lat="48.563800" lon="16.596185">
        <ele>253.754135</ele>
        <time>2020-07-10T16:06:52.287Z</time>
      </trkpt>
      <trkpt lat="48.563827" lon="16.596334">
        <ele>253.727647</ele>
        <time>2020-07-10T16:06:54.288Z</time>
      </trkpt>
      <trkpt lat="48.563858" lon="16.596524">
        <ele>253.694095</ele>
        <time>2020-07-10T16:06:57.270Z</time>
      </trkpt>
      <trkpt lat="48.563891" lon="16.596695">
        <ele>253.663554</ele>
        <time>2020-07-10T16:07:00.254Z</time>
      </trkpt>
      <trkpt lat="48.563924" lon="16.596874">
        <ele>253.631694</ele>
        <time>2020-07-10T16:07:03.293Z</time>
      </trkpt>
      <trkpt lat="48.563964" lon="16.597037">
        <ele>253.601887</ele>
        <time>2020-07-10T16:07:05.264Z</time>
      </trkpt>
      <trkpt lat="48.564003" lon="16.597251">
        <ele>253.563830</ele>
        <time>2020-07-10T16:07:07.278Z</time>
      </trkpt>
      <trkpt lat="48.564037" lon="16.597459">
        <ele>253.527095</ele>
        <time>2020-07-10T16:07:09.296Z</time>
      </trkpt>
      <trkpt lat="48.564068" lon="16.597649">
        <ele>253.493542</ele>
        <time>2020-07-10T16:07:11.270Z</time>
      </trkpt>
      <trkpt lat="48.564098" lon="16.597826">
        <ele>253.462215</ele>
        <time>2020-07-10T16:07:13.275Z</time>
      </trkpt>
      <trkpt lat="48.564133" lon="16.597995">
        <ele>253.431853</ele>
        <time>2020-07-10T16:07:15.280Z</time>
      </trkpt>
      <trkpt lat="48.564161" lon="16.598158">
        <ele>253.402979</ele>
        <time>2020-07-10T16:07:17.269Z</time>
      </trkpt>
      <trkpt lat="48.564193" lon="16.598315">
        <ele>253.374813</ele>
        <time>2020-07-10T16:07:19.277Z</time>
      </trkpt>
      <trkpt lat="48.564222" lon="16.598471">
        <ele>253.347030</ele>
        <time>2020-07-10T16:07:21.288Z</time>
      </trkpt>
      <trkpt lat="48.564250" lon="16.598626">
        <ele>253.306387</ele>
        <time>2020-07-10T16:07:23.273Z</time>
      </trkpt>
      <trkpt lat="48.564277" lon="16.598783">
        <ele>253.262646</ele>
        <time>2020-07-10T16:07:25.267Z</time>
      </trkpt>
      <trkpt lat="48.564303" lon="16.598940">
        <ele>253.219006</ele>
        <time>2020-07-10T16:07:27.252Z</time>
      </trkpt>
      <trkpt lat="48.564330" lon="16.599097">
        <ele>253.175266</ele>
        <time>2020-07-10T16:07:29.248Z</time>
      </trkpt>
      <trkpt lat="48.564364" lon="16.599256">
        <ele>253.130209</ele>
        <time>2020-07-10T16:07:31.282Z</time>
      </trkpt>
      <trkpt lat="48.564402" lon="16.599417">
        <ele>253.084118</ele>
        <time>2020-07-10T16:07:33.286Z</time>
      </trkpt>
      <trkpt lat="48.564451" lon="16.599581">
        <ele>253.035598</ele>
        <time>2020-07-10T16:07:35.255Z</time>
      </trkpt>
      <trkpt lat="48.564490" lon="16.599748">
        <ele>252.987846</ele>
        <time>2020-07-10T16:07:37.250Z</time>
      </trkpt>
      <trkpt lat="48.564525" lon="16.599919">
        <ele>252.939581</ele>
        <time>2020-07-10T16:07:39.283Z</time>
      </trkpt>
      <trkpt lat="48.564561" lon="16.600094">
        <ele>252.890166</ele>
        <time>2020-07-10T16:07:41.276Z</time>
      </trkpt>
      <trkpt lat="48.564600" lon="16.600265">
        <ele>252.841395</ele>
        <time>2020-07-10T16:07:43.278Z</time>
      </trkpt>
      <trkpt lat="48.564640" lon="16.600438">
        <ele>252.791982</ele>
        <time>2020-07-10T16:07:45.253Z</time>
      </trkpt>
      <trkpt lat="48.564676" lon="16.600606">
        <ele>252.744366</ele>
        <time>2020-07-10T16:07:47.283Z</time>
      </trkpt>
      <trkpt lat="48.564712" lon="16.600771">
        <ele>252.697519</ele>
        <time>2020-07-10T16:07:49.281Z</time>
      </trkpt>
      <trkpt lat="48.564747" lon="16.600941">
        <ele>252.649512</ele>
        <time>2020-07-10T16:07:51.275Z</time>
      </trkpt>
      <trkpt lat="48.564783" lon="16.601108">
        <ele>252.613523</ele>
        <time>2020-07-10T16:07:53.275Z</time>
      </trkpt>
      <trkpt lat="48.564822" lon="16.601272">
        <ele>252.639456</ele>
        <time>2020-07-10T16:07:55.281Z</time>
      </trkpt>
      <trkpt lat="48.564861" lon="16.601435">
        <ele>252.665248</ele>
        <time>2020-07-10T16:07:57.297Z</time>
      </trkpt>
      <trkpt lat="48.564902" lon="16.601600">
        <ele>252.691475</ele>
        <time>2020-07-10T16:07:59.272Z</time>
      </trkpt>
      <trkpt lat="48.564937" lon="16.601767">
        <ele>252.717543</ele>
        <time>2020-07-10T16:08:01.264Z</time>
      </trkpt>
      <trkpt lat="48.564973" lon="16.601930">
        <ele>252.743114</ele>
        <time>2020-07-10T16:08:03.276Z</time>
      </trkpt>
      <trkpt lat="48.565009" lon="16.602094">
        <ele>252.768826</ele>
        <time>2020-07-10T16:08:05.276Z</time>
      </trkpt>
      <trkpt lat="48.565045" lon="16.602250">
        <ele>252.793411</ele>
        <time>2020-07-10T16:08:07.270Z</time>
      </trkpt>
      <trkpt lat="48.565079" lon="16.602409">
        <ele>252.818276</ele>
        <time>2020-07-10T16:08:09.265Z</time>
      </trkpt>
      <trkpt lat="48.565112" lon="16.602569">
        <ele>252.843215</ele>
        <time>2020-07-10T16:08:11.275Z</time>
      </trkpt>
      <trkpt lat="48.565145" lon="16.602727">
        <ele>252.867869</ele>
        <time>2020-07-10T16:08:13.304Z</time>
      </trkpt>
      <trkpt lat="48.565179" lon="16.602880">
        <ele>252.891886</ele>
        <time>2020-07-10T16:08:15.287Z</time>
      </trkpt>
      <trkpt lat="48.565214" lon="16.603035">
        <ele>252.916257</ele>
        <time>2020-07-10T16:08:17.262Z</time>
      </trkpt>
      <trkpt lat="48.565250" lon="16.603189">
        <ele>252.940561</ele>
        <time>2020-07-10T16:08:19.268Z</time>
      </trkpt>
      <trkpt lat="48.565285" lon="16.603340">
        <ele>252.964370</ele>
        <time>2020-07-10T16:08:21.279Z</time>
      </trkpt>
      <trkpt lat="48.565320" lon="16.603490">
        <ele>252.988038</ele>
        <time>2020-07-10T16:08:23.285Z</time>
      </trkpt>
      <trkpt lat="48.565348" lon="16.603659">
        <ele>253.013935</ele>
        <time>2020-07-10T16:08:25.269Z</time>
      </trkpt>
      <trkpt lat="48.565374" lon="16.603836">
        <ele>253.018365</ele>
        <time>2020-07-10T16:08:27.275Z</time>
      </trkpt>
      <trkpt lat="48.565408" lon="16.604009">
        <ele>253.022776</ele>
        <time>2020-07-10T16:08:29.265Z</time>
      </trkpt>
      <trkpt lat="48.565441" lon="16.604183">
        <ele>253.027199</ele>
        <time>2020-07-10T16:08:31.286Z</time>
      </trkpt>
      <trkpt lat="48.565468" lon="16.604358">
        <ele>253.031590</ele>
        <time>2020-07-10T16:08:33.275Z</time>
      </trkpt>
      <trkpt lat="48.565502" lon="16.604526">
        <ele>253.035884</ele>
        <time>2020-07-10T16:08:35.271Z</time>
      </trkpt>
      <trkpt lat="48.565536" lon="16.604689">
        <ele>253.040060</ele>
        <time>2020-07-10T16:08:37.251Z</time>
      </trkpt>
      <trkpt lat="48.565569" lon="16.604855">
        <ele>253.044296</ele>
        <time>2020-07-10T16:08:39.291Z</time>
      </trkpt>
      <trkpt lat="48.565605" lon="16.605018">
        <ele>253.048495</ele>
        <time>2020-07-10T16:08:41.292Z</time>
      </trkpt>
      <trkpt lat="48.565645" lon="16.605178">
        <ele>253.052675</ele>
        <time>2020-07-10T16:08:43.282Z</time>
      </trkpt>
      <trkpt lat="48.565684" lon="16.605338">
        <ele>253.056842</ele>
        <time>2020-07-10T16:08:45.290Z</time>
      </trkpt>
      <trkpt lat="48.565717" lon="16.605509">
        <ele>253.061195</ele>
        <time>2020-07-10T16:08:47.302Z</time>
      </trkpt>
      <trkpt lat="48.565751" lon="16.605676">
        <ele>253.065464</ele>
        <time>2020-07-10T16:08:49.278Z</time>
      </trkpt>
      <trkpt lat="48.565793" lon="16.605837">
        <ele>253.069694</ele>
        <time>2020-07-10T16:08:51.261Z</time>
      </trkpt>
      <trkpt lat="48.565836" lon="16.605996">
        <ele>253.073891</ele>
        <time>2020-07-10T16:08:53.309Z</time>
      </trkpt>
      <trkpt lat="48.565883" lon="16.606149">
        <ele>253.078013</ele>
        <time>2020-07-10T16:08:55.254Z</time>
      </trkpt>
      <trkpt lat="48.565941" lon="16.606296">
        <ele>253.029747</ele>
        <time>2020-07-10T16:08:57.259Z</time>
      </trkpt>
      <trkpt lat="48.566003" lon="16.606434">
        <ele>252.917996</ele>
        <time>2020-07-10T16:08:59.266Z</time>
      </trkpt>
      <trkpt lat="48.566070" lon="16.606567">
        <ele>252.806009</ele>
        <time>2020-07-10T16:09:01.279Z</time>
      </trkpt>
      <trkpt lat="48.566136" lon="16.606696">
        <ele>252.696764</ele>
        <time>2020-07-10T16:09:03.274Z</time>
      </trkpt>
      <trkpt lat="48.566219" lon="16.606800">
        <ele>252.587603</ele>
        <time>2020-07-10T16:09:05.307Z</time>
      </trkpt>
      <trkpt lat="48.566300" lon="16.606912">
        <ele>252.476447</ele>
        <time>2020-07-10T16:09:07.266Z</time>
      </trkpt>
      <trkpt lat="48.566375" lon="16.607026">
        <ele>252.368749</ele>
        <time>2020-07-10T16:09:09.285Z</time>
      </trkpt>
      <trkpt lat="48.566448" lon="16.607164">
        <ele>252.250383</ele>
        <time>2020-07-10T16:09:11.258Z</time>
      </trkpt>
      <trkpt lat="48.566541" lon="16.607326">
        <ele>252.106700</ele>
        <time>2020-07-10T16:09:13.275Z</time>
      </trkpt>
      <trkpt lat="48.566642" lon="16.607490">
        <ele>251.956605</ele>
        <time>2020-07-10T16:09:15.258Z</time>
      </trkpt>
      <trkpt lat="48.566747" lon="16.607657">
        <ele>251.802272</ele>
        <time>2020-07-10T16:09:17.265Z</time>
      </trkpt>
      <trkpt lat="48.566858" lon="16.607812">
        <ele>251.649260</ele>
        <time>2020-07-10T16:09:19.319Z</time>
      </trkpt>
      <trkpt lat="48.566969" lon="16.607952">
        <ele>251.502882</ele>
        <time>2020-07-10T16:09:21.256Z</time>
      </trkpt>
      <trkpt lat="48.567074" lon="16.608069">
        <ele>251.370803</ele>
        <time>2020-07-10T16:09:23.301Z</time>
      </trkpt>
      <trkpt lat="48.567173" lon="16.608127">
        <ele>251.263305</ele>
        <time>2020-07-10T16:09:25.279Z</time>
      </trkpt>
      <trkpt lat="48.567176" lon="16.608263">
        <ele>251.231746</ele>
        <time>2020-07-10T16:09:30.264Z</time>
      </trkpt>
      <trkpt lat="48.567109" lon="16.608404">
        <ele>251.194921</ele>
        <time>2020-07-10T16:09:33.275Z</time>
      </trkpt>
      <trkpt lat="48.567109" lon="16.608554">
        <ele>251.163099</ele>
        <time>2020-07-10T16:09:35.288Z</time>
      </trkpt>
      <trkpt lat="48.567186" lon="16.608691">
        <ele>251.124967</ele>
        <time>2020-07-10T16:09:37.252Z</time>
      </trkpt>
      <trkpt lat="48.567270" lon="16.608807">
        <ele>251.088487</ele>
        <time>2020-07-10T16:09:39.262Z</time>
      </trkpt>
      <trkpt lat="48.567354" lon="16.608912">
        <ele>251.053539</ele>
        <time>2020-07-10T16:09:41.282Z</time>
      </trkpt>
      <trkpt lat="48.567436" lon="16.609014">
        <ele>251.019491</ele>
        <time>2020-07-10T16:09:43.291Z</time>
      </trkpt>
      <trkpt lat="48.567516" lon="16.609109">
        <ele>250.986873</ele>
        <time>2020-07-10T16:09:45.250Z</time>
      </trkpt>
      <trkpt lat="48.567602" lon="16.609212">
        <ele>250.951694</ele>
        <time>2020-07-10T16:09:47.268Z</time>
      </trkpt>
      <trkpt lat="48.567687" lon="16.609331">
        <ele>250.914547</ele>
        <time>2020-07-10T16:09:49.270Z</time>
      </trkpt>
      <trkpt lat="48.567767" lon="16.609454">
        <ele>250.877960</ele>
        <time>2020-07-10T16:09:51.274Z</time>
      </trkpt>
      <trkpt lat="48.567849" lon="16.609564">
        <ele>250.842809</ele>
        <time>2020-07-10T16:09:53.263Z</time>
      </trkpt>
      <trkpt lat="48.567937" lon="16.609675">
        <ele>250.806061</ele>
        <time>2020-07-10T16:09:55.259Z</time>
      </trkpt>
      <trkpt lat="48.568030" lon="16.609785">
        <ele>250.768201</ele>
        <time>2020-07-10T16:09:57.275Z</time>
      </trkpt>
      <trkpt lat="48.568116" lon="16.609900">
        <ele>250.731386</ele>
        <time>2020-07-10T16:09:59.308Z</time>
      </trkpt>
      <trkpt lat="48.568202" lon="16.610013">
        <ele>250.694852</ele>
        <time>2020-07-10T16:10:01.266Z</time>
      </trkpt>
      <trkpt lat="48.568292" lon="16.610136">
        <ele>250.726678</ele>
        <time>2020-07-10T16:10:03.294Z</time>
      </trkpt>
      <trkpt lat="48.568382" lon="16.610256">
        <ele>250.789752</ele>
        <time>2020-07-10T16:10:05.278Z</time>
      </trkpt>
      <trkpt lat="48.568478" lon="16.610372">
        <ele>250.854345</ele>
        <time>2020-07-10T16:10:07.255Z</time>
      </trkpt>
      <trkpt lat="48.568576" lon="16.610494">
        <ele>250.921070</ele>
        <time>2020-07-10T16:10:09.273Z</time>
      </trkpt>
      <trkpt lat="48.568674" lon="16.610611">
        <ele>250.986702</ele>
        <time>2020-07-10T16:10:11.294Z</time>
      </trkpt>
      <trkpt lat="48.568769" lon="16.610732">
        <ele>251.051993</ele>
        <time>2020-07-10T16:10:13.287Z</time>
      </trkpt>
      <trkpt lat="48.568863" lon="16.610855">
        <ele>251.117336</ele>
        <time>2020-07-10T16:10:15.261Z</time>
      </trkpt>
      <trkpt lat="48.568955" lon="16.610982">
        <ele>251.182817</ele>
        <time>2020-07-10T16:10:17.294Z</time>
      </trkpt>
      <trkpt lat="48.569049" lon="16.611113">
        <ele>251.250014</ele>
        <time>2020-07-10T16:10:19.251Z</time>
      </trkpt>
      <trkpt lat="48.569147" lon="16.611250">
        <ele>251.320170</ele>
        <time>2020-07-10T16:10:21.259Z</time>
      </trkpt>
      <trkpt lat="48.569249" lon="16.611385">
        <ele>251.391423</ele>
        <time>2020-07-10T16:10:23.254Z</time>
      </trkpt>
      <trkpt lat="48.569345" lon="16.611522">
        <ele>251.460812</ele>
        <time>2020-07-10T16:10:25.276Z</time>
      </trkpt>
      <trkpt lat="48.569440" lon="16.611647">
        <ele>251.527007</ele>
        <time>2020-07-10T16:10:27.287Z</time>
      </trkpt>
      <trkpt lat="48.569525" lon="16.611779">
        <ele>251.591056</ele>
        <time>2020-07-10T16:10:29.271Z</time>
      </trkpt>
      <trkpt lat="48.569605" lon="16.611917">
        <ele>251.630492</ele>
        <time>2020-07-10T16:10:31.260Z</time>
      </trkpt>
      <trkpt lat="48.569680" lon="16.612056">
        <ele>251.636362</ele>
        <time>2020-07-10T16:10:33.299Z</time>
      </trkpt>
      <trkpt lat="48.569755" lon="16.612189">
        <ele>251.642081</ele>
        <time>2020-07-10T16:10:35.270Z</time>
      </trkpt>
      <trkpt lat="48.569832" lon="16.612323">
        <ele>251.647889</ele>
        <time>2020-07-10T16:10:37.286Z</time>
      </trkpt>
      <trkpt lat="48.569906" lon="16.612460">
        <ele>251.653678</ele>
        <time>2020-07-10T16:10:39.289Z</time>
      </trkpt>
      <trkpt lat="48.569982" lon="16.612597">
        <ele>251.659529</ele>
        <time>2020-07-10T16:10:41.264Z</time>
      </trkpt>
      <trkpt lat="48.570050" lon="16.612740">
        <ele>251.665292</ele>
        <time>2020-07-10T16:10:43.307Z</time>
      </trkpt>
      <trkpt lat="48.570114" lon="16.612888">
        <ele>251.671078</ele>
        <time>2020-07-10T16:10:45.270Z</time>
      </trkpt>
      <trkpt lat="48.570176" lon="16.613040">
        <ele>251.676922</ele>
        <time>2020-07-10T16:10:47.287Z</time>
      </trkpt>
      <trkpt lat="48.570238" lon="16.613185">
        <ele>251.682573</ele>
        <time>2020-07-10T16:10:49.266Z</time>
      </trkpt>
      <trkpt lat="48.570298" lon="16.613332">
        <ele>251.688225</ele>
        <time>2020-07-10T16:10:51.288Z</time>
      </trkpt>
      <trkpt lat="48.570354" lon="16.613481">
        <ele>251.693834</ele>
        <time>2020-07-10T16:10:53.288Z</time>
      </trkpt>
      <trkpt lat="48.570411" lon="16.613634">
        <ele>251.699580</ele>
        <time>2020-07-10T16:10:55.277Z</time>
      </trkpt>
      <trkpt lat="48.570467" lon="16.613789">
        <ele>251.705360</ele>
        <time>2020-07-10T16:10:57.293Z</time>
      </trkpt>
      <trkpt lat="48.570527" lon="16.613944">
        <ele>251.711237</ele>
        <time>2020-07-10T16:10:59.262Z</time>
      </trkpt>
      <trkpt lat="48.570584" lon="16.614102">
        <ele>251.712492</ele>
        <time>2020-07-10T16:11:01.261Z</time>
      </trkpt>
      <trkpt lat="48.570634" lon="16.614267">
        <ele>251.583111</ele>
        <time>2020-07-10T16:11:03.288Z</time>
      </trkpt>
      <trkpt lat="48.570678" lon="16.614427">
        <ele>251.459583</ele>
        <time>2020-07-10T16:11:05.255Z</time>
      </trkpt>
      <trkpt lat="48.570715" lon="16.614592">
        <ele>251.335379</ele>
        <time>2020-07-10T16:11:07.306Z</time>
      </trkpt>
      <trkpt lat="48.570748" lon="16.614757">
        <ele>251.212491</ele>
        <time>2020-07-10T16:11:09.313Z</time>
      </trkpt>
      <trkpt lat="48.570784" lon="16.614918">
        <ele>251.091333</ele>
        <time>2020-07-10T16:11:11.284Z</time>
      </trkpt>
      <trkpt lat="48.570820" lon="16.615078">
        <ele>250.970851</ele>
        <time>2020-07-10T16:11:13.276Z</time>
      </trkpt>
      <trkpt lat="48.570853" lon="16.615240">
        <ele>250.850009</ele>
        <time>2020-07-10T16:11:15.295Z</time>
      </trkpt>
      <trkpt lat="48.570888" lon="16.615402">
        <ele>250.728514</ele>
        <time>2020-07-10T16:11:17.305Z</time>
      </trkpt>
      <trkpt lat="48.570923" lon="16.615565">
        <ele>250.606343</ele>
        <time>2020-07-10T16:11:19.304Z</time>
      </trkpt>
      <trkpt lat="48.570963" lon="16.615731">
        <ele>250.480394</ele>
        <time>2020-07-10T16:11:21.268Z</time>
      </trkpt>
      <trkpt lat="48.570999" lon="16.615894">
        <ele>250.357886</ele>
        <time>2020-07-10T16:11:23.278Z</time>
      </trkpt>
      <trkpt lat="48.570975" lon="16.616045">
        <ele>250.247173</ele>
        <time>2020-07-10T16:11:25.263Z</time>
      </trkpt>
      <trkpt lat="48.570890" lon="16.616132">
        <ele>250.136565</ele>
        <time>2020-07-10T16:11:27.279Z</time>
      </trkpt>
      <trkpt lat="48.570953" lon="16.616267">
        <ele>250.018792</ele>
        <time>2020-07-10T16:11:32.251Z</time>
      </trkpt>
      <trkpt lat="48.571056" lon="16.616396">
        <ele>249.874663</ele>
        <time>2020-07-10T16:11:35.265Z</time>
      </trkpt>
      <trkpt lat="48.571104" lon="16.616581">
        <ele>249.743545</ele>
        <time>2020-07-10T16:11:38.266Z</time>
      </trkpt>
      <trkpt lat="48.571130" lon="16.616727">
        <ele>249.660461</ele>
        <time>2020-07-10T16:11:40.263Z</time>
      </trkpt>
      <trkpt lat="48.571151" lon="16.616879">
        <ele>249.575133</ele>
        <time>2020-07-10T16:11:42.275Z</time>
      </trkpt>
      <trkpt lat="48.571166" lon="16.617021">
        <ele>249.496114</ele>
        <time>2020-07-10T16:11:44.286Z</time>
      </trkpt>
      <trkpt lat="48.571162" lon="16.617174">
        <ele>249.411972</ele>
        <time>2020-07-10T16:11:46.270Z</time>
      </trkpt>
      <trkpt lat="48.571151" lon="16.617332">
        <ele>249.324670</ele>
        <time>2020-07-10T16:11:48.286Z</time>
      </trkpt>
      <trkpt lat="48.571126" lon="16.617489">
        <ele>249.235933</ele>
        <time>2020-07-10T16:11:50.270Z</time>
      </trkpt>
      <trkpt lat="48.571106" lon="16.617646">
        <ele>249.148074</ele>
        <time>2020-07-10T16:11:52.265Z</time>
      </trkpt>
      <trkpt lat="48.571093" lon="16.617805">
        <ele>249.060037</ele>
        <time>2020-07-10T16:11:54.259Z</time>
      </trkpt>
      <trkpt lat="48.571083" lon="16.617957">
        <ele>248.976098</ele>
        <time>2020-07-10T16:11:56.291Z</time>
      </trkpt>
      <trkpt lat="48.571080" lon="16.618120">
        <ele>248.886492</ele>
        <time>2020-07-10T16:11:58.264Z</time>
      </trkpt>
      <trkpt lat="48.571079" lon="16.618280">
        <ele>248.798566</ele>
        <time>2020-07-10T16:12:00.252Z</time>
      </trkpt>
      <trkpt lat="48.571080" lon="16.618438">
        <ele>248.711738</ele>
        <time>2020-07-10T16:12:02.252Z</time>
      </trkpt>
      <trkpt lat="48.571077" lon="16.618598">
        <ele>248.623780</ele>
        <time>2020-07-10T16:12:04.251Z</time>
      </trkpt>
      <trkpt lat="48.571077" lon="16.618757">
        <ele>248.536407</ele>
        <time>2020-07-10T16:12:06.265Z</time>
      </trkpt>
      <trkpt lat="48.571084" lon="16.618920">
        <ele>248.446647</ele>
        <time>2020-07-10T16:12:08.255Z</time>
      </trkpt>
      <trkpt lat="48.571108" lon="16.619089">
        <ele>248.351664</ele>
        <time>2020-07-10T16:12:10.267Z</time>
      </trkpt>
      <trkpt lat="48.571150" lon="16.619252">
        <ele>248.300998</ele>
        <time>2020-07-10T16:12:12.267Z</time>
      </trkpt>
      <trkpt lat="48.571193" lon="16.619426">
        <ele>248.354857</ele>
        <time>2020-07-10T16:12:14.286Z</time>
      </trkpt>
      <trkpt lat="48.571236" lon="16.619592">
        <ele>248.406550</ele>
        <time>2020-07-10T16:12:16.274Z</time>
      </trkpt>
      <trkpt lat="48.571285" lon="16.619755">
        <ele>248.458464</ele>
        <time>2020-07-10T16:12:18.292Z</time>
      </trkpt>
      <trkpt lat="48.571336" lon="16.619917">
        <ele>248.510485</ele>
        <time>2020-07-10T16:12:20.276Z</time>
      </trkpt>
      <trkpt lat="48.571390" lon="16.620062">
        <ele>248.558733</ele>
        <time>2020-07-10T16:12:22.274Z</time>
      </trkpt>
      <trkpt lat="48.571454" lon="16.620219">
        <ele>248.612205</ele>
        <time>2020-07-10T16:12:24.296Z</time>
      </trkpt>
      <trkpt lat="48.571511" lon="16.620381">
        <ele>248.665408</ele>
        <time>2020-07-10T16:12:26.257Z</time>
      </trkpt>
      <trkpt lat="48.571565" lon="16.620540">
        <ele>248.717232</ele>
        <time>2020-07-10T16:12:28.254Z</time>
      </trkpt>
      <trkpt lat="48.571614" lon="16.620701">
        <ele>248.768619</ele>
        <time>2020-07-10T16:12:30.252Z</time>
      </trkpt>
      <trkpt lat="48.571653" lon="16.620864">
        <ele>248.818879</ele>
        <time>2020-07-10T16:12:32.258Z</time>
      </trkpt>
      <trkpt lat="48.571682" lon="16.621030">
        <ele>248.868663</ele>
        <time>2020-07-10T16:12:34.258Z</time>
      </trkpt>
      <trkpt lat="48.571709" lon="16.621195">
        <ele>248.917950</ele>
        <time>2020-07-10T16:12:36.256Z</time>
      </trkpt>
      <trkpt lat="48.571739" lon="16.621362">
        <ele>248.968127</ele>
        <time>2020-07-10T16:12:38.261Z</time>
      </trkpt>
      <trkpt lat="48.571779" lon="16.621524">
        <ele>249.018266</ele>
        <time>2020-07-10T16:12:40.258Z</time>
      </trkpt>
      <trkpt lat="48.571829" lon="16.621683">
        <ele>249.069313</ele>
        <time>2020-07-10T16:12:42.257Z</time>
      </trkpt>
      <trkpt lat="48.571879" lon="16.621847">
        <ele>249.095586</ele>
        <time>2020-07-10T16:12:44.250Z</time>
      </trkpt>
      <trkpt lat="48.571929" lon="16.622007">
        <ele>249.119099</ele>
        <time>2020-07-10T16:12:46.280Z</time>
      </trkpt>
      <trkpt lat="48.571978" lon="16.622169">
        <ele>249.142769</ele>
        <time>2020-07-10T16:12:48.258Z</time>
      </trkpt>
      <trkpt lat="48.572018" lon="16.622345">
        <ele>249.167498</ele>
        <time>2020-07-10T16:12:50.261Z</time>
      </trkpt>
      <trkpt lat="48.572072" lon="16.622496">
        <ele>249.190306</ele>
        <time>2020-07-10T16:12:52.250Z</time>
      </trkpt>
      <trkpt lat="48.572179" lon="16.622533">
        <ele>249.212351</ele>
        <time>2020-07-10T16:12:54.254Z</time>
      </trkpt>
      <trkpt lat="48.572278" lon="16.622491">
        <ele>249.233001</ele>
        <time>2020-07-10T16:12:56.261Z</time>
      </trkpt>
      <trkpt lat="48.572391" lon="16.622447">
        <ele>249.256436</ele>
        <time>2020-07-10T16:12:59.283Z</time>
      </trkpt>
      <trkpt lat="48.572499" lon="16.622410">
        <ele>249.278676</ele>
        <time>2020-07-10T16:13:02.251Z</time>
      </trkpt>
      <trkpt lat="48.572564" lon="16.622599">
        <ele>249.306981</ele>
        <time>2020-07-10T16:13:05.302Z</time>
      </trkpt>
      <trkpt lat="48.572585" lon="16.622777">
        <ele>249.331007</ele>
        <time>2020-07-10T16:13:07.252Z</time>
      </trkpt>
      <trkpt lat="48.572618" lon="16.622976">
        <ele>249.358268</ele>
        <time>2020-07-10T16:13:09.290Z</time>
      </trkpt>
      <trkpt lat="48.572652" lon="16.623191">
        <ele>249.387643</ele>
        <time>2020-07-10T16:13:11.310Z</time>
      </trkpt>
      <trkpt lat="48.572692" lon="16.623392">
        <ele>249.415534</ele>
        <time>2020-07-10T16:13:13.269Z</time>
      </trkpt>
      <trkpt lat="48.572725" lon="16.623590">
        <ele>249.406740</ele>
        <time>2020-07-10T16:13:15.258Z</time>
      </trkpt>
      <trkpt lat="48.572757" lon="16.623786">
        <ele>249.312026</ele>
        <time>2020-07-10T16:13:17.264Z</time>
      </trkpt>
      <trkpt lat="48.572796" lon="16.623976">
        <ele>249.218693</ele>
        <time>2020-07-10T16:13:19.293Z</time>
      </trkpt>
      <trkpt lat="48.572827" lon="16.624162">
        <ele>249.128703</ele>
        <time>2020-07-10T16:13:21.254Z</time>
      </trkpt>
      <trkpt lat="48.572858" lon="16.624338">
        <ele>249.043254</ele>
        <time>2020-07-10T16:13:23.265Z</time>
      </trkpt>
      <trkpt lat="48.572886" lon="16.624514">
        <ele>248.958328</ele>
        <time>2020-07-10T16:13:25.257Z</time>
      </trkpt>
      <trkpt lat="48.572910" lon="16.624687">
        <ele>248.875398</ele>
        <time>2020-07-10T16:13:27.304Z</time>
      </trkpt>
      <trkpt lat="48.572929" lon="16.624853">
        <ele>248.796360</ele>
        <time>2020-07-10T16:13:29.276Z</time>
      </trkpt>
      <trkpt lat="48.572946" lon="16.625017">
        <ele>248.718479</ele>
        <time>2020-07-10T16:13:31.269Z</time>
      </trkpt>
      <trkpt lat="48.572962" lon="16.625181">
        <ele>248.640704</ele>
        <time>2020-07-10T16:13:33.262Z</time>
      </trkpt>
      <trkpt lat="48.572983" lon="16.625341">
        <ele>248.564175</ele>
        <time>2020-07-10T16:13:35.255Z</time>
      </trkpt>
      <trkpt lat="48.573005" lon="16.625501">
        <ele>248.487505</ele>
        <time>2020-07-10T16:13:37.259Z</time>
      </trkpt>
      <trkpt lat="48.573065" lon="16.625627">
        <ele>248.414673</ele>
        <time>2020-07-10T16:13:39.272Z</time>
      </trkpt>
      <trkpt lat="48.573174" lon="16.625605">
        <ele>248.336699</ele>
        <time>2020-07-10T16:13:41.268Z</time>
      </trkpt>
      <trkpt lat="48.573268" lon="16.625680">
        <ele>248.261329</ele>
        <time>2020-07-10T16:13:43.272Z</time>
      </trkpt>
      <trkpt lat="48.573297" lon="16.625830">
        <ele>248.188013</ele>
        <time>2020-07-10T16:13:45.250Z</time>
      </trkpt>
      <trkpt lat="48.573316" lon="16.625982">
        <ele>248.102616</ele>
        <time>2020-07-10T16:13:47.261Z</time>
      </trkpt>
      <trkpt lat="48.573336" lon="16.626136">
        <ele>248.007501</ele>
        <time>2020-07-10T16:13:49.284Z</time>
      </trkpt>
      <trkpt lat="48.573354" lon="16.626284">
        <ele>247.916301</ele>
        <time>2020-07-10T16:13:51.293Z</time>
      </trkpt>
      <trkpt lat="48.573377" lon="16.626488">
        <ele>247.790882</ele>
        <time>2020-07-10T16:13:54.264Z</time>
      </trkpt>
      <trkpt lat="48.573392" lon="16.626641">
        <ele>247.697142</ele>
        <time>2020-07-10T16:13:56.305Z</time>
      </trkpt>
      <trkpt lat="48.573411" lon="16.626794">
        <ele>247.602796</ele>
        <time>2020-07-10T16:13:58.252Z</time>
      </trkpt>
      <trkpt lat="48.573450" lon="16.626940">
        <ele>247.507372</ele>
        <time>2020-07-10T16:14:00.254Z</time>
      </trkpt>
      <trkpt lat="48.573536" lon="16.627061">
        <ele>247.399747</ele>
        <time>2020-07-10T16:14:02.251Z</time>
      </trkpt>
      <trkpt lat="48.573628" lon="16.627152">
        <ele>247.299035</ele>
        <time>2020-07-10T16:14:04.273Z</time>
      </trkpt>
      <trkpt lat="48.573723" lon="16.627254">
        <ele>247.192295</ele>
        <time>2020-07-10T16:14:06.253Z</time>
      </trkpt>
      <trkpt lat="48.573804" lon="16.627361">
        <ele>247.093755</ele>
        <time>2020-07-10T16:14:08.276Z</time>
      </trkpt>
      <trkpt lat="48.573894" lon="16.627446">
        <ele>246.996546</ele>
        <time>2020-07-10T16:14:10.262Z</time>
      </trkpt>
      <trkpt lat="48.574001" lon="16.627478">
        <ele>246.896636</ele>
        <time>2020-07-10T16:14:12.291Z</time>
      </trkpt>
      <trkpt lat="48.574114" lon="16.627438">
        <ele>246.790330</ele>
        <time>2020-07-10T16:14:14.262Z</time>
      </trkpt>
      <trkpt lat="48.574211" lon="16.627378">
        <ele>246.694328</ele>
        <time>2020-07-10T16:14:16.259Z</time>
      </trkpt>
      <trkpt lat="48.574325" lon="16.627435">
        <ele>246.584341</ele>
        <time>2020-07-10T16:14:19.276Z</time>
      </trkpt>
      <trkpt lat="48.574364" lon="16.627603">
        <ele>246.504341</ele>
        <time>2020-07-10T16:14:22.286Z</time>
      </trkpt>
      <trkpt lat="48.574406" lon="16.627801">
        <ele>246.477543</ele>
        <time>2020-07-10T16:14:25.259Z</time>
      </trkpt>
      <trkpt lat="48.574435" lon="16.627948">
        <ele>246.457773</ele>
        <time>2020-07-10T16:14:27.279Z</time>
      </trkpt>
      <trkpt lat="48.574452" lon="16.628112">
        <ele>246.436378</ele>
        <time>2020-07-10T16:14:29.258Z</time>
      </trkpt>
      <trkpt lat="48.574470" lon="16.628275">
        <ele>246.415080</ele>
        <time>2020-07-10T16:14:31.272Z</time>
      </trkpt>
      <trkpt lat="48.574481" lon="16.628438">
        <ele>246.393963</ele>
        <time>2020-07-10T16:14:33.255Z</time>
      </trkpt>
      <trkpt lat="48.574491" lon="16.628611">
        <ele>246.371581</ele>
        <time>2020-07-10T16:14:35.262Z</time>
      </trkpt>
      <trkpt lat="48.574500" lon="16.628787">
        <ele>246.348830</ele>
        <time>2020-07-10T16:14:37.293Z</time>
      </trkpt>
      <trkpt lat="48.574511" lon="16.628958">
        <ele>246.326687</ele>
        <time>2020-07-10T16:14:39.271Z</time>
      </trkpt>
      <trkpt lat="48.574524" lon="16.629123">
        <ele>246.305272</ele>
        <time>2020-07-10T16:14:41.274Z</time>
      </trkpt>
      <trkpt lat="48.574539" lon="16.629280">
        <ele>246.284827</ele>
        <time>2020-07-10T16:14:43.296Z</time>
      </trkpt>
      <trkpt lat="48.574554" lon="16.629446">
        <ele>246.263234</ele>
        <time>2020-07-10T16:14:45.254Z</time>
      </trkpt>
      <trkpt lat="48.574575" lon="16.629610">
        <ele>246.241705</ele>
        <time>2020-07-10T16:14:47.294Z</time>
      </trkpt>
      <trkpt lat="48.574593" lon="16.629772">
        <ele>246.220534</ele>
        <time>2020-07-10T16:14:49.296Z</time>
      </trkpt>
      <trkpt lat="48.574608" lon="16.629934">
        <ele>246.199452</ele>
        <time>2020-07-10T16:14:51.272Z</time>
      </trkpt>
      <trkpt lat="48.574622" lon="16.630094">
        <ele>246.178651</ele>
        <time>2020-07-10T16:14:53.288Z</time>
      </trkpt>
      <trkpt lat="48.574629" lon="16.630251">
        <ele>246.159788</ele>
        <time>2020-07-10T16:14:55.254Z</time>
      </trkpt>
      <trkpt lat="48.574640" lon="16.630415">
        <ele>246.148108</ele>
        <time>2020-07-10T16:14:57.261Z</time>
      </trkpt>
      <trkpt lat="48.574656" lon="16.630576">
        <ele>246.136573</ele>
        <time>2020-07-10T16:14:59.284Z</time>
      </trkpt>
      <trkpt lat="48.574695" lon="16.630720">
        <ele>246.125549</ele>
        <time>2020-07-10T16:15:01.291Z</time>
      </trkpt>
      <trkpt lat="48.574743" lon="16.630868">
        <ele>246.113871</ele>
        <time>2020-07-10T16:15:03.273Z</time>
      </trkpt>
      <trkpt lat="48.574789" lon="16.631022">
        <ele>246.101899</ele>
        <time>2020-07-10T16:15:05.260Z</time>
      </trkpt>
      <trkpt lat="48.574850" lon="16.631166">
        <ele>246.089785</ele>
        <time>2020-07-10T16:15:07.288Z</time>
      </trkpt>
      <trkpt lat="48.574909" lon="16.631313">
        <ele>246.077603</ele>
        <time>2020-07-10T16:15:09.275Z</time>
      </trkpt>
      <trkpt lat="48.574966" lon="16.631463">
        <ele>246.065347</ele>
        <time>2020-07-10T16:15:11.292Z</time>
      </trkpt>
      <trkpt lat="48.575022" lon="16.631613">
        <ele>246.053144</ele>
        <time>2020-07-10T16:15:13.265Z</time>
      </trkpt>
      <trkpt lat="48.575075" lon="16.631761">
        <ele>246.041221</ele>
        <time>2020-07-10T16:15:15.261Z</time>
      </trkpt>
      <trkpt lat="48.575056" lon="16.631952">
        <ele>246.027536</ele>
        <time>2020-07-10T16:15:18.256Z</time>
      </trkpt>
      <trkpt lat="48.574967" lon="16.632027">
        <ele>246.016625</ele>
        <time>2020-07-10T16:15:20.270Z</time>
      </trkpt>
      <trkpt lat="48.574875" lon="16.632105">
        <ele>246.005329</ele>
        <time>2020-07-10T16:15:22.288Z</time>
      </trkpt>
      <trkpt lat="48.574858" lon="16.632244">
        <ele>245.995313</ele>
        <time>2020-07-10T16:15:24.260Z</time>
      </trkpt>
      <trkpt lat="48.574892" lon="16.632391">
        <ele>245.984280</ele>
        <time>2020-07-10T16:15:26.302Z</time>
      </trkpt>
      <trkpt lat="48.574924" lon="16.632545">
        <ele>245.972844</ele>
        <time>2020-07-10T16:15:28.285Z</time>
      </trkpt>
      <trkpt lat="48.574969" lon="16.632696">
        <ele>245.954242</ele>
        <time>2020-07-10T16:15:30.255Z</time>
      </trkpt>
      <trkpt lat="48.575029" lon="16.632852">
        <ele>245.930203</ele>
        <time>2020-07-10T16:15:32.315Z</time>
      </trkpt>
      <trkpt lat="48.575084" lon="16.633007">
        <ele>245.906771</ele>
        <time>2020-07-10T16:15:34.280Z</time>
      </trkpt>
      <trkpt lat="48.575141" lon="16.633154">
        <ele>245.884072</ele>
        <time>2020-07-10T16:15:36.262Z</time>
      </trkpt>
      <trkpt lat="48.575206" lon="16.633287">
        <ele>245.862044</ele>
        <time>2020-07-10T16:15:38.252Z</time>
      </trkpt>
      <trkpt lat="48.575307" lon="16.633286">
        <ele>245.841706</ele>
        <time>2020-07-10T16:15:40.278Z</time>
      </trkpt>
      <trkpt lat="48.575395" lon="16.633199">
        <ele>245.820533</ele>
        <time>2020-07-10T16:15:42.264Z</time>
      </trkpt>
      <trkpt lat="48.575484" lon="16.633096">
        <ele>245.797962</ele>
        <time>2020-07-10T16:15:44.255Z</time>
      </trkpt>
      <trkpt lat="48.575576" lon="16.632985">
        <ele>245.774259</ele>
        <time>2020-07-10T16:15:46.288Z</time>
      </trkpt>
      <trkpt lat="48.575669" lon="16.632863">
        <ele>245.749463</ele>
        <time>2020-07-10T16:15:48.287Z</time>
      </trkpt>
      <trkpt lat="48.575759" lon="16.632734">
        <ele>245.724489</ele>
        <time>2020-07-10T16:15:50.269Z</time>
      </trkpt>
      <trkpt lat="48.575853" lon="16.632611">
        <ele>245.699453</ele>
        <time>2020-07-10T16:15:52.291Z</time>
      </trkpt>
      <trkpt lat="48.575931" lon="16.632482">
        <ele>245.676172</ele>
        <time>2020-07-10T16:15:54.262Z</time>
      </trkpt>
      <trkpt lat="48.576015" lon="16.632368">
        <ele>245.653441</ele>
        <time>2020-07-10T16:15:56.275Z</time>
      </trkpt>
      <trkpt lat="48.576098" lon="16.632259">
        <ele>245.631301</ele>
        <time>2020-07-10T16:15:58.302Z</time>
      </trkpt>
      <trkpt lat="48.576187" lon="16.632146">
        <ele>245.607896</ele>
        <time>2020-07-10T16:16:00.253Z</time>
      </trkpt>
      <trkpt lat="48.576276" lon="16.632037">
        <ele>245.651759</ele>
        <time>2020-07-10T16:16:02.253Z</time>
      </trkpt>
      <trkpt lat="48.576365" lon="16.631920">
        <ele>245.700544</ele>
        <time>2020-07-10T16:16:04.255Z</time>
      </trkpt>
      <trkpt lat="48.576452" lon="16.631807">
        <ele>245.747986</ele>
        <time>2020-07-10T16:16:06.279Z</time>
      </trkpt>
      <trkpt lat="48.576530" lon="16.631702">
        <ele>245.791186</ele>
        <time>2020-07-10T16:16:08.276Z</time>
      </trkpt>
      <trkpt lat="48.576618" lon="16.631732">
        <ele>245.828496</ele>
        <time>2020-07-10T16:16:10.261Z</time>
      </trkpt>
      <trkpt lat="48.576703" lon="16.631884">
        <ele>245.882955</ele>
        <time>2020-07-10T16:16:12.274Z</time>
      </trkpt>
      <trkpt lat="48.576788" lon="16.632058">
        <ele>245.942140</ele>
        <time>2020-07-10T16:16:14.260Z</time>
      </trkpt>
      <trkpt lat="48.576873" lon="16.632222">
        <ele>245.999146</ele>
        <time>2020-07-10T16:16:16.270Z</time>
      </trkpt>
      <trkpt lat="48.576956" lon="16.632368">
        <ele>246.051819</ele>
        <time>2020-07-10T16:16:18.270Z</time>
      </trkpt>
      <trkpt lat="48.577051" lon="16.632505">
        <ele>246.106125</ele>
        <time>2020-07-10T16:16:20.302Z</time>
      </trkpt>
      <trkpt lat="48.577148" lon="16.632642">
        <ele>246.161032</ele>
        <time>2020-07-10T16:16:22.269Z</time>
      </trkpt>
      <trkpt lat="48.577244" lon="16.632778">
        <ele>246.215450</ele>
        <time>2020-07-10T16:16:24.271Z</time>
      </trkpt>
      <trkpt lat="48.577340" lon="16.632907">
        <ele>246.268576</ele>
        <time>2020-07-10T16:16:26.267Z</time>
      </trkpt>
      <trkpt lat="48.577439" lon="16.633039">
        <ele>246.323176</ele>
        <time>2020-07-10T16:16:28.253Z</time>
      </trkpt>
      <trkpt lat="48.577531" lon="16.633177">
        <ele>246.382059</ele>
        <time>2020-07-10T16:16:30.291Z</time>
      </trkpt>
      <trkpt lat="48.577619" lon="16.633310">
        <ele>246.443915</ele>
        <time>2020-07-10T16:16:32.261Z</time>
      </trkpt>
      <trkpt lat="48.577705" lon="16.633441">
        <ele>246.504603</ele>
        <time>2020-07-10T16:16:34.278Z</time>
      </trkpt>
      <trkpt lat="48.577792" lon="16.633569">
        <ele>246.564950</ele>
        <time>2020-07-10T16:16:36.271Z</time>
      </trkpt>
      <trkpt lat="48.577881" lon="16.633698">
        <ele>246.626241</ele>
        <time>2020-07-10T16:16:38.259Z</time>
      </trkpt>
      <trkpt lat="48.577970" lon="16.633825">
        <ele>246.687078</ele>
        <time>2020-07-10T16:16:40.265Z</time>
      </trkpt>
      <trkpt lat="48.578056" lon="16.633954">
        <ele>246.747301</ele>
        <time>2020-07-10T16:16:42.275Z</time>
      </trkpt>
      <trkpt lat="48.578139" lon="16.634082">
        <ele>246.806240</ele>
        <time>2020-07-10T16:16:44.263Z</time>
      </trkpt>
      <trkpt lat="48.578207" lon="16.634232">
        <ele>246.866036</ele>
        <time>2020-07-10T16:16:46.315Z</time>
      </trkpt>
      <trkpt lat="48.578276" lon="16.634371">
        <ele>246.923182</ele>
        <time>2020-07-10T16:16:48.303Z</time>
      </trkpt>
      <trkpt lat="48.578357" lon="16.634498">
        <ele>246.981192</ele>
        <time>2020-07-10T16:16:50.282Z</time>
      </trkpt>
      <trkpt lat="48.578443" lon="16.634623">
        <ele>247.040495</ele>
        <time>2020-07-10T16:16:52.273Z</time>
      </trkpt>
      <trkpt lat="48.578532" lon="16.634749">
        <ele>247.101107</ele>
        <time>2020-07-10T16:16:54.268Z</time>
      </trkpt>
      <trkpt lat="48.578622" lon="16.634877">
        <ele>247.162531</ele>
        <time>2020-07-10T16:16:56.281Z</time>
      </trkpt>
      <trkpt lat="48.578711" lon="16.635003">
        <ele>247.223143</ele>
        <time>2020-07-10T16:16:58.287Z</time>
      </trkpt>
      <trkpt lat="48.578797" lon="16.635131">
        <ele>247.263871</ele>
        <time>2020-07-10T16:17:00.252Z</time>
      </trkpt>
      <trkpt lat="48.578883" lon="16.635259">
        <ele>247.293829</ele>
        <time>2020-07-10T16:17:02.260Z</time>
      </trkpt>
      <trkpt lat="48.578970" lon="16.635392">
        <ele>247.324542</ele>
        <time>2020-07-10T16:17:04.305Z</time>
      </trkpt>
      <trkpt lat="48.579053" lon="16.635528">
        <ele>247.354926</ele>
        <time>2020-07-10T16:17:06.299Z</time>
      </trkpt>
      <trkpt lat="48.579137" lon="16.635659">
        <ele>247.384884</ele>
        <time>2020-07-10T16:17:08.254Z</time>
      </trkpt>
      <trkpt lat="48.579227" lon="16.635789">
        <ele>247.415782</ele>
        <time>2020-07-10T16:17:10.253Z</time>
      </trkpt>
      <trkpt lat="48.579315" lon="16.635925">
        <ele>247.447021</ele>
        <time>2020-07-10T16:17:12.260Z</time>
      </trkpt>
      <trkpt lat="48.579404" lon="16.636058">
        <ele>247.478085</ele>
        <time>2020-07-10T16:17:14.279Z</time>
      </trkpt>
      <trkpt lat="48.579490" lon="16.636186">
        <ele>247.508043</ele>
        <time>2020-07-10T16:17:16.263Z</time>
      </trkpt>
      <trkpt lat="48.579572" lon="16.636312">
        <ele>247.537066</ele>
        <time>2020-07-10T16:17:18.270Z</time>
      </trkpt>
      <trkpt lat="48.579647" lon="16.636440">
        <ele>247.565143</ele>
        <time>2020-07-10T16:17:20.271Z</time>
      </trkpt>
      <trkpt lat="48.579716" lon="16.636571">
        <ele>247.592640</ele>
        <time>2020-07-10T16:17:22.271Z</time>
      </trkpt>
      <trkpt lat="48.579788" lon="16.636700">
        <ele>247.620355</ele>
        <time>2020-07-10T16:17:24.285Z</time>
      </trkpt>
      <trkpt lat="48.579860" lon="16.636832">
        <ele>247.648448</ele>
        <time>2020-07-10T16:17:26.280Z</time>
      </trkpt>
      <trkpt lat="48.579930" lon="16.636975">
        <ele>247.677659</ele>
        <time>2020-07-10T16:17:28.302Z</time>
      </trkpt>
      <trkpt lat="48.579986" lon="16.637117">
        <ele>247.692743</ele>
        <time>2020-07-10T16:17:30.270Z</time>
      </trkpt>
      <trkpt lat="48.580038" lon="16.637258">
        <ele>247.695925</ele>
        <time>2020-07-10T16:17:32.284Z</time>
      </trkpt>
      <trkpt lat="48.580088" lon="16.637404">
        <ele>247.699166</ele>
        <time>2020-07-10T16:17:34.287Z</time>
      </trkpt>
      <trkpt lat="48.580135" lon="16.637561">
        <ele>247.702563</ele>
        <time>2020-07-10T16:17:36.272Z</time>
      </trkpt>
      <trkpt lat="48.580182" lon="16.637724">
        <ele>247.706068</ele>
        <time>2020-07-10T16:17:38.285Z</time>
      </trkpt>
      <trkpt lat="48.580231" lon="16.637882">
        <ele>247.709508</ele>
        <time>2020-07-10T16:17:40.284Z</time>
      </trkpt>
      <trkpt lat="48.580280" lon="16.638034">
        <ele>247.712841</ele>
        <time>2020-07-10T16:17:42.267Z</time>
      </trkpt>
      <trkpt lat="48.580329" lon="16.638181">
        <ele>247.716085</ele>
        <time>2020-07-10T16:17:44.259Z</time>
      </trkpt>
      <trkpt lat="48.580376" lon="16.638321">
        <ele>247.719180</ele>
        <time>2020-07-10T16:17:46.288Z</time>
      </trkpt>
      <trkpt lat="48.580419" lon="16.638471">
        <ele>247.722403</ele>
        <time>2020-07-10T16:17:49.276Z</time>
      </trkpt>
      <trkpt lat="48.580474" lon="16.638586">
        <ele>247.725200</ele>
        <time>2020-07-10T16:17:56.271Z</time>
      </trkpt>
      <trkpt lat="48.580534" lon="16.638706">
        <ele>247.728165</ele>
        <time>2020-07-10T16:18:00.250Z</time>
      </trkpt>
      <trkpt lat="48.580621" lon="16.638805">
        <ele>247.731410</ele>
        <time>2020-07-10T16:18:04.265Z</time>
      </trkpt>
      <trkpt lat="48.580699" lon="16.638956">
        <ele>247.735186</ele>
        <time>2020-07-10T16:18:07.254Z</time>
      </trkpt>
      <trkpt lat="48.580772" lon="16.639117">
        <ele>247.739033</ele>
        <time>2020-07-10T16:18:10.277Z</time>
      </trkpt>
      <trkpt lat="48.580820" lon="16.639237">
        <ele>247.741798</ele>
        <time>2020-07-10T16:18:12.289Z</time>
      </trkpt>
      <trkpt lat="48.580868" lon="16.639366">
        <ele>247.744587</ele>
        <time>2020-07-10T16:18:14.298Z</time>
      </trkpt>
      <trkpt lat="48.580915" lon="16.639496">
        <ele>247.732489</ele>
        <time>2020-07-10T16:18:16.267Z</time>
      </trkpt>
      <trkpt lat="48.580969" lon="16.639630">
        <ele>247.719675</ele>
        <time>2020-07-10T16:18:18.277Z</time>
      </trkpt>
      <trkpt lat="48.581029" lon="16.639763">
        <ele>247.706529</ele>
        <time>2020-07-10T16:18:20.284Z</time>
      </trkpt>
      <trkpt lat="48.581092" lon="16.639905">
        <ele>247.692566</ele>
        <time>2020-07-10T16:18:22.259Z</time>
      </trkpt>
      <trkpt lat="48.581156" lon="16.640056">
        <ele>247.677921</ele>
        <time>2020-07-10T16:18:24.257Z</time>
      </trkpt>
      <trkpt lat="48.581223" lon="16.640212">
        <ele>247.662732</ele>
        <time>2020-07-10T16:18:26.276Z</time>
      </trkpt>
      <trkpt lat="48.581283" lon="16.640367">
        <ele>247.648067</ele>
        <time>2020-07-10T16:18:28.260Z</time>
      </trkpt>
      <trkpt lat="48.581339" lon="16.640522">
        <ele>247.633644</ele>
        <time>2020-07-10T16:18:30.293Z</time>
      </trkpt>
      <trkpt lat="48.581391" lon="16.640671">
        <ele>247.619887</ele>
        <time>2020-07-10T16:18:32.272Z</time>
      </trkpt>
      <trkpt lat="48.581445" lon="16.640819">
        <ele>247.606084</ele>
        <time>2020-07-10T16:18:34.268Z</time>
      </trkpt>
      <trkpt lat="48.581500" lon="16.640970">
        <ele>247.592008</ele>
        <time>2020-07-10T16:18:36.251Z</time>
      </trkpt>
      <trkpt lat="48.581555" lon="16.641127">
        <ele>247.577500</ele>
        <time>2020-07-10T16:18:38.283Z</time>
      </trkpt>
      <trkpt lat="48.581607" lon="16.641288">
        <ele>247.562869</ele>
        <time>2020-07-10T16:18:40.302Z</time>
      </trkpt>
      <trkpt lat="48.581661" lon="16.641444">
        <ele>247.548491</ele>
        <time>2020-07-10T16:18:42.281Z</time>
      </trkpt>
      <trkpt lat="48.581718" lon="16.641603">
        <ele>247.533722</ele>
        <time>2020-07-10T16:18:44.283Z</time>
      </trkpt>
      <trkpt lat="48.581776" lon="16.641767">
        <ele>247.516198</ele>
        <time>2020-07-10T16:18:46.255Z</time>
      </trkpt>
      <trkpt lat="48.581834" lon="16.641924">
        <ele>247.493191</ele>
        <time>2020-07-10T16:18:48.266Z</time>
      </trkpt>
      <trkpt lat="48.581893" lon="16.642079">
        <ele>247.470311</ele>
        <time>2020-07-10T16:18:50.264Z</time>
      </trkpt>
      <trkpt lat="48.581956" lon="16.642229">
        <ele>247.447578</ele>
        <time>2020-07-10T16:18:52.308Z</time>
      </trkpt>
      <trkpt lat="48.582009" lon="16.642370">
        <ele>247.426829</ele>
        <time>2020-07-10T16:18:54.273Z</time>
      </trkpt>
      <trkpt lat="48.582056" lon="16.642541">
        <ele>247.403138</ele>
        <time>2020-07-10T16:18:56.254Z</time>
      </trkpt>
      <trkpt lat="48.582115" lon="16.642714">
        <ele>247.378235</ele>
        <time>2020-07-10T16:18:58.255Z</time>
      </trkpt>
      <trkpt lat="48.582177" lon="16.642879">
        <ele>247.353957</ele>
        <time>2020-07-10T16:19:00.249Z</time>
      </trkpt>
      <trkpt lat="48.582245" lon="16.643037">
        <ele>247.329840</ele>
        <time>2020-07-10T16:19:02.269Z</time>
      </trkpt>
      <trkpt lat="48.582306" lon="16.643200">
        <ele>247.305880</ele>
        <time>2020-07-10T16:19:04.251Z</time>
      </trkpt>
      <trkpt lat="48.582368" lon="16.643364">
        <ele>247.281713</ele>
        <time>2020-07-10T16:19:06.344Z</time>
      </trkpt>
      <trkpt lat="48.582433" lon="16.643526">
        <ele>247.257472</ele>
        <time>2020-07-10T16:19:08.280Z</time>
      </trkpt>
      <trkpt lat="48.582496" lon="16.643690">
        <ele>247.233208</ele>
        <time>2020-07-10T16:19:10.268Z</time>
      </trkpt>
      <trkpt lat="48.582558" lon="16.643851">
        <ele>247.209373</ele>
        <time>2020-07-10T16:19:12.273Z</time>
      </trkpt>
      <trkpt lat="48.582621" lon="16.644013">
        <ele>247.185331</ele>
        <time>2020-07-10T16:19:14.288Z</time>
      </trkpt>
      <trkpt lat="48.582685" lon="16.644178">
        <ele>247.116107</ele>
        <time>2020-07-10T16:19:16.288Z</time>
      </trkpt>
      <trkpt lat="48.582749" lon="16.644339">
        <ele>247.014944</ele>
        <time>2020-07-10T16:19:18.272Z</time>
      </trkpt>
      <trkpt lat="48.582810" lon="16.644502">
        <ele>246.914081</ele>
        <time>2020-07-10T16:19:20.273Z</time>
      </trkpt>
      <trkpt lat="48.582871" lon="16.644668">
        <ele>246.811809</ele>
        <time>2020-07-10T16:19:22.281Z</time>
      </trkpt>
      <trkpt lat="48.582930" lon="16.644832">
        <ele>246.711265</ele>
        <time>2020-07-10T16:19:24.250Z</time>
      </trkpt>
      <trkpt lat="48.582992" lon="16.644987">
        <ele>246.613711</ele>
        <time>2020-07-10T16:19:26.259Z</time>
      </trkpt>
      <trkpt lat="48.583054" lon="16.645124">
        <ele>246.524311</ele>
        <time>2020-07-10T16:19:28.256Z</time>
      </trkpt>
      <trkpt lat="48.583123" lon="16.645227">
        <ele>246.445362</ele>
        <time>2020-07-10T16:19:30.255Z</time>
      </trkpt>
      <trkpt lat="48.583085" lon="16.645363">
        <ele>246.365849</ele>
        <time>2020-07-10T16:19:34.259Z</time>
      </trkpt>
      <trkpt lat="48.582985" lon="16.645402">
        <ele>246.281769</ele>
        <time>2020-07-10T16:19:37.263Z</time>
      </trkpt>
      <trkpt lat="48.582952" lon="16.645535">
        <ele>246.205265</ele>
        <time>2020-07-10T16:19:41.281Z</time>
      </trkpt>
      <trkpt lat="48.582996" lon="16.645681">
        <ele>246.118856</ele>
        <time>2020-07-10T16:19:44.271Z</time>
      </trkpt>
      <trkpt lat="48.583037" lon="16.645817">
        <ele>246.038362</ele>
        <time>2020-07-10T16:19:46.305Z</time>
      </trkpt>
      <trkpt lat="48.583086" lon="16.645967">
        <ele>245.948262</ele>
        <time>2020-07-10T16:19:48.268Z</time>
      </trkpt>
      <trkpt lat="48.583136" lon="16.646122">
        <ele>245.855386</ele>
        <time>2020-07-10T16:19:50.265Z</time>
      </trkpt>
      <trkpt lat="48.583199" lon="16.646276">
        <ele>245.757866</ele>
        <time>2020-07-10T16:19:52.263Z</time>
      </trkpt>
      <trkpt lat="48.583274" lon="16.646421">
        <ele>245.710453</ele>
        <time>2020-07-10T16:19:54.270Z</time>
      </trkpt>
      <trkpt lat="48.583344" lon="16.646560">
        <ele>245.710453</ele>
        <time>2020-07-10T16:19:56.252Z</time>
      </trkpt>
      <trkpt lat="48.583417" lon="16.646700">
        <ele>245.710453</ele>
        <time>2020-07-10T16:19:58.268Z</time>
      </trkpt>
      <trkpt lat="48.583495" lon="16.646837">
        <ele>245.710453</ele>
        <time>2020-07-10T16:20:00.249Z</time>
      </trkpt>
      <trkpt lat="48.583568" lon="16.646973">
        <ele>245.710453</ele>
        <time>2020-07-10T16:20:02.275Z</time>
      </trkpt>
      <trkpt lat="48.583649" lon="16.647113">
        <ele>245.710453</ele>
        <time>2020-07-10T16:20:04.279Z</time>
      </trkpt>
      <trkpt lat="48.583729" lon="16.647258">
        <ele>245.710453</ele>
        <time>2020-07-10T16:20:06.253Z</time>
      </trkpt>
      <trkpt lat="48.583809" lon="16.647402">
        <ele>245.710453</ele>
        <time>2020-07-10T16:20:08.279Z</time>
      </trkpt>
      <trkpt lat="48.583888" lon="16.647546">
        <ele>245.710453</ele>
        <time>2020-07-10T16:20:10.262Z</time>
      </trkpt>
      <trkpt lat="48.583969" lon="16.647690">
        <ele>245.710453</ele>
        <time>2020-07-10T16:20:12.285Z</time>
      </trkpt>
      <trkpt lat="48.584052" lon="16.647833">
        <ele>245.710453</ele>
        <time>2020-07-10T16:20:14.269Z</time>
      </trkpt>
      <trkpt lat="48.584130" lon="16.647978">
        <ele>245.710453</ele>
        <time>2020-07-10T16:20:16.258Z</time>
      </trkpt>
      <trkpt lat="48.584210" lon="16.648120">
        <ele>245.710453</ele>
        <time>2020-07-10T16:20:18.256Z</time>
      </trkpt>
      <trkpt lat="48.584293" lon="16.648258">
        <ele>245.710453</ele>
        <time>2020-07-10T16:20:20.306Z</time>
      </trkpt>
      <trkpt lat="48.584370" lon="16.648391">
        <ele>245.710453</ele>
        <time>2020-07-10T16:20:22.282Z</time>
      </trkpt>
      <trkpt lat="48.584437" lon="16.648521">
        <ele>245.710453</ele>
        <time>2020-07-10T16:20:24.270Z</time>
      </trkpt>
      <trkpt lat="48.584465" lon="16.648667">
        <ele>245.710453</ele>
        <time>2020-07-10T16:20:26.257Z</time>
      </trkpt>
      <trkpt lat="48.584385" lon="16.648765">
        <ele>245.710453</ele>
        <time>2020-07-10T16:20:28.265Z</time>
      </trkpt>
      <trkpt lat="48.584285" lon="16.648840">
        <ele>245.710453</ele>
        <time>2020-07-10T16:20:30.267Z</time>
      </trkpt>
      <trkpt lat="48.584192" lon="16.648929">
        <ele>245.710453</ele>
        <time>2020-07-10T16:20:32.295Z</time>
      </trkpt>
      <trkpt lat="48.584102" lon="16.649012">
        <ele>245.710453</ele>
        <time>2020-07-10T16:20:34.272Z</time>
      </trkpt>
      <trkpt lat="48.584019" lon="16.649083">
        <ele>245.710453</ele>
        <time>2020-07-10T16:20:36.252Z</time>
      </trkpt>
      <trkpt lat="48.583932" lon="16.649072">
        <ele>245.710453</ele>
        <time>2020-07-10T16:20:52.481Z</time>
      </trkpt>
    </trkseg>
  </trk>
</gpx>